[[[{"header":{"parameterUnit":"kt","parameterCategory":2,"dx":1,"dy":1,"la1":29.587661999999998,"la2":31.0,"lo1":-88.76705300000003,"lo2":-86.6583820000003,"nx":115,"ny":88,"refTime":"2022-09-23T06:00:00:Z","depth":0,"parameterNumber":1,"parameterNumberName":"U-component_of_WINDS"},"data":[18.7517,18.6288,18.4551,18.3174,18.1853,18.0444,17.9842,17.9842,17.9842,17.9842,17.9842,17.9842,17.9842,17.9842,17.9842,17.9988,18.0557,18.1436,18.2071,18.2717,18.328,18.3884,18.4485,18.4852,18.4875,18.5133,18.546,18.546,18.546,18.546,18.546,18.546,18.546,18.546,18.546,18.546,18.546,18.546,18.547,18.5541,18.6033,18.6456,18.722,18.7773,18.8618,18.8347,18.8065,18.7572,18.6738,18.6114,18.5762,18.5601,18.546,18.546,18.553,18.6375,18.7995,18.8769,18.9322,19.0871,19.1505,19.0871,19.0871,19.073,19.073,19.066,19.0874,19.1172,19.1037,19.2643,19.4092,19.6094,19.7448,19.8084,19.9539,20.0098,20.0655,20.0919,20.1371,20.1728,20.1728,20.1728,20.1728,20.1728,20.1728,20.1728,20.1728,20.1728,20.1728,20.1509,20.129,20.1509,20.1728,20.1736,20.1371,20.1152,20.1517,20.1436,20.0998,20.0495,20.013,19.9919,19.9189,19.7948,19.7291,19.6846,19.5686,19.451,19.3854,19.3152,19.2844,19.2379,19.2187,19.2233,19.2233,18.663,18.6015,18.341,18.2058,18.1704,18.0364,17.9842,17.9842,17.9842,17.9842,17.9842,17.9842,17.9842,17.9842,17.9842,17.9857,18.0435,18.1758,18.2084,18.2651,18.367,18.4404,18.4956,18.5204,18.5265,18.5388,18.546,18.546,18.546,18.546,18.546,18.546,18.546,18.546,18.546,18.546,18.546,18.546,18.546,18.546,18.547,18.5681,18.5882,18.5812,18.6033,18.6667,18.7009,18.6938,18.6738,18.6315,18.6033,18.5671,18.546,18.546,18.546,18.5882,18.7442,18.7854,18.8065,18.9252,18.9744,18.9956,19.0177,19.0167,19.0156,19.0167,19.0237,18.9948,18.8892,18.9496,19.077,19.2245,19.3471,19.4573,19.6578,19.8105,19.8923,19.9611,20.0641,20.1647,20.1655,20.1728,20.1728,20.1728,20.1728,20.1728,20.1728,20.1728,20.1728,20.1509,20.1436,20.1509,20.1298,20.0649,20.0138,20.043,20.1225,20.1152,20.1152,20.1371,20.1444,20.1079,20.0422,19.9408,19.8824,19.8313,19.7291,19.627,19.5248,19.4464,19.3707,19.2897,19.2743,19.2597,19.2452,18.6369,18.6015,18.3205,18.1512,18.0717,18.0115,17.9842,17.9842,17.9842,17.9842,17.991,18.0649,18.1046,18.1046,18.1957,18.2211,18.1426,18.2469,18.2614,18.3076,18.3953,18.4833,18.5255,18.5399,18.546,18.546,18.546,18.546,18.546,18.546,18.546,18.546,18.546,18.546,18.546,18.546,18.546,18.546,18.546,18.546,18.546,18.547,18.546,18.546,18.553,18.5752,18.6094,18.6033,18.5963,18.5882,18.5882,18.546,18.546,18.546,18.546,18.5893,18.6597,18.7371,18.715,18.7572,18.8266,18.7562,18.7431,18.8639,18.8769,19.0016,19.0096,19.0096,18.9121,18.9255,19.0527,19.1275,19.2432,19.3675,19.55,19.6665,19.7284,19.8167,19.9116,20.0203,20.0787,20.0933,20.1728,20.1728,20.1728,20.1728,20.1728,20.1728,20.1728,20.1574,20.1509,20.1363,20.0576,19.9854,19.9992,20.0576,20.1014,20.0941,20.086,20.0787,20.0722,20.1225,20.1728,20.0998,20.0349,19.9765,19.9189,19.8394,19.7372,19.6051,19.4802,19.3554,19.3196,19.305,19.2678,18.5687,18.506,18.2535,18.0841,17.983,17.9842,17.9842,17.9842,17.9842,18.0046,18.0444,18.1375,18.2045,18.2343,18.3049,18.2684,18.2054,18.2514,18.3118,18.3336,18.4081,18.4875,18.5419,18.546,18.546,18.546,18.546,18.546,18.546,18.546,18.546,18.546,18.546,18.546,18.546,18.546,18.546,18.546,18.546,18.546,18.546,18.546,18.546,18.546,18.546,18.553,18.553,18.547,18.546,18.546,18.546,18.546,18.546,18.546,18.546,18.5601,18.6375,18.6375,18.6234,18.6516,18.6798,18.6033,18.6234,18.6878,18.7794,18.9252,19.0086,19.0227,19.0336,19.0792,19.1318,19.1833,19.2633,19.3876,19.5248,19.5507,19.5751,19.6635,19.7445,19.8394,19.9351,20.0292,20.1371,20.1728,20.1728,20.1728,20.1728,20.1728,20.1728,20.1655,20.1582,20.1371,20.043,20.0211,20.0576,20.0933,20.0795,20.0649,20.0503,20.0065,19.9635,19.9773,19.9911,20.0641,20.1509,20.0998,20.0349,19.9781,19.8905,19.7802,19.6481,19.5021,19.4437,19.3934,19.3342,18.3651,18.2262,18.0649,17.9966,17.9842,17.9842,17.9842,17.9842,17.9842,18.05,18.1512,18.1841,18.2652,18.3417,18.328,18.2673,18.2682,18.27,18.301,18.2717,18.4119,18.4854,18.5337,18.546,18.546,18.546,18.546,18.546,18.546,18.546,18.546,18.546,18.546,18.546,18.546,18.546,18.546,18.546,18.546,18.546,18.546,18.546,18.546,18.546,18.546,18.546,18.546,18.546,18.546,18.546,18.546,18.546,18.546,18.546,18.546,18.5671,18.5742,18.5671,18.5742,18.5812,18.5681,18.6174,18.6738,18.7572,18.8628,18.9956,19.066,19.0871,18.9478,18.9569,19.0169,19.0779,19.182,19.3102,19.3727,19.3874,19.4138,19.4649,19.5678,19.6926,19.8102,19.9992,20.1006,20.1728,20.1728,20.1728,20.1728,20.1728,20.1728,20.1728,20.1728,20.1663,20.1152,20.1006,20.1217,20.1079,20.0795,20.0292,20.0,19.9635,19.9489,19.8905,19.824,19.9254,20.0414,20.0706,20.0852,20.0065,19.9197,19.8678,19.8021,19.6481,19.5605,19.5102,19.4518,18.2479,18.1773,18.0376,17.9842,17.9842,17.9842,17.9842,17.9842,17.9842,18.0046,18.0693,18.1568,18.2637,18.3777,18.3985,18.387,18.3653,18.3533,18.3522,18.3803,18.4552,18.5038,18.5286,18.546,18.546,18.546,18.546,18.546,18.546,18.546,18.546,18.546,18.546,18.546,18.546,18.546,18.546,18.546,18.546,18.546,18.546,18.546,18.546,18.546,18.546,18.546,18.546,18.546,18.546,18.546,18.546,18.546,18.546,18.546,18.546,18.546,18.546,18.546,18.546,18.546,18.6094,18.6738,18.7442,18.8699,18.9885,19.0519,19.0871,19.067,18.9117,18.8125,18.8776,18.9556,19.0911,19.2174,19.2227,19.226,19.2525,19.2889,19.3992,19.5313,19.7138,19.9181,20.0641,20.1298,20.1728,20.1728,20.1728,20.1655,20.1509,20.1655,20.1728,20.1436,20.1363,20.1582,20.1582,20.1436,20.086,20.0292,20.0,19.9781,19.9416,19.8978,19.8613,19.8897,19.9327,19.9619,19.9919,19.9481,19.9635,19.9992,19.9627,19.824,19.7291,19.6642,19.5766,18.1704,18.1239,18.0239,17.9842,17.9842,17.9842,17.9842,17.9842,17.9842,18.0103,18.0512,18.1512,18.2885,18.4039,18.4705,18.4851,18.4913,18.4939,18.455,18.4528,18.4457,18.509,18.5378,18.546,18.546,18.546,18.546,18.546,18.546,18.546,18.546,18.546,18.546,18.546,18.546,18.546,18.546,18.546,18.546,18.546,18.546,18.546,18.546,18.546,18.546,18.546,18.546,18.546,18.546,18.546,18.546,18.546,18.546,18.546,18.546,18.546,18.546,18.546,18.5541,18.5903,18.6526,18.7431,18.884,19.0378,19.1353,19.1575,19.066,18.9463,18.7866,18.7578,18.7936,18.8838,19.001,19.1216,19.2047,19.2119,19.2306,19.2597,19.267,19.4211,19.6262,19.8371,20.1006,20.1728,20.1728,20.1728,20.1655,20.1363,20.1217,20.1509,20.1582,20.0925,20.0925,20.1582,20.1728,20.1582,20.0933,20.0357,20.0292,20.0073,19.9562,19.9051,19.8832,19.8605,19.8306,19.8379,19.8678,19.9343,19.9562,20.0146,20.0357,19.9708,19.8978,19.8102,19.7145,18.1102,17.9978,17.9842,17.9842,17.9842,17.9842,17.9842,17.9842,17.9842,18.0536,18.1765,18.1769,18.3002,18.4807,18.4145,18.4194,18.4772,18.3713,18.3793,18.4157,18.4478,18.4924,18.5286,18.546,18.546,18.546,18.546,18.546,18.546,18.546,18.546,18.546,18.546,18.546,18.546,18.546,18.546,18.546,18.546,18.546,18.546,18.546,18.546,18.546,18.546,18.546,18.546,18.546,18.546,18.546,18.546,18.546,18.546,18.546,18.546,18.546,18.546,18.5601,18.5822,18.6949,18.7643,18.8829,19.0519,19.1705,19.2057,19.1001,18.9815,18.8266,18.705,18.7,18.7252,18.8316,18.9408,19.048,19.164,19.2051,19.2187,19.2306,19.2306,19.3619,19.567,19.8152,20.0852,20.1736,20.1728,20.1728,20.1655,20.1363,20.129,20.1582,20.1363,20.0706,20.086,20.1517,20.1655,20.1582,20.1152,20.1079,20.0868,20.0576,19.9481,19.8824,19.8832,19.8459,19.7568,19.7057,19.7211,19.7875,19.8905,19.9627,19.9911,19.9254,19.8167,19.7795,19.7437,18.0251,17.9842,17.9842,17.9842,17.9842,17.9842,17.9842,17.9842,17.9854,18.0428,18.1299,18.1485,18.2631,18.396,18.4181,18.4409,18.5084,18.4587,18.4883,18.4854,18.4916,18.5152,18.5347,18.546,18.546,18.546,18.546,18.546,18.546,18.546,18.546,18.546,18.546,18.546,18.546,18.546,18.546,18.546,18.546,18.546,18.546,18.546,18.546,18.546,18.546,18.546,18.546,18.546,18.546,18.546,18.546,18.546,18.546,18.546,18.546,18.546,18.553,18.6023,18.6657,18.7713,18.9051,19.0237,19.1564,19.2409,19.2128,19.0086,18.8618,18.7502,18.6385,18.6468,18.7118,18.8163,18.9258,19.0406,19.1348,19.202,19.2253,19.2444,19.2597,19.4145,19.6116,19.859,20.0998,20.129,20.1728,20.1728,20.1728,20.159,20.1371,20.1436,20.1363,20.0787,20.0649,20.1006,20.1152,20.1444,20.1663,20.1736,20.159,20.1444,20.0349,19.9262,19.897,19.8678,19.7138,19.6043,19.5897,19.597,19.6773,19.7576,19.8225,19.7933,19.7422,19.6992,19.6708,17.9842,17.9842,17.9842,17.9842,17.9842,17.9842,17.9842,17.9821,18.0178,18.0767,18.1494,18.1253,18.2252,18.3551,18.4163,18.4545,18.5315,18.546,18.546,18.5439,18.5399,18.546,18.546,18.546,18.546,18.546,18.546,18.546,18.546,18.546,18.546,18.546,18.546,18.546,18.546,18.546,18.546,18.546,18.546,18.546,18.546,18.546,18.546,18.546,18.546,18.546,18.546,18.546,18.546,18.546,18.546,18.546,18.546,18.546,18.546,18.546,18.6234,18.6727,18.7431,18.9111,19.0378,19.1424,19.2268,19.1846,19.086,18.8688,18.7713,18.6808,18.5893,18.5926,18.6587,18.7615,18.8543,18.9773,19.1112,19.1731,19.2788,19.2914,19.3627,19.524,19.6788,19.9254,20.0495,20.086,20.1517,20.1728,20.1728,20.159,20.1014,20.1006,20.129,20.0649,20.043,20.0576,20.086,20.1444,20.1728,20.1655,20.1655,20.1509,20.1014,20.0146,19.9408,19.8233,19.6635,19.5109,19.481,19.4656,19.5013,19.5013,19.5152,19.5006,19.5086,19.524,19.5467,17.9842,17.9842,17.9842,17.9877,17.9973,17.9889,17.9869,18.0071,18.0709,18.1585,18.2429,18.1892,18.2565,18.3943,18.4369,18.4789,18.5368,18.546,18.546,18.546,18.546,18.546,18.546,18.546,18.546,18.546,18.546,18.546,18.546,18.546,18.546,18.546,18.546,18.546,18.546,18.546,18.546,18.546,18.546,18.546,18.546,18.546,18.546,18.546,18.546,18.546,18.546,18.546,18.546,18.546,18.546,18.546,18.5601,18.5601,18.5812,18.5882,18.7079,18.7783,18.8055,19.079,19.1705,19.1987,19.1353,19.073,18.8699,18.7572,18.7009,18.6094,18.5611,18.5541,18.5875,18.6599,18.7433,18.8657,19.0439,19.1716,19.343,19.4328,19.5474,19.6919,19.8313,19.9562,20.0065,20.0722,20.1517,20.1728,20.1728,20.1298,20.0503,20.0576,20.1006,20.0722,20.0649,20.0722,20.0649,20.1298,20.1582,20.1582,20.129,20.0706,20.013,20.0,19.9116,19.7787,19.67,19.597,19.4802,19.3488,19.3481,19.3627,19.3108,19.3108,19.3043,19.3342,19.4007,17.9842,17.9842,17.9842,18.0178,18.0709,18.0732,18.0732,18.079,18.1092,18.2061,18.3583,18.3421,18.3916,18.4729,18.5059,18.5276,18.5378,18.546,18.546,18.546,18.546,18.546,18.546,18.546,18.546,18.546,18.546,18.546,18.546,18.546,18.546,18.546,18.546,18.546,18.546,18.546,18.546,18.546,18.546,18.546,18.546,18.546,18.546,18.546,18.546,18.546,18.546,18.546,18.546,18.5601,18.5601,18.553,18.5893,18.6315,18.6949,18.7643,18.8407,18.9392,18.9875,19.1072,19.1846,19.1012,19.0167,18.897,18.7783,18.6738,18.6305,18.546,18.546,18.548,18.5572,18.6615,18.7516,18.9254,19.0852,19.284,19.4548,19.5923,19.7186,19.8451,19.9043,20.0,20.0576,20.1298,20.1728,20.1728,20.1728,20.1371,20.0795,20.0868,20.1079,20.0933,20.0933,20.0714,20.0503,20.0649,20.0868,20.0787,20.0203,19.9692,19.9473,19.9635,19.8978,19.7656,19.6846,19.6619,19.5378,19.3554,19.2751,19.2379,19.2452,19.2597,19.2605,19.2678,19.3123,18.0056,18.0379,18.0709,18.1138,18.1664,18.1675,18.1675,18.1721,18.214,18.2863,18.3475,18.3986,18.4622,18.5255,18.546,18.546,18.546,18.546,18.546,18.546,18.546,18.546,18.546,18.546,18.546,18.546,18.546,18.546,18.546,18.546,18.546,18.546,18.546,18.546,18.546,18.546,18.546,18.546,18.546,18.546,18.546,18.546,18.546,18.546,18.546,18.546,18.546,18.546,18.5812,18.6164,18.6375,18.6949,18.7583,18.8287,18.8628,18.884,19.0167,19.086,19.1283,19.1142,19.1153,18.9885,18.8699,18.7512,18.6738,18.6104,18.553,18.546,18.546,18.546,18.5702,18.6691,18.8288,19.0217,19.2309,19.4362,19.6063,19.7403,19.8616,19.9903,20.0422,20.0576,20.1152,20.1728,20.1728,20.1728,20.1728,20.1736,20.159,20.159,20.1363,20.129,20.1371,20.1225,20.1152,20.0649,20.0219,19.9627,19.9043,19.8524,19.8087,19.8321,19.7964,19.7372,19.6416,19.5459,19.443,19.3262,19.267,19.2379,19.2306,19.2233,19.2233,19.2306,19.2525,18.0428,18.1448,18.2273,18.257,18.2603,18.2673,18.2673,18.2728,18.3594,18.3562,18.3341,18.3799,18.4698,18.5296,18.546,18.546,18.546,18.546,18.546,18.546,18.546,18.546,18.546,18.546,18.546,18.546,18.546,18.546,18.546,18.546,18.546,18.546,18.546,18.546,18.546,18.546,18.546,18.546,18.546,18.546,18.546,18.546,18.546,18.546,18.546,18.553,18.5601,18.5812,18.6375,18.7924,18.7924,18.8347,18.8628,18.9403,18.9392,18.9533,19.0579,19.1364,19.1142,19.066,19.0026,18.9463,18.8407,18.6868,18.6033,18.553,18.546,18.546,18.546,18.553,18.6174,18.6972,18.8608,19.0693,19.2916,19.5292,19.7357,19.8602,19.9612,20.1187,20.159,20.1371,20.1728,20.1728,20.1728,20.1728,20.1728,20.1728,20.1728,20.1728,20.1582,20.1582,20.1728,20.1728,20.159,20.0714,19.9627,19.8824,19.7729,19.7065,19.6627,19.6051,19.5693,19.5401,19.562,19.4218,19.297,19.2743,19.2452,19.2306,19.2233,19.2233,19.2233,19.2233,19.2233,18.1813,18.3345,18.3594,18.3691,18.368,18.368,18.3691,18.3713,18.398,18.431,18.4698,18.4916,18.5133,18.5369,18.546,18.546,18.546,18.546,18.546,18.546,18.546,18.546,18.546,18.546,18.546,18.546,18.546,18.546,18.546,18.546,18.546,18.546,18.546,18.546,18.546,18.546,18.546,18.546,18.546,18.553,18.5601,18.553,18.553,18.5601,18.5601,18.6023,18.7009,18.7079,18.7783,18.898,18.9192,18.884,18.89,18.9604,18.9744,18.9252,18.9593,19.0449,19.0026,18.9332,18.8548,18.7924,18.6949,18.6094,18.546,18.546,18.546,18.546,18.546,18.6094,18.6938,18.7502,18.9498,19.1686,19.3589,19.6233,19.8436,19.8976,19.9947,20.093,20.1409,20.1521,20.1505,20.1609,20.1665,20.1689,20.1728,20.1728,20.1728,20.1728,20.1655,20.1655,20.1728,20.1728,20.1444,20.0568,19.9035,19.7875,19.6335,19.5386,19.4729,19.4153,19.408,19.4379,19.4817,19.3934,19.3116,19.267,19.2233,19.2233,19.2233,19.2233,19.2233,19.2233,19.2233,18.3312,18.4614,18.4716,18.4635,18.4705,18.4705,18.4695,18.4705,18.4716,18.4937,18.5399,18.546,18.546,18.545,18.546,18.546,18.546,18.546,18.546,18.546,18.546,18.546,18.546,18.546,18.546,18.546,18.546,18.546,18.546,18.546,18.546,18.546,18.546,18.546,18.546,18.546,18.546,18.546,18.553,18.5752,18.6234,18.6516,18.6798,18.7512,18.6878,18.7009,18.7291,18.7291,18.7572,18.8769,18.9111,18.884,18.9111,18.9392,18.9825,18.8699,18.8558,18.8196,18.8125,18.7291,18.6868,18.6456,18.6033,18.546,18.546,18.546,18.546,18.546,18.546,18.6164,18.7351,18.8336,19.0832,19.3026,19.471,19.6904,19.8324,19.9065,19.9616,20.0387,20.093,20.0814,20.0748,20.0831,20.0888,20.1256,20.1585,20.1585,20.1593,20.1673,20.1728,20.1728,20.1728,20.1728,20.1298,20.1006,19.9619,19.8313,19.6781,19.554,19.4145,19.3043,19.3116,19.3408,19.3861,19.3861,19.3415,19.2897,19.2306,19.2233,19.2233,19.2233,19.2233,19.2233,19.2233,18.5017,18.5671,18.553,18.546,18.5429,18.5409,18.5429,18.5419,18.5388,18.546,18.546,18.546,18.546,18.546,18.546,18.546,18.546,18.546,18.546,18.546,18.546,18.546,18.546,18.546,18.546,18.546,18.546,18.546,18.546,18.546,18.546,18.546,18.546,18.546,18.546,18.546,18.546,18.547,18.5681,18.6245,18.709,18.716,18.7854,18.8336,18.7924,18.7371,18.7512,18.6938,18.7019,18.8206,18.8266,18.8688,18.9533,18.9804,18.9815,18.8769,18.7291,18.546,18.5742,18.5812,18.5742,18.5752,18.5541,18.546,18.546,18.546,18.546,18.546,18.5812,18.6657,18.8196,18.9463,19.1525,19.3584,19.5176,19.6475,19.7659,19.8128,19.8638,19.9298,19.9236,19.9378,19.9799,19.9938,20.0136,20.088,20.1433,20.1425,20.1457,20.1625,20.172,20.1728,20.1728,20.1728,20.1444,20.1517,20.0495,19.9335,19.8021,19.6781,19.5175,19.3642,19.3189,19.2889,19.3043,19.3196,19.297,19.267,19.2379,19.2233,19.2233,19.2233,19.2233,19.2233,19.2233,18.7136,18.722,18.5953,18.546,18.546,18.546,18.546,18.546,18.546,18.546,18.546,18.546,18.546,18.546,18.546,18.546,18.546,18.546,18.546,18.546,18.546,18.546,18.546,18.546,18.546,18.546,18.546,18.546,18.546,18.546,18.546,18.546,18.546,18.546,18.553,18.5601,18.546,18.5812,18.6516,18.6586,18.6094,18.5893,18.6104,18.6234,18.6104,18.6657,18.7643,18.715,18.7794,18.8699,18.9192,18.904,18.8417,18.8206,18.7643,18.6526,18.5812,18.546,18.546,18.546,18.546,18.546,18.546,18.546,18.546,18.546,18.546,18.5681,18.6375,18.7854,18.9252,19.0941,19.2681,19.4245,19.4975,19.5529,19.6452,19.7048,19.7472,19.7578,19.7395,19.7769,19.85,19.8766,19.8948,19.9599,20.017,20.0302,20.0847,20.1207,20.1505,20.1577,20.1728,20.1728,20.1728,20.1728,20.1079,20.0065,19.897,19.7883,19.6204,19.4518,19.3707,19.3181,19.3262,19.3415,19.267,19.2306,19.2233,19.2233,19.2233,19.2233,19.2233,19.2233,19.2233,18.7773,18.7632,18.6104,18.546,18.546,18.546,18.546,18.546,18.546,18.546,18.546,18.546,18.546,18.546,18.546,18.546,18.546,18.546,18.546,18.546,18.546,18.546,18.546,18.546,18.546,18.546,18.546,18.546,18.546,18.546,18.546,18.546,18.546,18.546,18.553,18.6033,18.6164,18.5822,18.6798,18.6999,18.5671,18.6375,18.715,18.7291,18.7301,18.7079,18.7562,18.722,18.7079,18.7703,18.7914,18.7361,18.6878,18.6597,18.6315,18.5742,18.546,18.546,18.546,18.546,18.546,18.546,18.546,18.546,18.546,18.546,18.546,18.5812,18.6868,18.8417,18.9956,19.1494,19.3113,19.437,19.4846,19.5116,19.5498,19.5594,19.5944,19.6179,19.6068,19.6269,19.7091,19.754,19.775,19.8231,19.8776,19.944,20.014,20.0555,20.0979,20.1304,20.172,20.1728,20.1728,20.1728,20.1298,20.0722,19.9919,19.8832,19.7445,19.6416,19.5386,19.443,19.3919,19.4145,19.3481,19.2816,19.2452,19.2233,19.2233,19.2233,19.2233,19.2233,19.2233,18.7454,18.7643,18.6104,18.546,18.54,18.5108,18.4967,18.5048,18.4534,18.4675,18.4615,18.4907,18.4967,18.5118,18.5178,18.546,18.546,18.546,18.546,18.546,18.546,18.546,18.546,18.546,18.546,18.546,18.546,18.546,18.546,18.546,18.546,18.546,18.546,18.5822,18.6174,18.6597,18.6446,18.6385,18.715,18.6949,18.6174,18.6738,18.7935,18.8125,18.7361,18.7079,18.6938,18.6094,18.546,18.546,18.546,18.553,18.5601,18.5601,18.5601,18.546,18.546,18.546,18.546,18.546,18.546,18.546,18.546,18.546,18.546,18.546,18.546,18.5742,18.6657,18.8135,18.9956,19.1987,19.3455,19.4299,19.4722,19.4786,19.4688,19.427,19.3854,19.4449,19.4626,19.4791,19.5598,19.6321,19.6422,19.6781,19.7873,19.8966,19.9298,19.966,20.0404,20.1101,20.1593,20.1649,20.1728,20.1728,20.1655,20.1079,20.0714,19.97,19.8759,19.7948,19.751,19.6781,19.6197,19.5467,19.4437,19.3627,19.3262,19.3116,19.267,19.2233,19.2233,19.2233,19.2233,18.6201,18.7632,18.6094,18.546,18.5249,18.4051,18.3598,18.3378,18.205,18.2261,18.1769,18.2955,18.374,18.381,18.4746,18.5319,18.5319,18.5259,18.5108,18.5178,18.5178,18.5249,18.546,18.546,18.546,18.546,18.546,18.546,18.546,18.546,18.546,18.546,18.546,18.6023,18.6798,18.6586,18.6446,18.6938,18.7431,18.7019,18.5963,18.6798,18.7019,18.6798,18.6094,18.6023,18.5953,18.5671,18.546,18.546,18.546,18.546,18.546,18.546,18.546,18.54,18.5108,18.4967,18.4826,18.5108,18.5178,18.546,18.5319,18.5319,18.5178,18.5048,18.4967,18.5249,18.553,18.6647,18.9815,19.2057,19.3807,19.444,19.4651,19.4722,19.4299,19.2339,19.1987,19.248,19.3096,19.3691,19.4492,19.5239,19.5215,19.5519,19.7152,19.8371,19.8408,19.8766,19.9825,20.0664,20.1158,20.1312,20.1641,20.1728,20.1582,20.129,20.1436,20.0422,19.9416,19.8678,19.8021,19.8029,19.7445,19.6854,19.5824,19.4218,19.3561,19.4072,19.3481,19.224,19.2014,19.2233,19.2233,18.4224,18.5845,18.3313,18.3498,18.4931,18.3533,18.3357,18.405,18.3478,18.3267,18.3267,18.3026,18.3166,18.3166,18.3036,18.3046,18.2975,18.2985,18.3398,18.4182,18.4323,18.4756,18.5178,18.546,18.546,18.546,18.5389,18.546,18.546,18.546,18.5389,18.546,18.6305,18.6647,18.6375,18.7572,18.7351,18.7009,18.722,18.7019,18.5742,18.6164,18.6023,18.5611,18.546,18.546,18.546,18.546,18.546,18.5238,18.4675,18.4172,18.4172,18.3468,18.3468,18.382,18.3549,18.2985,18.2975,18.2975,18.3116,18.2905,18.2905,18.2975,18.2975,18.2985,18.2975,18.2985,18.3257,18.4243,18.7361,19.0519,19.1987,19.2279,19.2268,19.2258,19.2047,19.1082,19.0519,19.1082,19.1846,19.2691,19.3595,19.447,19.4682,19.5,19.6592,19.7018,19.7016,19.7826,19.9029,19.9843,20.0454,20.1109,20.1473,20.16,20.1422,20.1436,20.1436,20.0576,19.9416,19.8824,19.8386,19.7291,19.6343,19.6197,19.6189,19.4218,19.2977,19.305,19.2686,19.1956,19.1437,19.143,19.1503,18.1632,18.3285,18.0518,18.1057,18.3133,18.2047,18.2012,18.3068,18.3155,18.2855,18.3549,18.2955,18.2744,18.3096,18.2613,18.1769,18.2342,18.2402,18.2392,18.3599,18.3599,18.4394,18.5178,18.546,18.546,18.5329,18.5188,18.4897,18.4886,18.4746,18.4967,18.5098,18.5953,18.6798,18.6305,18.7703,18.7854,18.6597,18.6727,18.6526,18.5611,18.553,18.553,18.546,18.546,18.546,18.546,18.546,18.5108,18.4404,18.3609,18.3317,18.3247,18.2623,18.2895,18.3458,18.2764,18.1839,18.1477,18.1618,18.1266,18.1195,18.1195,18.0773,18.0773,18.0984,18.0914,18.0773,18.0843,18.2483,18.5541,18.8336,19.0096,19.0529,19.0449,19.0086,18.9252,18.904,18.904,18.9674,19.0589,19.1705,19.2409,19.3595,19.424,19.4705,19.5201,19.5508,19.6128,19.6821,19.7712,19.8565,19.9387,20.0539,20.0962,20.1336,20.1254,20.129,20.1006,20.0284,19.8897,19.8094,19.7795,19.6846,19.5613,19.5751,19.6189,19.4437,19.3204,19.2175,19.1518,19.1007,19.0642,19.0561,19.0627,17.8081,17.9946,17.9572,17.8862,17.8272,17.8115,17.8069,17.7106,17.7643,17.8442,17.9657,18.0642,18.1547,18.3156,18.2975,18.4474,18.4414,18.3478,18.4263,18.4182,18.4605,18.4615,18.4897,18.4826,18.4897,18.4836,18.3881,18.3589,18.3669,18.3669,18.3528,18.4162,18.5319,18.6234,18.6938,18.6506,18.6657,18.6878,18.6385,18.5752,18.553,18.546,18.5319,18.5249,18.5178,18.5178,18.5037,18.5037,18.4182,18.1417,18.2462,18.3026,18.3247,18.4383,18.4746,18.4615,18.4112,18.3398,18.2945,18.2382,18.211,18.0984,18.0773,18.0773,18.0562,18.0491,18.0421,18.021,18.0703,18.1779,18.4534,18.7854,18.9192,18.9614,18.9956,18.8688,18.6727,18.5882,18.6446,18.7783,18.8196,18.9815,19.1364,19.2691,19.3243,19.4613,19.5236,19.5362,19.5519,19.6179,19.6841,19.7463,19.8565,19.9817,20.0488,20.1084,20.1053,20.1136,20.0844,19.9927,19.8605,19.7795,19.7422,19.6619,19.5467,19.5248,19.5459,19.5094,19.4306,19.3131,19.1737,19.0795,19.0073,19.0277,19.0773,17.5719,17.7463,17.6349,17.6802,17.8165,17.6381,17.6636,17.7785,17.7476,17.8141,17.9377,17.9647,17.9787,18.028,18.0159,18.0109,18.0038,18.0028,18.0179,18.0451,18.206,18.2774,18.2774,18.2694,18.2774,18.2694,18.2955,18.3096,18.3166,18.4102,18.4383,18.4605,18.6023,18.6597,18.6586,18.6435,18.6798,18.6305,18.5882,18.546,18.546,18.546,18.5037,18.4182,18.4102,18.3539,18.2845,18.2764,18.2694,18.2473,18.2674,18.3096,18.3106,18.2201,18.2271,18.3951,18.2271,18.1638,18.1618,18.1759,18.1417,18.0924,18.0773,18.0351,17.9657,17.9436,17.8882,17.8329,17.8047,17.9174,18.1225,18.3327,18.5379,18.7351,18.904,18.9544,18.8417,18.7924,18.8488,18.9121,18.9956,19.1142,19.2138,19.3325,19.4088,19.472,19.531,19.5148,19.4968,19.5581,19.621,19.6682,19.753,19.8711,19.9493,20.0268,20.0463,20.1149,20.0878,19.9781,19.8686,19.7948,19.6992,19.5824,19.5102,19.4445,19.378,19.3335,19.3488,19.3496,19.2182,19.116,19.0722,19.0642,19.1218,17.2964,17.4198,17.2685,17.3847,17.6032,17.4163,17.4613,17.6932,17.6606,17.7315,17.8934,17.8735,17.8802,17.8953,17.8047,17.7333,17.7906,17.7756,17.7343,17.7695,17.9506,18.0079,18.022,18.0562,18.0843,18.1055,18.196,18.2523,18.2603,18.382,18.4605,18.4897,18.6094,18.6446,18.5742,18.6516,18.6446,18.5601,18.546,18.5319,18.4897,18.4746,18.4031,18.2744,18.2945,18.2603,18.1618,18.1769,18.2121,18.1557,18.1618,18.1889,18.1537,18.0351,18.0421,18.1899,18.0501,17.9586,18.0079,18.0149,17.9938,17.9657,17.9224,17.9023,17.7906,17.7826,17.7273,17.6508,17.6156,17.6921,17.8319,17.9727,18.2,18.4897,18.6787,18.7984,18.8336,18.891,18.9111,18.9533,19.0237,19.1223,19.2209,19.3254,19.4099,19.4581,19.4808,19.4743,19.4846,19.5222,19.5404,19.5883,19.6562,19.7635,19.8601,19.9396,20.0238,20.0891,20.0767,19.9794,19.9554,19.8751,19.7218,19.5678,19.5832,19.5759,19.443,19.34,19.3043,19.3634,19.2759,19.2321,19.1737,19.0941,19.1518,16.925,16.929,16.921,16.9634,16.9989,16.9952,17.0383,17.094,17.2391,17.4271,17.6089,17.7352,17.8834,18.02,17.9667,17.9506,18.0361,17.9727,17.9506,17.9445,17.8953,17.861,17.8741,17.9717,18.0139,18.0351,18.0833,18.1065,18.1276,18.2885,18.3247,18.374,18.5098,18.5541,18.5541,18.553,18.5611,18.546,18.546,18.4826,18.3589,18.3458,18.2754,18.1326,18.2312,18.2744,18.2533,18.3398,18.208,17.7695,17.8661,17.9375,17.9174,18.0009,18.0351,18.0843,18.0843,17.9868,17.8953,17.9093,17.853,17.7545,17.7404,17.6287,17.678,17.685,17.6639,17.6227,17.6156,17.671,17.7906,17.8671,18.0723,18.4253,18.4454,18.4735,18.553,18.6023,18.715,18.7984,18.8206,18.9121,19.2209,19.2702,19.3606,19.431,19.4722,19.4722,19.4722,19.4803,19.4775,19.5264,19.5832,19.6771,19.7472,19.8398,19.9712,20.0444,20.0989,20.0841,20.0933,20.0065,19.8832,19.7795,19.7276,19.7057,19.6473,19.6028,19.5597,19.5021,19.4291,19.3554,19.2759,19.1671,19.1452,16.8907,16.8907,16.8907,16.8907,16.8776,16.7004,16.7633,16.9474,16.8702,17.0447,17.3632,17.4832,17.6159,17.7609,17.7836,17.7826,17.7836,17.7836,17.7826,17.7695,17.7132,17.6991,17.7132,17.7625,17.7836,17.8118,17.9868,18.0773,18.0914,18.3257,18.4595,18.4605,18.5168,18.546,18.546,18.546,18.546,18.546,18.5389,18.5178,18.4675,18.4605,18.381,18.2382,18.1819,18.1195,18.0361,18.1708,18.1417,17.9657,17.9516,17.9868,17.9868,17.9445,17.9727,18.028,17.9928,17.9506,17.9928,17.9667,17.9586,17.9234,17.9023,17.8601,17.7685,17.7554,17.7001,17.6367,17.6156,17.6358,17.7001,17.7766,17.9586,18.2281,18.198,18.2835,18.5037,18.6305,18.7431,18.8688,18.9875,19.1142,19.2409,19.3113,19.4169,19.4511,19.4722,19.4722,19.4722,19.4722,19.4803,19.4946,19.5331,19.5811,19.6452,19.7683,19.9092,19.9955,20.0888,20.1505,20.1728,20.0868,20.0503,19.9466,19.8444,19.8233,19.713,19.713,19.713,19.6992,19.6262,19.5021,19.3488,19.2401,19.1379,16.7526,16.7526,16.7513,16.7526,16.7197,16.4817,16.5035,16.7043,16.5538,16.6637,16.9771,17.1269,17.2841,17.4319,17.5207,17.5663,17.6006,17.5593,17.5372,17.5513,17.5945,17.6156,17.6156,17.6156,17.6156,17.6649,17.9305,18.0773,18.1336,18.3911,18.546,18.546,18.546,18.546,18.546,18.546,18.546,18.54,18.4967,18.4464,18.4042,18.3478,18.2412,18.1055,18.0421,17.9576,17.854,17.9033,17.9305,17.9154,17.9305,17.9305,17.9093,17.8329,17.8258,17.9023,17.8258,17.8249,17.9174,17.9234,17.9093,17.9244,17.9234,17.8741,17.7906,17.7615,17.7132,17.6358,17.6156,17.6156,17.6297,17.7122,17.8037,17.9224,17.9797,18.0934,18.2643,18.4394,18.6435,18.8336,19.0026,19.1353,19.2339,19.3113,19.4018,19.4581,19.4722,19.4722,19.4722,19.4722,19.4722,19.4722,19.4857,19.5169,19.6057,19.7133,19.8352,19.9236,20.0664,20.1704,20.1728,20.1371,20.1444,20.0933,19.9919,19.897,19.7641,19.713,19.713,19.7057,19.6189,19.5175,19.4226,19.3058,19.1883,16.462,16.4686,16.4476,16.462,16.4423,16.2792,16.2317,16.2798,16.2888,16.3302,16.4747,16.7259,16.9662,17.1326,17.2867,17.4412,17.5057,17.4258,17.3762,17.3903,17.5161,17.5724,17.5724,17.5583,17.5583,17.5865,17.9023,18.0491,18.0914,18.369,18.5319,18.5389,18.546,18.5319,18.5319,18.5178,18.5249,18.4816,18.374,18.2462,18.0914,17.9938,17.8681,17.7273,17.7897,17.8399,17.8309,17.7062,17.6579,17.6438,17.6367,17.6137,17.6287,17.6006,17.6015,17.6076,17.6086,17.6086,17.6137,17.6137,17.6137,17.6146,17.6156,17.6137,17.6076,17.6146,17.6146,17.6076,17.6156,17.6156,17.6156,17.6146,17.6287,17.6367,17.7685,17.846,17.9033,18.0009,18.206,18.4816,18.7019,18.904,19.1353,19.248,19.3173,19.4229,19.4651,19.4722,19.4722,19.4722,19.4722,19.4722,19.4824,19.4775,19.5665,19.6551,19.7535,19.8558,20.0164,20.1728,20.1728,20.1728,20.1728,20.0941,19.9854,19.897,19.7649,19.6546,19.6619,19.6765,19.5159,19.4145,19.3561,19.305,19.2029,16.4423,16.4291,16.3384,16.3015,16.2661,16.045,15.999,16.0736,16.0038,16.0975,16.3033,16.4367,16.6639,16.9242,17.0095,17.0684,17.1143,17.1926,17.2175,17.2255,17.2739,17.295,17.295,17.295,17.295,17.3302,17.509,17.7826,18.0642,18.2895,18.4394,18.5329,18.546,18.4967,18.4031,18.381,18.3237,18.2412,18.1759,18.1336,18.0843,18.027,17.9717,17.9164,17.7615,17.686,17.685,17.6428,17.6156,17.6015,17.509,17.4537,17.4396,17.3532,17.2959,17.2959,17.294,17.294,17.294,17.295,17.295,17.295,17.303,17.3452,17.4406,17.4537,17.509,17.5874,17.6156,17.6156,17.5945,17.511,17.4959,17.6006,17.6559,17.685,17.7001,17.8258,17.9596,18.1145,18.3901,18.6234,18.7783,19.0449,19.2268,19.3032,19.4169,19.4722,19.4722,19.4722,19.4722,19.4722,19.4581,19.444,19.4654,19.5499,19.6543,19.7615,19.9108,20.0972,20.1728,20.1728,20.1444,20.043,19.9489,19.8605,19.751,19.6189,19.6189,19.6773,19.4729,19.2248,19.2613,19.2467,19.1802,16.4423,16.4291,16.2936,16.2041,16.1305,15.9016,15.8227,15.8556,15.7623,15.8514,16.0399,16.1206,16.3162,16.591,16.6034,16.6462,16.7266,16.9552,17.0608,17.0688,17.1171,17.1453,17.1453,17.1453,17.1453,17.1603,17.2476,17.4799,17.8168,18.0421,18.198,18.2845,18.3488,18.3327,18.2462,18.2251,18.1819,18.0833,18.0139,17.9928,17.9868,17.9375,17.9093,17.9033,17.7132,17.6156,17.6156,17.5522,17.5241,17.5241,17.3753,17.2898,17.2818,17.1964,17.1453,17.1453,17.1453,17.1453,17.1453,17.1453,17.1453,17.1453,17.1453,17.2035,17.2687,17.2978,17.3321,17.4156,17.4367,17.4447,17.4236,17.3541,17.333,17.4297,17.495,17.5311,17.5513,17.6639,17.7836,17.8751,18.0803,18.3408,18.5027,18.8196,19.086,19.1635,19.2891,19.3736,19.3877,19.3384,19.2902,19.3043,19.3113,19.3113,19.3124,19.4104,19.5526,19.6651,19.818,20.0066,20.1655,20.1728,20.0714,19.9627,19.7883,19.6708,19.4649,19.3327,19.1722,19.216,19.108,18.9474,19.1087,18.9978,18.9978,16.4423,16.4226,16.2936,16.1437,15.9978,15.849,15.7187,15.6176,15.5991,15.5938,15.6461,15.7856,15.938,16.0857,16.136,16.2179,16.4149,16.7213,16.8755,16.8914,17.034,17.1171,17.1232,17.1251,17.1171,17.0889,17.118,17.2185,17.3762,17.671,17.8258,17.8671,18.0149,18.0713,18.0713,18.0703,18.0642,18.0149,17.8962,17.8319,17.8188,17.6991,17.6287,17.6156,17.6006,17.5794,17.5654,17.4457,17.3692,17.3692,17.2175,17.1312,17.1312,17.1251,17.104,17.1101,17.111,17.1171,17.103,17.0969,17.104,17.1101,17.0889,17.119,17.1321,17.1331,17.1532,17.1593,17.1532,17.1392,17.1471,17.1471,17.1462,17.1823,17.2898,17.3551,17.3692,17.503,17.6639,17.7695,17.8399,17.9878,18.2533,18.558,18.7914,18.9815,19.1072,19.1916,19.1716,19.0941,19.0308,19.0237,19.0308,19.0128,19.0239,19.2141,19.4052,19.5084,19.6599,19.9254,20.0641,20.1217,20.0057,19.8605,19.6131,19.3861,19.2014,19.0401,18.8868,18.7562,18.6693,18.692,18.8686,18.7569,18.8292,16.4423,16.4213,16.2884,16.0858,15.849,15.7109,15.6242,15.5925,15.5925,15.5925,15.5921,15.6367,15.691,15.7421,15.8745,15.9591,16.0524,16.3813,16.5429,16.5695,16.7326,16.8182,16.8172,16.8182,16.8182,16.8384,16.9289,16.9984,17.0707,17.3541,17.6217,17.8178,17.8882,17.9093,17.9084,17.9103,17.853,17.7484,17.6991,17.671,17.671,17.6287,17.5593,17.4546,17.4396,17.3894,17.2809,17.2307,17.2105,17.2035,17.0617,16.9782,16.9712,16.8736,16.8182,16.8182,16.8182,16.8191,16.8182,16.8182,16.8182,16.8182,16.8172,16.8585,16.9491,16.9773,17.0265,17.0969,16.9439,16.8815,16.9651,16.9791,17.0265,17.1312,17.1744,17.2035,17.2175,17.3471,17.4607,17.509,17.6076,17.7554,17.9586,18.2322,18.5369,18.7632,18.7854,18.7643,18.8618,18.8769,18.8417,18.8417,18.9392,18.9453,18.8528,19.0673,19.2218,19.3117,19.4467,19.5962,19.4868,19.5006,19.443,19.5175,19.2701,19.0599,18.9285,18.8555,18.7416,18.5963,18.481,18.4679,18.6796,18.735,18.8292,16.4094,16.3502,16.2686,16.066,15.7977,15.6517,15.5925,15.5925,15.5925,15.5925,15.5925,15.5925,15.5925,15.5982,15.7797,15.8624,15.8842,16.1602,16.3337,16.4122,16.5261,16.623,16.6939,16.7003,16.7003,16.7064,16.782,16.8252,16.8604,17.0092,17.2213,17.4437,17.5362,17.5916,17.6498,17.6498,17.6428,17.6156,17.6156,17.5433,17.4367,17.4226,17.3743,17.2969,17.2828,17.2316,17.1523,17.0819,17.0477,17.0416,16.9017,16.8243,16.8243,16.6853,16.6299,16.6924,16.637,16.6299,16.6933,16.637,16.6299,16.7003,16.6431,16.6651,16.8032,16.8252,16.8313,16.8454,16.7064,16.6651,16.8121,16.8332,16.8585,16.943,17.0134,17.0477,17.0538,17.1833,17.2828,17.2908,17.4175,17.5593,17.6639,17.8741,18.1698,18.4947,18.6516,18.6597,18.6727,18.6798,18.6586,18.6224,18.721,18.7508,18.7089,18.9275,19.0878,19.1326,19.2909,19.4852,19.4357,19.3853,19.2613,19.1379,18.9985,18.8511,18.6954,18.6282,18.5429,18.4839,18.3589,18.3372,18.6365,18.6131,18.6464,16.4173,16.2962,16.2949,16.1068,15.8437,15.6649,15.5925,15.5925,15.5925,15.5925,15.5925,15.5925,15.5925,15.6117,15.755,15.8243,15.8417,16.0282,16.191,16.3337,16.3712,16.4684,16.6174,16.6404,16.6479,16.6315,16.6319,16.6361,16.6624,16.6829,16.7522,16.8928,17.0617,17.2396,17.3692,17.3833,17.4386,17.5663,17.5654,17.4297,17.1664,17.1453,17.1392,17.1241,17.1241,17.1171,17.0829,16.9562,16.8717,16.8595,16.7266,16.651,16.637,16.5173,16.5032,16.629,16.5173,16.5032,16.622,16.5243,16.5032,16.6229,16.5173,16.5023,16.629,16.6501,16.5877,16.4962,16.4469,16.4952,16.637,16.6431,16.644,16.6581,16.7759,16.8647,16.8797,17.0195,17.1241,17.1241,17.2607,17.3541,17.3894,17.5513,17.7977,18.1417,18.369,18.5389,18.4897,18.4967,18.4816,18.3951,18.4908,18.5905,18.6343,18.7789,18.9858,19.1045,19.2773,19.3697,19.411,19.376,19.3468,19.0446,18.9146,18.6954,18.5572,18.4084,18.2865,18.2563,18.2442,18.2357,18.2388,18.2757,18.2856,16.7723,16.7289,16.625,16.408,16.1055,15.7426,15.5925,15.5925,15.586,15.5925,15.5925,15.5925,15.5925,15.5962,15.6336,15.6488,15.6765,15.8382,15.9445,15.9982,16.1281,16.2152,16.2586,16.2618,16.2628,16.2618,16.2607,16.3317,16.4547,16.4764,16.5603,16.7507,17.0125,17.2255,17.3692,17.3762,17.3321,17.2518,17.2518,17.2166,17.1453,17.1453,17.0829,16.9782,16.9632,16.9088,16.797,16.6431,16.5656,16.5586,16.4196,16.336,16.336,16.2999,16.3008,16.329,16.3008,16.3008,16.3281,16.2999,16.2999,16.336,16.2999,16.2999,16.3281,16.3351,16.321,16.2858,16.2797,16.2929,16.3422,16.3422,16.336,16.3422,16.475,16.5727,16.5947,16.8041,16.9632,16.9763,17.104,17.1884,17.2457,17.4377,17.6015,17.6579,17.854,18.0853,18.1839,18.2975,18.3448,18.381,18.6018,18.7699,18.8154,18.9777,19.0715,19.0141,19.0643,19.0606,19.0067,18.9941,18.9288,18.8592,18.7017,18.5433,18.3698,18.2266,18.116,18.0319,18.0355,18.0336,18.0378,18.1106,18.1378,16.4515,16.3804,16.3106,16.1462,15.9201,15.69,15.5925,15.5794,15.4532,15.3887,15.3953,15.3965,15.3953,15.3953,15.3899,15.4281,15.4963,15.594,15.7209,15.867,15.9636,16.0568,16.126,16.1324,16.1324,16.1324,16.1324,16.1836,16.2787,16.3682,16.4567,16.5798,16.8811,17.112,17.2617,17.2687,17.2316,17.1462,17.0125,16.9017,16.8384,16.8313,16.7548,16.599,16.5295,16.453,16.3765,16.2277,16.1423,16.1423,16.0587,16.0165,16.0165,16.0165,16.0165,16.0174,16.0808,16.1257,16.1257,16.1248,16.0957,16.0244,16.0816,16.0403,15.8282,15.7991,15.8625,16.0024,16.0165,16.0728,16.2154,16.2304,16.2304,16.2304,16.307,16.3844,16.4609,16.5656,16.6351,16.7055,16.8454,16.936,16.9439,17.2054,17.3743,17.4044,17.502,17.7193,17.9445,18.1242,18.2362,18.2495,18.5551,18.7491,18.7104,18.8691,18.9363,18.8624,18.7764,18.7228,18.7298,18.5795,18.5315,18.4779,18.3687,18.2556,18.1877,18.0796,18.0157,17.9345,17.9499,17.9413,17.9431,18.0008,17.9675,16.0109,15.8963,15.8951,15.803,15.6517,15.6493,15.6098,15.5375,15.2781,15.1651,15.1651,15.1651,15.1651,15.1651,15.1651,15.2308,15.339,15.3444,15.4943,15.7584,15.7874,15.8769,16.0228,16.0476,16.0544,16.0612,16.0522,16.0664,16.1076,16.2486,16.3449,16.405,16.7037,16.9344,17.0656,17.0997,17.103,17.0758,16.8313,16.629,16.4962,16.475,16.3985,16.2656,16.1045,15.9989,15.9989,15.8335,15.7261,15.7059,15.6768,15.6557,15.6355,15.6276,15.6346,15.6417,15.7578,15.8572,15.8924,15.8994,15.8563,15.7824,15.8687,15.7225,15.2562,15.2562,15.4102,15.6628,15.698,15.8106,16.0535,16.0755,16.0684,16.1098,16.1521,16.2304,16.3633,16.307,16.3061,16.4337,16.5675,16.6712,16.7064,16.936,17.1673,17.2716,17.3526,17.4763,17.7435,17.9466,18.041,18.1339,18.4193,18.57,18.5138,18.5909,18.6667,18.6292,18.5187,18.4938,18.5888,18.4415,18.3053,18.2315,18.15,18.0443,18.0109,17.9633,17.9173,17.8964,17.8844,17.8804,17.8668,17.8128,17.7457,16.3568,16.3318,16.3305,16.1793,15.9439,15.9373,15.7413,15.4048,15.2296,0.0,0.0,15.1651,15.1651,15.1651,15.1651,15.1728,15.1968,15.198,15.2314,15.2923,15.4099,15.4794,15.5128,15.629,15.6886,15.6874,15.6874,15.7609,15.9049,15.9411,16.0359,16.1983,16.5184,16.7011,16.7379,16.8768,16.8937,16.7759,16.7285,16.6862,16.651,16.5314,16.4548,16.4248,16.1468,15.9989,15.9989,15.7279,15.5167,15.3891,15.2562,15.1303,15.0044,14.9973,14.9965,14.9965,15.0255,15.1514,15.4049,15.4189,15.5167,15.7543,15.6715,15.3601,14.7671,15.0715,15.3204,15.375,15.3812,15.397,15.4541,15.4682,15.5158,15.6425,15.7692,15.91,16.0605,16.16,16.2234,16.2788,16.3985,16.5032,16.5173,16.7618,16.9641,17.0106,17.1616,17.3875,17.5377,17.5608,17.6639,17.9902,18.2266,18.3432,18.3146,18.3946,18.4603,18.4452,18.4144,18.4175,18.4472,18.448,18.427,18.3171,18.2751,18.124,17.9771,17.8552,17.7583,17.6432,17.6446,17.673,17.6502,17.4584,17.2909,15.7952,15.7939,15.7939,15.7163,0.0,15.5847,15.4203,15.1495,15.0862,15.0072,14.9349,14.9349,14.9349,14.9349,14.9361,14.9744,15.0533,15.0533,15.0927,15.1663,15.2308,15.2703,15.2703,15.4126,15.4849,15.4849,15.5519,15.6384,15.7249,15.8206,15.9524,16.1414,16.4733,16.6852,16.7748,16.8674,16.8041,16.5806,16.6581,16.6229,16.468,16.4619,16.3844,16.2304,16.0764,0.0,0.0,0.0,0.0,0.0,0.0,0.0,0.0,0.0,0.0,14.4896,14.4747,14.4825,14.4833,14.5521,14.6921,14.9174,14.7891,14.5443,14.1641,14.4105,14.6851,14.9166,14.9439,15.0433,15.2694,15.2984,15.3257,15.404,15.4806,15.5941,15.7419,15.8273,15.9056,15.9883,16.13,16.2586,16.336,16.5436,16.7055,16.8017,16.9181,17.04,17.1855,17.2157,17.369,17.7714,18.0399,18.1897,18.1544,18.1995,18.2423,18.1985,18.0976,18.0518,18.1076,18.0904,18.0474,18.0114,17.9639,17.8655,17.6863,17.6022,17.5088,17.3721,17.3426,17.3638,17.3574,17.2385,17.1281,15.1651,15.1651,15.1651,15.1651,15.1543,15.0425,14.9295,14.8219,14.8219,14.7508,14.6312,14.6335,14.6301,14.6378,14.6324,14.7047,14.8219,14.8219,14.8823,14.9953,15.0545,15.0808,15.0862,15.2559,15.3324,15.339,15.4544,15.5202,15.5543,15.6993,15.8608,16.0359,16.3112,16.5408,16.7121,0.0,0.0,0.0,16.6284,16.6149,16.3774,16.4337,16.3281,16.0552,15.9558,0.0,15.544,15.4736,15.3125,15.0396,14.9957,0.0,0.0,0.0,0.0,0.0,0.0,0.0,0.0,0.0,0.0,0.0,13.7126,13.5717,13.5969,13.6995,13.9553,14.3817,14.4873,14.6674,15.02,15.0553,15.081,15.1668,15.173,15.2612,15.4595,15.4955,15.5299,15.6628,15.8534,16.0226,16.1327,16.3337,16.4979,16.5988,16.6582,16.7347,16.8554,16.9761,17.1494,17.4659,17.7775,17.9757,17.9487,17.9447,17.9151,17.8745,17.6613,17.5523,17.6567,17.5845,17.4806,17.531,17.5197,17.4742,17.3474,17.3123,17.288,17.1568,17.135,17.0984,17.0018,16.9573,16.9498,15.1651,15.1651,15.1651,15.1651,15.1226,14.6138,14.3913,14.3705,14.3716,14.3573,14.3365,14.3442,14.3453,14.3442,14.3376,14.3584,14.3705,14.3705,14.3848,14.4165,14.6521,14.7771,14.7848,15.0533,15.1926,15.1872,15.2069,15.2769,15.3994,15.4248,15.5107,15.6525,15.7334,15.8565,16.026,16.0666,16.125,16.2291,16.6604,16.8647,16.8243,16.5859,16.3765,16.1952,15.8062,15.5721,15.529,15.2702,15.045,14.8706,14.7352,14.5841,14.4301,14.0312,13.7244,0.0,13.0444,0.0,0.0,0.0,0.0,0.0,0.0,0.0,0.0,13.2975,13.4494,13.8027,14.0859,14.2229,14.166,14.1612,14.319,14.686,14.7299,14.8817,15.2674,15.3257,15.3328,15.3539,15.6856,15.8872,15.849,16.18,16.3929,16.3662,16.4975,16.6141,16.6909,16.8101,16.9723,17.1585,17.3455,17.5437,17.621,17.5507,17.4657,17.424,17.2187,17.0291,17.2172,17.1043,17.0296,17.1647,17.2088,17.1945,17.1647,17.1578,17.1504,17.1058,17.0835,16.9498,16.6007,16.4155,16.319,14.5337,14.6664,14.5952,14.6007,14.6533,14.3179,14.2126,14.2861,14.2861,14.2455,14.1732,14.172,14.126,14.0591,14.1326,14.1655,14.172,14.2521,14.2861,14.2927,14.4165,14.4746,14.4889,14.7771,14.9163,14.9218,15.0873,15.1926,15.2559,15.2559,15.3805,15.6176,15.656,15.5199,15.2389,15.4169,15.6128,15.817,16.2875,16.5375,16.5304,16.4891,16.3492,16.1107,15.9831,15.7974,15.5369,15.4806,15.2984,14.9754,14.8126,14.5795,14.2471,13.7214,13.2485,0.0,0.0,0.0,0.0,0.0,0.0,0.0,0.0,0.0,0.0,0.0,12.9118,13.067,13.5191,13.8088,13.8229,13.8675,13.9392,14.0715,14.153,14.2749,14.4878,14.822,14.9957,14.8896,15.2801,15.5719,15.591,15.8558,16.1066,16.2498,16.1961,16.1694,16.2669,16.5538,16.8003,16.9257,17.1087,17.2458,17.2848,17.259,17.2311,17.2162,17.1043,17.038,17.1063,17.0603,17.038,17.1053,17.1281,17.0979,17.0009,16.985,16.9484,16.8592,16.7047,16.5116,16.2888,16.1848,16.1486,14.0054,14.2039,13.8753,13.8212,13.9482,13.8427,13.8869,14.023,13.9956,13.9024,13.7762,13.8059,13.7355,13.6058,13.7284,13.7947,13.7988,13.9493,14.0549,14.1348,14.1666,14.2072,14.251,14.4943,14.6312,14.6742,14.8649,14.9902,15.0514,15.0112,15.1307,15.3908,15.3394,15.0531,14.5932,14.8584,15.1706,15.4965,15.9057,16.1865,16.3333,16.3844,16.2788,16.0059,16.0473,15.8977,15.551,15.5792,15.4181,15.0317,14.7923,14.4544,13.9882,13.359,0.0,0.0,0.0,0.0,0.0,0.0,0.0,0.0,0.0,11.2747,11.26,0.0,12.2493,0.0,12.9207,13.3202,13.4881,13.5048,0.0,0.0,13.5655,13.6273,13.7231,14.1911,14.4627,14.3438,14.7589,15.1041,15.2381,15.4577,15.7091,15.9812,15.8317,15.7159,15.8115,16.1882,16.5018,16.6218,16.7653,16.8855,16.8879,16.9502,16.986,16.9568,16.8746,16.8459,16.883,16.8602,16.8454,16.8835,16.8904,16.8454,16.7107,16.6959,16.6434,16.5176,16.2809,16.0808,16.0808,16.0437,16.0293,13.9539,14.0132,13.1376,12.8676,13.0113,13.0172,13.1211,13.2711,13.1517,13.0254,12.9391,13.0269,12.9925,12.8615,12.9301,0.0,13.0084,13.1569,13.4044,13.6996,13.8345,13.9649,14.0986,14.2455,14.3891,14.5129,14.4164,14.5029,14.7298,14.5686,14.5618,14.7078,14.375,14.2149,14.2564,14.4589,14.8636,15.4432,15.6551,16.0576,16.6394,16.3914,16.1732,15.9989,15.7287,15.5721,15.529,15.2632,15.0379,14.8503,14.4254,13.9819,13.5217,0.0,0.0,0.0,0.0,0.0,0.0,0.0,0.0,0.0,0.0,0.0,0.0,0.0,0.0,11.9517,12.3294,0.0,12.9587,12.7798,0.0,0.0,0.0,12.994,13.2594,13.4493,13.6103,13.7408,0.0,0.0,14.6895,14.9616,15.1846,15.3233,15.4824,15.5522,15.4694,15.7365,16.0083,16.1615,16.2057,16.2656,16.4139,16.536,16.5701,16.4448,16.1918,16.1022,16.2076,16.1398,16.0873,16.2294,16.2229,16.2229,16.2001,16.1997,16.1932,16.163,16.0214,15.9091,15.8937,15.7907,15.7466,13.0457,12.818,12.2521,12.1636,12.3942,12.3728,12.4745,12.6474,12.6718,12.5544,12.3545,12.4085,12.2898,12.0476,12.0941,0.0,0.0,0.0,12.8518,13.1016,13.3253,13.4675,13.5626,13.7851,13.9298,13.9846,14.0226,14.1395,14.3355,14.1671,13.8643,13.4373,0.0,0.0,13.5116,13.8968,14.3204,14.7581,15.3119,15.7692,16.1247,16.1028,15.9699,15.7208,15.5017,15.3477,15.25,15.0387,14.7219,14.2854,13.8329,13.2552,0.0,0.0,0.0,0.0,0.0,0.0,0.0,0.0,0.0,0.0,0.0,9.837,9.9573,0.0,0.0,0.0,11.3452,11.6364,12.0652,12.2115,0.0,0.0,0.0,0.0,0.0,0.0,0.0,13.0863,13.6067,14.0956,14.4422,14.4098,14.4042,14.5566,14.7443,14.8487,14.8077,0.0,15.3966,15.6583,15.6129,15.6421,15.8942,15.9104,15.8733,15.8064,15.8422,15.9234,15.9838,16.0288,16.0585,16.1184,16.1333,16.1333,16.1333,15.806,15.5451,15.5456,15.4931,15.4555,15.4555,15.4857,15.5246,12.0065,0.0,0.0,0.0,0.0,11.6302,11.722,11.9047,11.9466,11.8285,11.6043,11.6169,0.0,0.0,0.0,0.0,0.0,0.0,12.3184,12.548,12.9202,13.0797,13.066,13.3539,13.4699,13.4311,13.4773,13.5641,13.6658,13.3797,12.949,12.4171,0.0,0.0,0.0,0.0,13.9078,14.3233,15.0173,15.5065,15.7587,15.785,15.7067,15.5369,15.3336,15.1584,15.0044,14.765,14.3441,13.7304,13.1989,0.0,0.0,0.0,0.0,0.0,0.0,0.0,0.0,0.0,0.0,0.0,0.0,0.0,0.0,0.0,0.0,0.0,0.0,0.0,11.1615,11.5719,11.7412,0.0,0.0,0.0,0.0,0.0,0.0,0.0,0.0,0.0,13.8476,13.759,13.7547,0.0,0.0,14.3757,14.2867,14.5946,14.9142,15.1004,15.0252,0.0,15.2633,15.2419,15.2201,15.2647,15.501,15.6937,15.6932,15.7015,15.7173,15.7103,15.754,15.6946,15.4792,15.0475,14.757,14.7421,14.7421,14.7496,14.802,14.8998,15.0125,0.0,0.0,0.0,0.0,0.0,0.0,0.0,0.0,10.8185,10.6937,0.0,10.5632,0.0,0.0,0.0,0.0,10.9745,11.3986,0.0,0.0,12.6572,12.8767,12.7217,12.9743,13.0492,12.9168,12.7292,12.6633,12.6668,12.0585,0.0,0.0,0.0,0.0,0.0,0.0,13.7362,14.3052,14.8174,15.2978,15.7253,15.4815,15.3899,15.5079,15.2288,14.9965,14.8292,14.3894,13.8706,13.2752,12.5312,0.0,0.0,0.0,0.0,0.0,0.0,0.0,0.0,0.0,0.0,0.0,0.0,0.0,0.0,0.0,0.0,0.0,0.0,0.0,0.0,10.8132,0.0,0.0,0.0,0.0,0.0,0.0,0.0,0.0,0.0,0.0,12.7322,13.0187,13.3377,13.655,0.0,0.0,0.0,0.0,14.625,14.49,14.4521,14.4521,14.4743,14.6027,14.7521,14.8915,0.0,0.0,15.1803,14.9291,14.7377,14.7224,14.8553,14.6984,13.9322,13.7767,13.7461,13.7469,13.7536,13.7915,13.9342,14.0093,14.1055,0.0,0.0,0.0,0.0,0.0,0.0,0.0,0.0,0.0,9.8108,9.59,9.5953,0.0,0.0,0.0,0.0,0.0,0.0,0.0,0.0,11.4839,11.73,11.6905,11.9751,12.0892,0.0,11.9903,11.6575,0.0,0.0,0.0,0.0,0.0,0.0,0.0,0.0,13.2027,13.8611,14.4605,14.939,15.2855,15.2984,15.2781,15.221,15.1224,14.7985,14.2424,13.6784,13.0126,0.0,0.0,0.0,0.0,0.0,0.0,0.0,0.0,0.0,0.0,0.0,0.0,0.0,0.0,0.0,0.0,0.0,0.0,0.0,0.0,0.0,0.0,0.0,10.4766,0.0,0.0,0.0,0.0,0.0,0.0,0.0,0.0,0.0,11.9007,12.2874,12.7217,13.1598,13.4503,13.704,13.9053,0.0,0.0,0.0,0.0,0.0,0.0,0.0,14.3427,14.2833,14.3205,14.4018,14.5057,14.3432,14.1575,14.0448,0.0,0.0,13.0507,12.9824,13.0488,13.0488,13.0492,13.0641,13.1246,13.3103,13.4886,0.0,0.0,0.0,0.0,0.0,0.0,0.0,0.0,0.0,8.9365,8.6975,0.0,0.0,0.0,0.0,0.0,0.0,0.0,0.0,0.0,0.0,0.0,10.8534,11.1314,0.0,0.0,0.0,0.0,0.0,0.0,0.0,0.0,0.0,0.0,0.0,0.0,12.8616,13.4424,14.21,14.7196,14.9335,15.0328,15.0341,14.9292,14.8685,14.5169,13.8481,0.0,0.0,0.0,0.0,0.0,0.0,0.0,0.0,0.0,0.0,0.0,0.0,0.0,0.0,0.0,0.0,0.0,0.0,0.0,0.0,0.0,0.0,0.0,0.0,0.0,9.7707,0.0,0.0,0.0,0.0,0.0,0.0,0.0,0.0,0.0,0.0,0.0,12.0614,12.4922,12.8788,13.2583,13.6375,13.7857,13.9714,0.0,0.0,0.0,0.0,0.0,0.0,0.0,0.0,0.0,0.0,0.0,0.0,0.0,0.0,12.5364,12.0034,11.9878,12.0614,12.0614,0.0,0.0,0.0,0.0,0.0,0.0,0.0,0.0,0.0,0.0,0.0,0.0,0.0,0.0,0.0,7.9107,0.0,0.0,7.7287,0.0,0.0,0.0,0.0,0.0,0.0,0.0,0.0,0.0,0.0,0.0,0.0,0.0,0.0,0.0,0.0,0.0,0.0,0.0,0.0,0.0,0.0,12.7343,13.0761,14.104,14.6571,14.6937,14.6688,14.6594,14.6437,14.4569,14.1375,13.6696,0.0,0.0,0.0,0.0,0.0,0.0,0.0,0.0,0.0,0.0,0.0,0.0,0.0,0.0,0.0,0.0,0.0,0.0,0.0,0.0,0.0,0.0,0.0,0.0,0.0,0.0,9.517,9.9674,10.131,0.0,0.0,0.0,0.0,0.0,0.0,0.0,0.0,0.0,11.6992,12.4335,13.005,13.1774,13.4729,13.6871,13.7024,13.7012,13.6946,13.6946,13.6867,13.6789,0.0,0.0,0.0,0.0,0.0,0.0,0.0,0.0,0.0,0.0,0.0,0.0,0.0,0.0,0.0,0.0,0.0,0.0,0.0,0.0,0.0,0.0,0.0,0.0,0.0,0.0,0.0,0.0,0.0,0.0,0.0,0.0,0.0,0.0,0.0,0.0,0.0,0.0,0.0,0.0,0.0,0.0,0.0,0.0,0.0,0.0,0.0,0.0,0.0,0.0,0.0,0.0,0.0,0.0,12.3325,13.0582,13.9122,14.4143,14.529,14.6316,14.5674,14.3337,14.1676,13.76,0.0,0.0,0.0,0.0,0.0,0.0,0.0,0.0,0.0,0.0,0.0,0.0,0.0,0.0,0.0,0.0,0.0,0.0,0.0,0.0,0.0,0.0,0.0,0.0,0.0,0.0,0.0,0.0,9.7642,9.885,9.7888,0.0,0.0,0.0,0.0,0.0,0.0,0.0,0.0,0.0,0.0,12.4554,12.9675,13.3092,13.5621,13.6649,13.6863,13.6426,13.539,13.5253,13.4424,13.2189,0.0,0.0,0.0,0.0,0.0,0.0,0.0,0.0,0.0,0.0,0.0,0.0,0.0,0.0,0.0,0.0,0.0,0.0,0.0,0.0,0.0,0.0,0.0,0.0,0.0,0.0,0.0,0.0,0.0,0.0,0.0,0.0,0.0,0.0,0.0,0.0,0.0,0.0,0.0,0.0,0.0,0.0,0.0,0.0,0.0,0.0,0.0,0.0,0.0,0.0,0.0,0.0,0.0,12.1041,12.9111,13.7397,14.2083,14.3173,14.468,14.3813,14.058,13.826,13.3101,0.0,0.0,0.0,0.0,0.0,0.0,0.0,0.0,0.0,0.0,0.0,0.0,0.0,0.0,0.0,0.0,0.0,0.0,0.0,0.0,0.0,0.0,0.0,0.0,0.0,0.0,0.0,0.0,9.1797,9.3575,9.4766,0.0,0.0,0.0,0.0,0.0,0.0,0.0,0.0,0.0,0.0,11.9352,12.588,12.9085,0.0,0.0,13.4123,13.3533,13.1907,13.22,13.1082,12.6556,12.367,0.0,0.0,0.0,0.0,0.0,0.0,0.0,0.0,0.0,0.0,0.0,0.0,0.0,0.0,0.0,0.0,0.0,0.0,0.0,0.0,0.0,0.0,0.0,0.0,0.0,0.0,0.0,0.0,0.0,0.0,0.0,0.0,0.0,0.0,0.0,0.0,0.0,0.0,0.0,0.0,0.0,0.0,0.0,0.0,0.0,0.0,0.0,0.0,0.0,0.0,0.0,0.0,11.9945,12.6618,13.5725,14.0496,14.0814,14.2055,14.1186,13.7971,13.4274,12.801,0.0,0.0,0.0,0.0,0.0,0.0,0.0,0.0,0.0,0.0,0.0,0.0,0.0,0.0,0.0,0.0,0.0,0.0,0.0,0.0,0.0,0.0,0.0,0.0,0.0,0.0,0.0,0.0,0.0,0.0,0.0,0.0,0.0,0.0,0.0,0.0,0.0,0.0,0.0,0.0,0.0,11.4676,12.0763,12.3221,12.5531,0.0,12.9003,12.8409,12.6712,12.7893,12.6768,12.0317,0.0,0.0,0.0,0.0,0.0,0.0,0.0,0.0,0.0,0.0,0.0,0.0,0.0,0.0,0.0,0.0,0.0,0.0,0.0,0.0,0.0,0.0,0.0,0.0,0.0,0.0,0.0,0.0,0.0,0.0,0.0,0.0,0.0,0.0,0.0,0.0,0.0,0.0,0.0,0.0,0.0,0.0,0.0,0.0,0.0,0.0,0.0,0.0,0.0,0.0,0.0,0.0,0.0,0.0,12.3278,13.3699,13.9111,13.918,14.0687,13.9263,13.4778,12.9215,0.0,0.0,0.0,0.0,0.0,0.0,0.0,0.0,0.0,0.0,0.0,0.0,0.0,0.0,0.0,0.0,0.0,0.0,0.0,0.0,0.0,0.0,0.0,0.0,0.0,0.0,0.0,6.9894,0.0,0.0,0.0,0.0,0.0,0.0,0.0,0.0,0.0,0.0,0.0,0.0,0.0,0.0,11.1712,11.4598,11.846,12.129,0.0,0.0,12.1657,12.0108,12.1141,12.0388,0.0,0.0,0.0,0.0,0.0,0.0,0.0,0.0,0.0,0.0,0.0,0.0,0.0,0.0,0.0,0.0,0.0,0.0,0.0,0.0,0.0,0.0,0.0,0.0,0.0,0.0,0.0,0.0,0.0,0.0,0.0,0.0,0.0,0.0,0.0,0.0,0.0,0.0,0.0,0.0,0.0,0.0,0.0,0.0,0.0,0.0,0.0,0.0,0.0,0.0,0.0,0.0,0.0,0.0,11.3801,12.2059,13.0989,13.6204,13.7553,13.9123,13.762,13.2839,12.6468,11.9483,0.0,0.0,0.0,0.0,0.0,0.0,0.0,0.0,0.0,0.0,0.0,0.0,0.0,0.0,0.0,0.0,0.0,0.0,0.0,0.0,0.0,0.0,0.0,0.0,0.0,0.0,0.0,0.0,0.0,0.0,0.0,0.0,0.0,0.0,0.0,0.0,0.0,0.0,0.0,0.0,0.0,0.0,11.1043,11.3791,0.0,0.0,0.0,11.7124,11.5577,0.0,0.0,0.0,0.0,0.0,0.0,0.0,0.0,0.0,0.0,0.0,0.0,0.0,0.0,0.0,0.0,0.0,0.0,0.0,0.0,0.0,0.0,0.0,0.0,0.0,0.0,0.0,0.0,0.0,0.0,0.0,0.0,0.0,0.0,0.0,0.0,0.0,0.0,0.0,0.0,0.0,0.0,0.0,0.0,0.0,0.0,0.0,0.0,0.0,0.0,0.0,0.0,0.0,0.0,0.0,0.0,0.0,12.1054,12.772,13.2657,13.5861,13.6982,13.5555,13.1379,12.4996,11.7927,0.0,0.0,0.0,0.0,0.0,0.0,0.0,0.0,0.0,0.0,0.0,0.0,0.0,0.0,0.0,0.0,0.0,0.0,0.0,0.0,0.0,0.0,0.0,0.0,0.0,0.0,0.0,0.0,0.0,0.0,0.0,0.0,0.0,0.0,0.0,0.0,0.0,0.0,0.0,0.0,0.0,10.3993,10.8527,10.9344,10.9335,0.0,0.0,11.3261,11.1934,11.2809,0.0,0.0,0.0,0.0,0.0,0.0,0.0,0.0,0.0,0.0,0.0,0.0,0.0,0.0,0.0,0.0,0.0,0.0,0.0,0.0,0.0,0.0,0.0,0.0,0.0,0.0,0.0,0.0,0.0,0.0,0.0,0.0,0.0,0.0,0.0,0.0,0.0,0.0,0.0,0.0,0.0,0.0,0.0,0.0,0.0,0.0,0.0,0.0,0.0,0.0,0.0,0.0,0.0,0.0,0.0,0.0,11.6423,12.3991,12.9991,13.4057,13.2274,13.0717,12.9653,12.2351,11.5305,0.0,0.0,0.0,0.0,0.0,0.0,0.0,0.0,0.0,0.0,0.0,0.0,0.0,0.0,0.0,0.0,0.0,0.0,0.0,0.0,0.0,0.0,0.0,0.0,0.0,0.0,0.0,0.0,0.0,0.0,0.0,0.0,0.0,0.0,0.0,0.0,0.0,0.0,0.0,0.0,0.0,10.1595,10.3767,10.5246,0.0,0.0,0.0,0.0,10.6723,10.6952,0.0,0.0,0.0,0.0,0.0,0.0,0.0,0.0,0.0,0.0,0.0,0.0,0.0,0.0,0.0,0.0,0.0,0.0,0.0,0.0,0.0,0.0,0.0,0.0,0.0,0.0,0.0,0.0,0.0,0.0,0.0,0.0,0.0,0.0,0.0,0.0,0.0,0.0,0.0,0.0,0.0,0.0,0.0,0.0,0.0,0.0,0.0,0.0,0.0,0.0,0.0,0.0,0.0,0.0,0.0,0.0,11.2785,11.986,12.5437,12.9283,12.929,12.8142,12.5775,12.0365,11.4092,0.0,0.0,0.0,0.0,0.0,0.0,0.0,0.0,0.0,0.0,0.0,0.0,0.0,0.0,0.0,0.0,0.0,0.0,0.0,0.0,0.0,0.0,0.0,0.0,0.0,0.0,0.0,0.0,0.0,0.0,0.0,0.0,0.0,0.0,0.0,0.0,0.0,0.0,0.0,0.0,9.2461,9.61,9.7739,0.0,0.0,0.0,0.0,0.0,0.0,10.2118,10.0784,0.0,0.0,0.0,0.0,0.0,0.0,0.0,0.0,0.0,0.0,0.0,0.0,0.0,0.0,0.0,0.0,0.0,0.0,0.0,0.0,0.0,0.0,0.0,0.0,0.0,0.0,0.0,0.0,0.0,0.0,0.0,0.0,0.0,0.0,0.0,0.0,0.0,0.0,0.0,0.0,0.0,0.0,0.0,0.0,0.0,0.0,0.0,0.0,0.0,0.0,0.0,0.0,0.0,0.0,0.0,10.9147,11.5162,12.0163,12.4087,12.6507,12.5924,12.2196,11.8778,11.3224,10.5316,0.0,0.0,0.0,0.0,0.0,0.0,0.0,0.0,0.0,0.0,0.0,0.0,0.0,0.0,0.0,0.0,0.0,0.0,0.0,0.0,0.0,0.0,0.0,0.0,0.0,0.0,0.0,0.0,0.0,0.0,0.0,0.0,0.0,0.0,0.0,0.0,0.0,0.0,0.0,8.6376,9.023,0.0,0.0,0.0,0.0,0.0,0.0,0.0,0.0,9.5439,0.0,0.0,0.0,0.0,0.0,0.0,0.0,0.0,0.0,0.0,0.0,0.0,0.0,0.0,0.0,0.0,0.0,0.0,0.0,0.0,0.0,0.0,0.0,0.0,0.0,0.0,0.0,0.0,0.0,0.0,0.0,0.0,0.0,0.0,0.0,0.0,0.0,0.0,0.0,0.0,0.0,0.0,0.0,0.0,0.0,0.0,0.0,0.0,0.0,0.0,0.0,0.0,0.0,0.0,0.0,0.0,10.9295,11.5293,12.2059,12.1661,12.1513,12.1988,11.7779,11.115,10.212,0.0,0.0,0.0,0.0,0.0,0.0,0.0,0.0,0.0,0.0,0.0,0.0,0.0,0.0,0.0,0.0,0.0,0.0,0.0,0.0,0.0,0.0,0.0,0.0,0.0,0.0,0.0,0.0,0.0,0.0,0.0,0.0,0.0,0.0,0.0,0.0,0.0,0.0,7.6268,8.2358,0.0,0.0,0.0,0.0,0.0,0.0,0.0,0.0,9.0614,0.0,0.0,0.0,0.0,0.0,0.0,0.0,0.0,0.0,0.0,0.0,0.0,0.0,0.0,0.0,0.0,0.0,0.0,0.0,0.0,0.0,0.0,0.0,0.0,0.0,0.0,0.0,0.0,0.0,0.0,0.0,0.0,0.0,0.0,0.0,0.0,0.0,0.0,0.0,0.0,0.0,0.0,0.0,0.0,0.0,0.0,0.0,0.0,0.0,0.0,0.0,0.0,0.0,0.0,0.0,0.0,0.0,0.0,11.1737,11.6946,11.8082,11.8433,11.8207,11.3795,10.8093,0.0,0.0,0.0,0.0,0.0,0.0,0.0,0.0,0.0,0.0,0.0,0.0,0.0,0.0,0.0,0.0,0.0,0.0,0.0,0.0,0.0,0.0,0.0,0.0,0.0,0.0,0.0,0.0,0.0,0.0,0.0,0.0,0.0,0.0,0.0,0.0,0.0,0.0,0.0,0.0,0.0,0.0,0.0,0.0,0.0,0.0,0.0,0.0,0.0,0.0,0.0,0.0,0.0,0.0,0.0,0.0,0.0,0.0,0.0,0.0,0.0,0.0,0.0,0.0,0.0,0.0,0.0,0.0,0.0,0.0,0.0,0.0,0.0,0.0,0.0,0.0,0.0,0.0,0.0,0.0,0.0,0.0,0.0,0.0,0.0,0.0,0.0,0.0,0.0,0.0,0.0,0.0,0.0,0.0,0.0,0.0,0.0,0.0,0.0,0.0,0.0,0.0,0.0,0.0,0.0,0.0,0.0,0.0,10.8257,11.1671,11.5085,11.6281,11.5051,10.9531,10.4256,0.0,0.0,0.0,0.0,0.0,0.0,0.0,0.0,0.0,0.0,0.0,0.0,0.0,0.0,0.0,0.0,0.0,0.0,0.0,0.0,0.0,0.0,0.0,0.0,0.0,0.0,0.0,0.0,0.0,0.0,0.0,0.0,0.0,0.0,0.0,0.0,0.0,0.0,0.0,0.0,0.0,0.0,0.0,0.0,0.0,0.0,0.0,0.0,8.2725,0.0,0.0,0.0,0.0,0.0,0.0,0.0,0.0,0.0,0.0,0.0,0.0,0.0,0.0,0.0,0.0,0.0,0.0,0.0,0.0,0.0,0.0,0.0,0.0,0.0,0.0,0.0,0.0,0.0,0.0,0.0,0.0,0.0,0.0,0.0,0.0,0.0,0.0,0.0,0.0,0.0,0.0,0.0,0.0,0.0,0.0,0.0,0.0,0.0,0.0,0.0,0.0,0.0,0.0,0.0,0.0,0.0,0.0,0.0,10.3981,10.8477,11.301,11.5271,11.4843,10.6452,9.8894,0.0,0.0,0.0,0.0,0.0,0.0,0.0,0.0,0.0,0.0,0.0,0.0,0.0,0.0,0.0,0.0,0.0,0.0,0.0,0.0,0.0,0.0,0.0,0.0,0.0,0.0,0.0,0.0,0.0,0.0,0.0,0.0,0.0,0.0,0.0,0.0,0.0,0.0,0.0,0.0,0.0,0.0,0.0,0.0,0.0,0.0,0.0,0.0,0.0,0.0,0.0,0.0,0.0,0.0,0.0,0.0,0.0,0.0,0.0,0.0,0.0,0.0,0.0,0.0,0.0,0.0,0.0,0.0,0.0,0.0,0.0,0.0,0.0,0.0,0.0,0.0,0.0,0.0,0.0,0.0,0.0,0.0,0.0,0.0,0.0,0.0,0.0,0.0,0.0,0.0,0.0,0.0,0.0,0.0,0.0,0.0,0.0,0.0,0.0,0.0,0.0,0.0,0.0,0.0,0.0,0.0,0.0,0.0,10.0611,10.531,10.9097,10.9739,10.7023,10.0459,9.4822,0.0,0.0,0.0,0.0,0.0,0.0,0.0,0.0,0.0,0.0,0.0,0.0,0.0,0.0,0.0,0.0,0.0,0.0,0.0,0.0,0.0,0.0,0.0,0.0,0.0,0.0,0.0,0.0,0.0,0.0,0.0,0.0,0.0,0.0,0.0,0.0,0.0,0.0,0.0,0.0,0.0,0.0,0.0,0.0,0.0,0.0,0.0,0.0,0.0,0.0,0.0,0.0,0.0,0.0,0.0,0.0,0.0,0.0,0.0,0.0,0.0,0.0,0.0,0.0,0.0,0.0,0.0,0.0,0.0,0.0,0.0,0.0,0.0,0.0,0.0,0.0,0.0,0.0,0.0,0.0,0.0,0.0,0.0,0.0,0.0,0.0,0.0,0.0,0.0,0.0,0.0,0.0,0.0,0.0,0.0,0.0,0.0,0.0,0.0,0.0,0.0,0.0,0.0,0.0,0.0,0.0,0.0,0.0,0.0,10.0734,10.2742,10.2115,9.869,9.4746,9.0613,0.0,0.0,0.0,0.0,0.0,0.0,0.0,0.0,0.0,0.0,0.0,0.0,0.0,0.0,0.0,0.0,0.0,0.0,0.0,0.0,0.0,0.0,0.0,0.0,0.0,0.0,0.0,0.0,0.0,0.0,0.0,0.0,0.0,0.0,0.0,0.0,0.0,0.0,0.0,0.0,0.0,0.0,0.0,0.0,0.0,0.0,0.0,0.0,0.0,0.0,0.0,0.0,0.0,0.0,0.0,0.0,0.0,0.0,0.0,0.0,0.0,0.0,0.0,0.0,0.0,0.0,0.0,0.0,0.0,0.0,0.0,0.0,0.0,0.0,0.0,0.0,0.0,0.0,0.0,0.0,0.0,0.0,0.0,0.0,0.0,0.0,0.0,0.0,0.0,0.0,0.0,0.0,0.0,0.0,0.0,0.0,0.0,0.0,0.0,0.0,0.0,0.0,0.0,0.0,0.0,0.0,0.0,0.0,0.0,9.4313,9.3167,9.2364,9.2083,9.0399,8.5908,0.0,0.0,0.0,0.0,0.0,0.0,0.0,0.0,0.0,0.0,0.0,0.0,0.0,0.0,0.0,0.0,0.0,0.0,0.0,0.0,0.0,0.0,0.0,0.0,0.0,0.0,0.0,0.0,0.0,0.0,0.0,0.0,0.0,0.0,0.0,0.0,0.0,0.0,0.0,0.0,0.0,0.0,0.0,0.0,0.0,0.0,0.0,0.0,0.0,0.0,0.0,0.0,0.0,0.0,0.0,0.0,0.0,0.0,0.0,0.0,0.0,0.0,0.0,0.0,0.0,0.0,0.0,0.0,0.0,0.0,0.0,0.0,0.0,0.0,0.0,0.0,0.0,0.0,0.0,0.0,0.0,0.0,0.0,0.0,0.0,0.0,0.0,0.0,0.0,0.0,0.0,0.0,0.0,0.0,0.0,0.0,0.0,0.0,0.0,0.0,0.0,0.0,0.0,0.0,0.0,0.0,0.0,0.0,0.0,8.3704,8.4976,8.5748,8.5673,8.4183,8.1044,7.6279,0.0,0.0,0.0,0.0,0.0,0.0,0.0,0.0,0.0,0.0,0.0,0.0,0.0,0.0,0.0,0.0,0.0,0.0,0.0,0.0,0.0,0.0,0.0,0.0,0.0,0.0,0.0,0.0,0.0,0.0,0.0,0.0,0.0,0.0,0.0,0.0,0.0,0.0,0.0,0.0,0.0,0.0,0.0,0.0,0.0,0.0,0.0,0.0,0.0,0.0,0.0,0.0,0.0,0.0,0.0,0.0,0.0,0.0,0.0,0.0,0.0,0.0,0.0,0.0,0.0,0.0,0.0,0.0,0.0,0.0,0.0,0.0,0.0,0.0,0.0,0.0,0.0,0.0,0.0,0.0,0.0,0.0,0.0,0.0,0.0,0.0,0.0,0.0,0.0,0.0,0.0,0.0,0.0,0.0,0.0,0.0,0.0,0.0,0.0,0.0,0.0,0.0,0.0,0.0,0.0,0.0,0.0,0.0,7.6782,7.8979,8.0049,8.0053,7.9042,7.6748,0.0,0.0,0.0,0.0,0.0,0.0,0.0,0.0,0.0,0.0,0.0,0.0,0.0,0.0,0.0,0.0,0.0,0.0,0.0,0.0,0.0,0.0,0.0,0.0,0.0,0.0,0.0,0.0,0.0,0.0,0.0,0.0,0.0,0.0,0.0,0.0,0.0,0.0,0.0,0.0,0.0,0.0,0.0,0.0,0.0,0.0,0.0,0.0,0.0,0.0,0.0,0.0,0.0,0.0,0.0,0.0,0.0,0.0,0.0,0.0,0.0,0.0,0.0,0.0,0.0,0.0,0.0,0.0,0.0,0.0,0.0,0.0,0.0,0.0,0.0,0.0,0.0,0.0,0.0,0.0,0.0,0.0,0.0,0.0,0.0,0.0,0.0,0.0,0.0,0.0,0.0,0.0,0.0,0.0,0.0,0.0,0.0,0.0,0.0,0.0,0.0,0.0,0.0,0.0,0.0,0.0,0.0,0.0,6.8929,7.4845,7.528,7.5355,7.528,7.5348,7.3057,0.0,0.0,0.0,0.0,0.0,0.0,0.0,0.0,0.0,0.0,0.0,0.0,0.0,0.0,0.0,0.0,0.0,0.0,0.0,0.0,0.0,0.0,0.0,0.0,0.0,0.0,0.0,0.0,0.0,0.0,0.0,0.0,0.0,0.0,0.0,0.0,0.0,0.0,0.0,0.0,0.0,0.0,0.0,0.0,0.0,0.0,0.0,0.0,0.0,0.0,0.0,0.0,0.0,0.0,0.0,0.0,0.0,0.0,0.0,0.0,0.0,0.0,0.0,0.0,0.0,0.0,0.0,0.0,0.0,0.0,0.0,0.0,0.0,0.0,0.0,0.0,0.0,0.0,0.0,0.0,0.0,0.0,0.0,0.0,0.0,0.0,0.0,0.0,0.0,0.0,0.0,0.0,0.0,0.0,0.0,0.0,0.0,0.0,0.0,0.0,0.0,0.0,0.0,0.0,0.0,0.0,0.0,0.0,0.0,6.8711,0.0,7.2347,0.0,7.2344,7.0615,0.0,0.0,0.0,0.0,0.0,0.0,0.0,0.0,0.0,0.0,0.0,0.0,0.0,0.0,0.0,0.0,0.0,0.0,0.0,0.0,0.0,0.0,0.0,0.0,0.0,0.0,0.0,0.0,0.0,0.0,0.0,0.0,0.0,0.0,0.0,0.0,0.0,0.0,0.0,0.0,0.0,0.0,0.0,0.0,0.0,0.0,0.0,0.0,0.0,0.0,0.0,0.0,0.0,0.0,0.0,0.0,0.0,0.0,0.0,0.0,0.0,0.0,0.0,0.0,0.0,0.0,0.0,0.0,0.0,0.0,0.0,0.0,0.0,0.0,0.0,0.0,0.0,0.0,0.0,0.0,0.0,0.0,0.0,0.0,0.0,0.0,0.0,0.0,0.0,0.0,0.0,0.0,0.0,0.0,0.0,0.0,0.0,0.0,0.0,0.0,0.0,0.0,0.0,0.0,0.0,0.0,0.0,0.0,0.0,6.3357,6.6681,6.86,6.9184,6.9184,6.7951,0.0,0.0,0.0,0.0,0.0,0.0,0.0,0.0,0.0,0.0,0.0,0.0,0.0,0.0,0.0,0.0,0.0,0.0,0.0,0.0,0.0,0.0,0.0,0.0,0.0,0.0,0.0,0.0,0.0,0.0,0.0,0.0,0.0,0.0,0.0,0.0,0.0,0.0,0.0,0.0,0.0,0.0,0.0,0.0,0.0,0.0,0.0,0.0,0.0,0.0,0.0,0.0,0.0,0.0,0.0,0.0,0.0,0.0,0.0,0.0,0.0,0.0,0.0,0.0,0.0,0.0,0.0,0.0,0.0,0.0,0.0,0.0,0.0,0.0,0.0,0.0,0.0,0.0,0.0,0.0,0.0,0.0,0.0,0.0,0.0,0.0,0.0,0.0,0.0,0.0,0.0,0.0,0.0,0.0,0.0,0.0,0.0,0.0,0.0,0.0,0.0,0.0,0.0,0.0,0.0,0.0,0.0,0.0,0.0,5.9093,6.2026,6.436,6.5879,6.5873,6.5171,0.0,0.0,0.0,0.0,0.0,0.0,0.0,0.0,0.0,0.0,0.0,0.0,0.0,0.0,0.0,0.0,0.0,0.0,0.0,0.0,0.0,0.0,0.0,0.0,0.0,0.0,0.0,0.0,0.0,0.0,0.0,0.0,0.0,0.0,0.0,0.0,0.0,0.0,0.0,0.0,0.0,0.0,0.0,0.0,0.0,0.0,0.0,0.0,0.0,0.0,0.0,0.0,0.0,0.0,0.0,0.0,0.0,0.0,0.0,0.0,0.0,0.0,0.0,0.0,0.0,0.0,0.0,0.0,0.0,0.0,0.0,0.0,0.0,0.0,0.0,0.0,0.0,0.0,0.0,0.0,0.0,0.0,0.0,0.0,0.0,0.0,0.0,0.0,0.0,0.0,0.0,0.0,0.0,0.0,0.0,0.0,0.0,0.0,0.0,0.0,0.0,0.0,0.0,0.0,0.0,0.0,0.0,0.0,0.0,0.0,6.0145,6.1425,6.2867,6.3009,6.2299,6.0724,0.0,0.0,0.0,0.0,0.0,0.0,0.0,0.0,0.0,0.0,0.0,0.0,0.0,0.0,0.0,0.0,0.0,0.0,0.0,0.0,0.0,0.0,0.0,0.0,0.0,0.0,0.0,0.0,0.0,0.0,0.0,0.0,0.0,0.0,0.0,0.0,0.0,0.0,0.0,0.0,0.0,0.0,0.0,0.0,0.0,0.0,0.0,0.0,0.0,0.0,0.0,0.0,0.0,0.0,0.0,0.0,0.0,0.0,0.0,0.0,0.0,0.0,0.0,0.0,0.0,0.0,0.0,0.0,0.0,0.0,0.0,0.0,0.0,0.0,0.0,0.0,0.0,0.0,0.0,0.0,0.0,0.0,0.0,0.0,0.0,0.0,0.0,0.0,0.0,0.0,0.0,0.0,0.0,0.0,0.0,0.0,0.0,0.0,0.0,0.0,0.0,0.0,0.0,0.0,0.0,0.0,0.0,0.0,0.0,0.0,5.9313,6.0949,6.0951,6.0522,0.0,0.0,0.0,0.0,0.0,0.0,0.0,0.0,0.0,0.0,0.0,0.0,0.0,0.0,0.0,0.0,0.0,0.0,0.0,0.0,0.0,0.0,0.0,0.0,0.0,0.0,0.0,0.0,0.0,0.0,0.0,0.0,0.0,0.0,0.0,0.0,0.0,0.0,0.0,0.0,0.0,0.0,0.0,0.0,0.0,0.0,0.0,0.0,0.0,0.0,0.0,0.0,0.0,0.0,0.0,0.0,0.0,0.0,0.0,0.0,0.0,0.0,0.0,0.0,0.0,0.0,0.0,0.0,0.0,0.0,0.0,0.0,0.0,0.0,0.0,0.0,0.0,0.0,0.0,0.0,0.0,0.0,0.0,0.0,0.0,0.0,0.0,0.0,0.0,0.0,0.0,0.0,0.0,0.0,0.0,0.0,0.0,0.0,0.0,0.0,0.0,0.0,0.0,0.0,0.0,0.0,0.0,0.0,0.0,0.0,0.0,5.7952,5.9415,5.9505,0.0,5.9425,0.0,0.0,0.0,0.0,0.0,0.0,0.0,0.0,0.0,0.0,0.0,0.0,0.0,0.0,0.0,0.0,0.0,0.0,0.0,0.0,0.0,0.0,0.0,0.0,0.0,0.0,0.0,0.0,0.0,0.0,0.0,0.0,0.0,0.0,0.0,0.0,0.0,0.0,0.0,0.0,0.0,0.0,0.0,0.0,0.0,0.0,0.0,0.0,0.0,0.0,0.0,0.0,0.0,0.0,0.0,0.0,0.0,0.0,0.0,0.0,0.0,0.0,0.0,0.0,0.0,0.0,0.0,0.0,0.0,0.0,0.0,0.0,0.0,0.0,0.0,0.0,0.0,0.0,0.0,0.0,0.0,0.0,0.0,0.0,0.0,0.0,0.0,0.0,0.0,0.0,0.0,0.0,0.0,0.0,0.0,0.0,0.0,0.0,0.0,0.0,0.0,0.0,0.0,0.0,0.0,0.0,0.0,0.0,0.0,0.0,0.0,0.0,5.8184,5.8189,5.8191,0.0,0.0,0.0,0.0,0.0,0.0,0.0,0.0,0.0,0.0,0.0,0.0,0.0,0.0,0.0,0.0,0.0,0.0,0.0,0.0,0.0,0.0,0.0,0.0,0.0,0.0,0.0,0.0,0.0,0.0,0.0,0.0,0.0,0.0,0.0,0.0,0.0,0.0,0.0,0.0,0.0,0.0,0.0,0.0,0.0,0.0,0.0,0.0,0.0,0.0,0.0,0.0,0.0,0.0,0.0,0.0,0.0,0.0,0.0,0.0,0.0,0.0,0.0,0.0,0.0,0.0,0.0,0.0,0.0,0.0,0.0,0.0,0.0,0.0,0.0,0.0,0.0,0.0,0.0,0.0,0.0,0.0,0.0,0.0,0.0,0.0,0.0,0.0,0.0,0.0,0.0,0.0,0.0,0.0,0.0,0.0,0.0,0.0,0.0,0.0,0.0,0.0,0.0,0.0,0.0,0.0,0.0,0.0,0.0,0.0,5.791,5.7982,5.7997,5.8026,5.7979,0.0,0.0,0.0,0.0,0.0,0.0,0.0,0.0,0.0,0.0,0.0,0.0,0.0,0.0,0.0,0.0,0.0,0.0,0.0,0.0,0.0,0.0,0.0,0.0,0.0,0.0,0.0,0.0,0.0,0.0,0.0,0.0,0.0,0.0,0.0,0.0,0.0,0.0,0.0,0.0,0.0,0.0,0.0,0.0,0.0,0.0,0.0,0.0,0.0,0.0,0.0,0.0,0.0,0.0,0.0,0.0,0.0,0.0,0.0,0.0,0.0,0.0,0.0,0.0,0.0,0.0,0.0,0.0,0.0,0.0,0.0,0.0,0.0,0.0,0.0,0.0,0.0,0.0,0.0,0.0,0.0,0.0,0.0,0.0,0.0,0.0,0.0,0.0,0.0,0.0,0.0,0.0,0.0,0.0,0.0,0.0,0.0,0.0,0.0,0.0,0.0,0.0,0.0,0.0,0.0,0.0,0.0,0.0,0.0,0.0,0.0,0.0,0.0,0.0,5.8344,0.0,0.0,0.0,0.0,0.0,0.0,0.0,0.0,0.0,0.0,0.0,0.0,0.0,0.0,0.0,0.0,0.0,0.0,0.0,0.0,0.0,0.0,0.0,0.0,0.0,0.0,0.0,0.0,0.0,0.0,0.0,0.0,0.0,0.0,0.0,0.0,0.0,0.0,0.0,0.0,0.0,0.0,0.0,0.0,0.0,0.0,0.0,0.0,0.0,0.0,0.0,0.0,0.0,0.0,0.0,0.0,0.0,0.0,0.0,0.0,0.0,0.0,0.0,0.0,0.0,0.0,0.0,0.0,0.0,0.0,0.0,0.0,0.0,0.0,0.0,0.0,0.0,0.0,0.0,0.0,0.0,0.0,0.0,0.0,0.0,0.0,0.0,0.0,0.0,0.0,0.0,0.0,0.0,0.0,0.0,0.0,0.0,0.0,0.0,0.0,0.0,0.0,0.0,0.0,0.0,0.0,0.0,0.0,0.0,0.0,0.0,0.0,0.0,0.0,0.0,0.0,0.0,0.0,0.0,0.0,0.0,0.0,0.0,0.0,0.0,0.0,0.0,0.0,0.0,0.0,0.0,0.0,0.0,0.0,0.0,0.0,0.0,0.0,0.0,0.0,0.0,0.0,0.0,0.0,0.0,0.0,0.0,0.0,0.0,0.0,0.0,0.0,0.0,0.0,0.0,0.0,0.0,0.0,0.0,0.0,0.0,0.0,0.0,0.0,0.0,0.0,0.0,0.0,0.0,0.0,0.0,0.0,0.0,0.0,0.0,0.0,0.0,0.0,0.0,0.0,0.0,0.0,0.0,0.0,0.0,0.0,0.0,0.0,0.0,0.0,0.0,0.0,0.0,0.0,0.0,0.0,0.0,0.0,0.0,0.0,0.0,0.0,0.0,0.0,0.0,0.0,0.0,0.0,0.0,0.0,0.0,0.0,0.0,0.0,0.0,0.0,0.0,0.0,0.0,0.0,0.0,0.0,0.0,0.0,0.0,0.0,0.0,0.0,0.0,0.0,0.0,0.0,0.0,0.0,0.0,0.0,0.0,0.0,0.0,0.0,0.0,0.0,0.0,0.0,0.0,0.0,0.0,0.0,0.0,0.0,0.0,0.0,0.0,0.0,0.0,0.0,0.0,0.0,0.0,0.0,0.0,0.0,0.0,0.0,0.0,0.0,0.0,0.0,0.0,0.0,0.0,0.0,0.0,0.0,0.0,0.0,0.0,0.0,0.0,0.0,0.0,0.0,0.0,0.0,0.0,0.0,0.0,0.0,0.0,0.0,0.0,0.0,0.0,0.0,0.0,0.0,0.0,0.0,0.0,0.0,0.0,0.0,0.0,0.0,0.0,0.0,0.0,0.0,0.0,0.0,0.0,0.0,0.0,0.0,0.0,0.0,0.0,0.0,0.0,0.0,0.0,0.0,0.0,0.0,0.0,0.0,0.0,0.0,0.0,0.0,0.0,0.0,0.0,0.0,0.0,0.0,0.0,0.0,0.0,0.0,0.0,0.0,0.0,0.0,0.0,0.0,0.0,0.0,0.0,0.0,0.0,0.0,0.0,0.0,0.0,0.0,0.0,0.0,0.0,0.0,0.0,0.0,0.0,0.0,0.0,0.0,0.0,0.0,0.0,0.0,0.0,0.0,0.0,0.0,0.0,0.0,0.0,0.0,0.0,0.0,0.0,0.0,0.0,0.0,0.0,0.0,0.0,0.0,0.0,0.0,0.0,0.0,0.0,0.0,0.0,0.0,0.0,0.0,0.0,0.0,0.0,0.0,0.0,0.0,0.0,0.0,0.0,0.0,0.0,0.0,0.0,0.0,0.0,0.0,0.0,0.0,0.0,0.0,0.0,0.0,0.0,0.0,0.0,0.0,0.0,0.0,0.0,0.0,0.0,0.0,0.0,0.0,0.0,0.0,0.0,0.0,0.0,0.0,0.0,0.0,0.0,0.0,0.0,0.0,0.0,0.0,0.0,0.0,0.0,0.0,0.0,0.0,0.0,0.0,0.0,0.0,0.0,0.0,0.0,0.0,0.0,0.0,0.0,0.0,0.0,0.0,0.0,0.0,0.0,0.0,0.0,0.0,0.0,0.0,0.0,0.0,0.0,0.0,0.0,0.0,0.0,0.0,0.0,0.0,0.0,0.0,0.0,0.0,0.0,0.0,0.0,0.0,0.0,0.0,0.0,0.0,0.0,0.0,0.0,0.0,0.0,0.0,0.0,0.0,0.0,0.0,0.0,0.0,0.0,0.0,0.0,0.0,0.0,0.0,0.0,0.0,0.0,0.0,0.0,0.0,0.0,0.0,0.0,0.0,0.0,0.0,0.0,0.0,0.0,0.0,0.0,0.0,0.0,0.0,0.0,0.0,0.0,0.0,0.0,0.0,0.0,0.0,0.0,0.0,0.0,0.0,0.0,0.0,0.0,0.0,0.0,0.0,0.0,0.0,0.0,0.0,0.0,0.0,0.0,0.0,0.0,0.0,0.0,0.0,0.0,0.0,0.0,0.0,0.0,0.0,0.0,0.0,0.0,0.0,0.0,0.0,0.0,0.0,0.0,0.0,0.0,0.0,0.0,0.0,0.0,0.0,0.0,0.0,0.0,0.0,0.0,0.0,0.0,0.0,0.0,0.0,0.0,0.0,0.0,0.0,0.0,0.0,0.0,0.0,0.0,0.0,0.0,0.0,0.0,0.0,0.0,0.0,0.0,0.0,0.0,0.0,0.0,0.0,0.0,0.0,0.0,0.0,0.0,0.0,0.0,0.0,0.0,0.0,0.0,0.0,0.0,0.0,0.0,0.0,0.0,0.0,0.0,0.0,0.0,0.0,0.0,0.0,0.0,0.0,0.0,0.0,0.0,0.0,0.0,0.0,0.0,0.0,0.0,0.0,0.0,0.0,0.0,0.0,0.0,0.0,0.0,0.0,0.0,0.0,0.0,0.0,0.0,0.0,0.0,0.0,0.0,0.0,0.0,0.0,0.0,0.0,0.0,0.0,0.0,0.0,0.0,0.0,0.0,0.0,0.0,0.0,0.0,0.0,0.0,0.0,0.0,0.0,0.0,0.0,0.0,0.0,0.0,0.0,0.0,0.0,0.0,0.0,0.0,0.0,0.0,0.0,0.0,0.0,0.0,0.0,0.0,0.0,0.0,0.0,0.0,0.0,0.0,0.0,0.0,0.0,0.0,0.0,0.0,0.0,0.0,0.0,0.0,0.0,0.0,0.0,0.0,0.0,0.0,0.0,0.0,0.0,0.0,0.0,0.0,0.0,0.0,0.0,0.0,0.0,0.0,0.0,0.0,0.0,0.0,0.0,0.0,0.0,0.0,0.0,0.0,0.0,0.0,0.0,0.0,0.0,0.0,0.0,0.0,0.0,0.0,0.0,0.0,0.0,0.0,0.0,0.0,0.0,0.0,0.0,0.0,0.0,0.0,0.0,0.0,0.0,0.0,0.0,0.0,0.0,0.0,0.0,0.0,0.0,0.0,0.0,0.0,0.0,0.0,0.0,0.0,0.0,0.0,0.0,0.0,0.0,0.0,0.0,0.0,0.0,0.0,0.0,0.0,0.0,0.0,0.0,0.0,0.0,0.0,0.0,0.0,0.0,0.0,0.0,0.0,0.0,0.0,0.0,0.0,0.0,0.0,0.0,0.0,0.0,0.0,0.0,0.0,0.0,0.0,0.0,0.0,0.0,0.0,0.0,0.0,0.0,0.0,0.0,0.0,0.0,0.0,0.0,0.0,0.0,0.0,0.0,0.0,0.0,0.0,0.0,0.0,0.0,0.0,0.0,0.0,0.0,0.0,0.0,0.0,0.0,0.0,0.0,0.0,0.0,0.0,0.0,0.0,0.0,0.0,0.0,0.0,0.0,0.0,0.0,0.0,0.0,0.0,0.0,0.0,0.0,0.0,0.0,0.0,0.0,0.0,0.0,0.0,0.0,0.0,0.0,0.0,0.0,0.0,0.0,0.0,0.0,0.0,0.0,0.0,0.0,0.0,0.0,0.0,0.0,0.0,0.0,0.0,0.0,0.0,0.0,0.0,0.0,0.0,0.0,0.0,0.0,0.0,0.0,0.0,0.0,0.0,0.0,0.0,0.0,0.0,0.0,0.0,0.0,0.0,0.0,0.0,0.0,0.0,0.0,0.0,0.0,0.0,0.0,0.0,0.0,0.0,0.0,0.0,0.0,0.0,0.0,0.0,0.0,0.0,0.0,0.0,0.0,0.0,0.0,0.0,0.0,0.0,0.0,0.0,0.0,0.0,0.0,0.0,0.0,0.0,0.0,0.0,0.0,0.0,0.0,0.0,0.0,0.0,0.0,0.0,0.0,0.0,0.0,0.0,0.0,0.0,0.0,0.0,0.0]}],[{"header":{"parameterUnit":"kt","parameterCategory":2,"dx":1,"dy":1,"la1":29.587661999999998,"la2":31.0,"lo1":-88.76705300000003,"lo2":-86.6583820000003,"nx":115,"ny":88,"refTime":"2022-09-23T06:00:00:Z","depth":0,"parameterNumber":2,"parameterNumberName":"V-component_of_WINDS"},"data":[9.1521,9.0922,8.998,8.934,8.8757,8.8008,8.7684,8.7684,8.7684,8.7684,8.7684,8.7684,8.7684,8.7684,8.7684,8.721,8.5849,8.3793,8.2405,8.0963,7.9871,7.8469,7.7243,7.6361,7.6106,7.5475,7.4872,7.4872,7.4872,7.4872,7.4872,7.4872,7.4872,7.4872,7.4872,7.4872,7.4872,7.4872,7.4847,7.4875,7.5074,7.5244,7.5582,7.5835,7.6177,7.6037,7.5924,7.5725,7.5358,7.5077,7.4935,7.4929,7.4872,7.4872,7.49,7.5241,7.5895,7.6208,7.6461,7.7087,7.7343,7.7087,7.7087,7.703,7.703,7.7001,7.6876,7.6542,7.5854,7.4462,7.2357,6.791,6.4602,6.3377,6.0232,5.8886,5.8337,5.7969,5.7772,5.7904,5.7904,5.7904,5.7904,5.7904,5.7904,5.7904,5.7904,5.7904,5.7904,5.7841,5.7778,5.7841,5.7904,5.7877,5.7772,5.7709,5.7814,5.782,5.7695,5.7521,5.7416,5.7326,5.7117,5.6761,5.6572,5.6474,5.6112,5.5804,5.6159,5.6127,5.5553,5.5249,5.5364,5.5207,5.5207,9.1088,9.0789,8.9548,8.8857,8.8715,8.8,8.7684,8.7684,8.7684,8.7684,8.7684,8.7684,8.7684,8.7684,8.7684,8.7479,8.6456,8.4183,8.2561,8.1112,7.897,7.7239,7.6109,7.5504,7.5352,7.5049,7.4872,7.4872,7.4872,7.4872,7.4872,7.4872,7.4872,7.4872,7.4872,7.4872,7.4872,7.4872,7.4872,7.4872,7.4847,7.4932,7.5042,7.5014,7.5074,7.533,7.5497,7.5469,7.5358,7.5188,7.5074,7.4957,7.4872,7.4872,7.4872,7.5042,7.5642,7.5838,7.5924,7.6433,7.6632,7.6717,7.6776,7.6802,7.6828,7.6802,7.6831,7.6533,7.6107,7.5003,7.3409,7.0566,6.7593,6.5074,6.0569,5.704,5.7217,5.7297,5.7563,5.7911,5.7883,5.7904,5.7904,5.7904,5.7904,5.7904,5.7904,5.7904,5.7904,5.7841,5.782,5.7841,5.7751,5.7535,5.7389,5.7472,5.773,5.7709,5.7709,5.7772,5.7793,5.7688,5.75,5.7179,5.7012,5.6865,5.6572,5.6279,5.5986,5.5963,5.5573,5.5369,5.5354,5.5312,5.527,9.093,9.0789,8.9448,8.859,8.8142,8.7817,8.7684,8.7684,8.7684,8.7684,8.7718,8.8108,8.8333,8.8333,8.8716,8.8716,8.7723,8.4996,8.2862,8.0526,7.8113,7.6206,7.5377,7.5024,7.4872,7.4872,7.4872,7.4872,7.4872,7.4872,7.4872,7.4872,7.4872,7.4872,7.4872,7.4872,7.4872,7.4872,7.4872,7.4872,7.4872,7.4847,7.4872,7.4872,7.49,7.496,7.5128,7.5074,7.5045,7.5042,7.5042,7.4872,7.4872,7.4872,7.4872,7.5017,7.5301,7.5614,7.5554,7.5725,7.6035,7.575,7.5668,7.6125,7.6208,7.6771,7.6774,7.6774,7.635,7.4788,7.3196,7.0121,6.7112,6.3923,5.9683,5.6828,5.6599,5.6824,5.7096,5.7437,5.7604,5.7646,5.7904,5.7904,5.7904,5.7904,5.7904,5.7904,5.7904,5.789,5.7841,5.7799,5.7514,5.7278,5.7347,5.7514,5.764,5.7619,5.7625,5.7604,5.7556,5.773,5.7904,5.7695,5.7479,5.7311,5.7117,5.6859,5.6566,5.6217,5.5887,5.5558,5.5427,5.5385,5.5306,9.0597,9.0322,8.909,8.8233,8.7709,8.7684,8.7684,8.7684,8.7684,8.7784,8.8008,8.8524,8.8882,8.8965,8.9248,8.9132,8.7996,8.5259,8.2669,8.0312,7.7812,7.6106,7.4973,7.4872,7.4872,7.4872,7.4872,7.4872,7.4872,7.4872,7.4872,7.4872,7.4872,7.4872,7.4872,7.4872,7.4872,7.4872,7.4872,7.4872,7.4872,7.4872,7.4872,7.4872,7.4872,7.49,7.49,7.4847,7.4872,7.4872,7.4872,7.4872,7.4872,7.4872,7.4872,7.4929,7.5241,7.5241,7.5185,7.5298,7.5412,7.5074,7.5185,7.5415,7.5784,7.6433,7.68,7.6857,7.6177,7.4405,7.2186,6.858,6.5126,6.1827,5.8415,5.7274,5.616,5.6384,5.6587,5.6859,5.7104,5.7403,5.7772,5.7904,5.7904,5.7904,5.7904,5.7904,5.7904,5.7883,5.7862,5.7772,5.7472,5.741,5.7514,5.7646,5.7577,5.7535,5.7493,5.7368,5.7215,5.7284,5.7353,5.7563,5.7841,5.7695,5.7479,5.7257,5.7006,5.6719,5.6369,5.595,5.5783,5.561,5.5469,8.9573,8.8957,8.8108,8.7775,8.7684,8.7684,8.7684,8.7684,8.7684,8.8066,8.859,8.8782,8.9024,8.884,8.8774,8.8634,8.686,8.4679,8.217,8.0963,7.7917,7.6156,7.5175,7.4872,7.4872,7.4872,7.4872,7.4872,7.4872,7.4872,7.4872,7.4872,7.4872,7.4872,7.4872,7.4872,7.4872,7.4872,7.4872,7.4872,7.4872,7.4872,7.4872,7.4872,7.4872,7.4872,7.4872,7.4872,7.4872,7.4872,7.4872,7.4872,7.4872,7.4872,7.4872,7.4957,7.4986,7.4957,7.4986,7.5014,7.4932,7.5131,7.5358,7.5725,7.6151,7.6717,7.7001,7.7087,7.6074,7.4405,7.0924,6.7237,6.3485,5.9988,5.7672,5.6366,5.5725,5.5872,5.6139,5.6468,5.6776,5.7347,5.7667,5.7904,5.7904,5.7904,5.7904,5.7904,5.7904,5.7904,5.7904,5.7856,5.7709,5.7667,5.7757,5.7688,5.7577,5.7403,5.732,5.7215,5.7173,5.7006,5.6844,5.7165,5.7527,5.7611,5.7653,5.7368,5.7089,5.697,5.6782,5.6369,5.6118,5.5945,5.5777,8.9032,8.8748,8.7975,8.7684,8.7684,8.7684,8.7684,8.7684,8.7684,8.7784,8.8191,8.8649,8.8186,8.7565,8.748,8.6658,8.5151,8.2857,8.102,7.9235,7.6886,7.5907,7.5302,7.4872,7.4872,7.4872,7.4872,7.4872,7.4872,7.4872,7.4872,7.4872,7.4872,7.4872,7.4872,7.4872,7.4872,7.4872,7.4872,7.4872,7.4872,7.4872,7.4872,7.4872,7.4872,7.4872,7.4872,7.4872,7.4872,7.4872,7.4872,7.4872,7.4872,7.4872,7.4872,7.4872,7.4872,7.4872,7.4872,7.4872,7.5128,7.5358,7.5642,7.6179,7.6689,7.6944,7.7087,7.6975,7.5749,7.3927,6.9877,6.5906,6.2117,5.8353,5.6855,5.5385,5.5291,5.5396,5.5683,5.6034,5.6557,5.7144,5.7563,5.7751,5.7904,5.7904,5.7904,5.7883,5.7841,5.7883,5.7904,5.782,5.7799,5.7862,5.7862,5.782,5.7625,5.7403,5.732,5.7257,5.7152,5.7027,5.6922,5.7033,5.7186,5.7269,5.7326,5.72,5.7215,5.7347,5.7242,5.6844,5.6572,5.6357,5.6106,8.8715,8.8457,8.7909,8.7684,8.7684,8.7684,8.7684,8.7684,8.7684,8.7842,8.8042,8.859,8.7845,8.5941,8.6129,8.4729,8.2752,8.0624,7.9229,7.812,7.7113,7.5781,7.5074,7.4872,7.4872,7.4872,7.4872,7.4872,7.4872,7.4872,7.4872,7.4872,7.4872,7.4872,7.4872,7.4872,7.4872,7.4872,7.4872,7.4872,7.4872,7.4872,7.4872,7.4872,7.4872,7.4872,7.4872,7.4872,7.4872,7.4872,7.4872,7.4872,7.4872,7.4872,7.4872,7.4872,7.4872,7.4872,7.4875,7.4992,7.5273,7.5668,7.6236,7.6888,7.7312,7.7371,7.7001,7.6518,7.5605,7.324,6.9741,6.635,6.2914,5.9403,5.6659,5.56,5.5228,5.5312,5.5333,5.5746,5.6306,5.694,5.7667,5.7904,5.7904,5.7904,5.7883,5.7799,5.7757,5.7841,5.7862,5.7674,5.7674,5.7862,5.7904,5.7862,5.7646,5.7451,5.7403,5.734,5.7194,5.7048,5.6985,5.6949,5.6892,5.6913,5.697,5.7131,5.7194,5.7361,5.7451,5.7236,5.7027,5.6776,5.6531,8.8391,8.7751,8.7684,8.7684,8.7684,8.7684,8.7684,8.7684,8.7684,8.7992,8.8591,8.8409,8.7073,8.6269,8.5532,8.379,8.1572,8.0776,7.9261,7.8022,7.7062,7.6185,7.5302,7.4872,7.4872,7.4872,7.4872,7.4872,7.4872,7.4872,7.4872,7.4872,7.4872,7.4872,7.4872,7.4872,7.4872,7.4872,7.4872,7.4872,7.4872,7.4872,7.4872,7.4872,7.4872,7.4872,7.4872,7.4872,7.4872,7.4872,7.4872,7.4872,7.4872,7.4872,7.4872,7.4872,7.4872,7.4929,7.4989,7.5443,7.5753,7.6262,7.6944,7.7454,7.7596,7.717,7.666,7.6035,7.5395,7.2632,6.9836,6.6686,6.3519,6.0229,5.6965,5.5836,5.5364,5.5228,5.5228,5.5605,5.6165,5.6878,5.7653,5.7877,5.7904,5.7904,5.7883,5.7799,5.7778,5.7862,5.7799,5.7611,5.7625,5.7814,5.7883,5.7862,5.7709,5.7688,5.7598,5.7514,5.72,5.7012,5.6985,5.6907,5.671,5.6563,5.6578,5.674,5.7006,5.7242,5.7353,5.7165,5.6824,5.6746,5.6614,8.7884,8.7684,8.7684,8.7684,8.7684,8.7684,8.7684,8.7684,8.766,8.6998,8.6233,8.6018,8.4466,8.1904,8.0652,7.9556,7.7582,7.7197,7.6286,7.6156,7.6005,7.563,7.515,7.4872,7.4872,7.4872,7.4872,7.4872,7.4872,7.4872,7.4872,7.4872,7.4872,7.4872,7.4872,7.4872,7.4872,7.4872,7.4872,7.4872,7.4872,7.4872,7.4872,7.4872,7.4872,7.4872,7.4872,7.4872,7.4872,7.4872,7.4872,7.4872,7.4872,7.4872,7.4872,7.4872,7.49,7.5099,7.5355,7.5781,7.6322,7.6831,7.7397,7.7738,7.7625,7.68,7.6177,7.5696,7.5216,7.2953,7.0193,6.6892,6.3727,6.0463,5.7675,5.594,5.5411,5.5296,5.5312,5.5699,5.6264,5.7003,5.7695,5.7778,5.7904,5.7904,5.7904,5.7835,5.7772,5.782,5.7799,5.7604,5.7535,5.7667,5.7709,5.7793,5.7856,5.7877,5.7835,5.7793,5.7479,5.7138,5.7054,5.697,5.6557,5.6243,5.6201,5.6222,5.6453,5.6683,5.6899,5.6815,5.6668,5.6516,5.6405,8.7684,8.7684,8.7684,8.7684,8.7684,8.7684,8.7684,8.7553,8.6817,8.5406,8.385,8.4369,8.2188,7.9245,7.8202,7.7297,7.5431,7.4872,7.4872,7.4922,7.5024,7.4872,7.4872,7.4872,7.4872,7.4872,7.4872,7.4872,7.4872,7.4872,7.4872,7.4872,7.4872,7.4872,7.4872,7.4872,7.4872,7.4872,7.4872,7.4872,7.4872,7.4872,7.4872,7.4872,7.4872,7.4872,7.4872,7.4872,7.4872,7.4872,7.4872,7.4872,7.4872,7.4872,7.4872,7.4872,7.5185,7.5383,7.5668,7.6376,7.6888,7.734,7.7682,7.7511,7.7113,7.6205,7.5781,7.5386,7.5017,7.4118,7.1595,6.8634,6.6044,6.2664,5.8971,5.7192,5.6021,5.5858,5.5579,5.6013,5.6399,5.7165,5.7521,5.7625,5.7814,5.7904,5.7904,5.7835,5.764,5.7667,5.7778,5.7535,5.7472,5.7514,5.7625,5.7793,5.7904,5.7883,5.7883,5.7841,5.764,5.7361,5.7179,5.6872,5.6384,5.5918,5.5861,5.5845,5.5977,5.5977,5.6045,5.6003,5.5998,5.6013,5.6049,8.7684,8.7684,8.7684,8.7611,8.7414,8.7586,8.7455,8.7038,8.5529,8.3472,8.161,8.2983,8.1492,7.8524,7.7519,7.6513,7.5099,7.4872,7.4872,7.4872,7.4872,7.4872,7.4872,7.4872,7.4872,7.4872,7.4872,7.4872,7.4872,7.4872,7.4872,7.4872,7.4872,7.4872,7.4872,7.4872,7.4872,7.4872,7.4872,7.4872,7.4872,7.4872,7.4872,7.4872,7.4872,7.4872,7.4872,7.4872,7.4872,7.4872,7.4872,7.4872,7.4929,7.4929,7.5014,7.5042,7.5526,7.581,7.5949,7.7084,7.7454,7.7568,7.7312,7.703,7.6179,7.5725,7.5497,7.5128,7.4903,7.4669,7.3628,7.1775,6.9787,6.6633,6.1849,5.9071,5.7871,5.7246,5.6571,5.6495,5.6865,5.7194,5.7368,5.7556,5.7814,5.7904,5.7904,5.7751,5.7493,5.7514,5.7667,5.7556,5.7535,5.7556,5.7535,5.7751,5.7862,5.7862,5.7778,5.7611,5.7416,5.732,5.7096,5.6773,5.6432,5.6222,5.5887,5.551,5.5537,5.5579,5.5458,5.5458,5.5411,5.5469,5.5631,8.7684,8.7684,8.7684,8.6817,8.5529,8.548,8.548,8.5357,8.4715,8.2611,7.917,7.9546,7.8394,7.6458,7.5857,7.5327,7.5074,7.4872,7.4872,7.4872,7.4872,7.4872,7.4872,7.4872,7.4872,7.4872,7.4872,7.4872,7.4872,7.4872,7.4872,7.4872,7.4872,7.4872,7.4872,7.4872,7.4872,7.4872,7.4872,7.4872,7.4872,7.4872,7.4872,7.4872,7.4872,7.4872,7.4872,7.4872,7.4872,7.4929,7.4929,7.49,7.5017,7.5188,7.5443,7.5753,7.6091,7.6489,7.6714,7.7198,7.7511,7.7143,7.6802,7.6319,7.581,7.5358,7.5213,7.4872,7.4872,7.4821,7.4594,7.2366,7.043,6.8124,6.3511,6.0571,5.9421,5.7744,5.7212,5.6934,5.7075,5.732,5.7514,5.7751,5.7904,5.7904,5.7904,5.7772,5.7577,5.7598,5.7688,5.7646,5.7646,5.7583,5.7493,5.7535,5.7598,5.7604,5.7437,5.729,5.7227,5.7215,5.7027,5.6677,5.6474,5.6438,5.6082,5.5558,5.5327,5.5249,5.527,5.5312,5.5285,5.5306,5.5406,8.7243,8.6399,8.5529,8.4436,8.3298,8.3273,8.3273,8.3174,8.2437,8.0819,7.9421,7.8423,7.6916,7.5377,7.4872,7.4872,7.4872,7.4872,7.4872,7.4872,7.4872,7.4872,7.4872,7.4872,7.4872,7.4872,7.4872,7.4872,7.4872,7.4872,7.4872,7.4872,7.4872,7.4872,7.4872,7.4872,7.4872,7.4872,7.4872,7.4872,7.4872,7.4872,7.4872,7.4872,7.4872,7.4872,7.4872,7.4872,7.5014,7.5156,7.5241,7.5443,7.5699,7.5983,7.6151,7.6236,7.6802,7.7113,7.7283,7.7226,7.72,7.6689,7.6179,7.5671,7.5358,7.5102,7.49,7.4872,7.4872,7.4872,7.4881,7.3216,7.075,6.7914,6.5134,6.2303,6.0177,5.8093,5.7187,5.738,5.75,5.7514,5.7709,5.7904,5.7904,5.7904,5.7904,5.7877,5.7835,5.7835,5.7799,5.7778,5.7772,5.773,5.7709,5.7535,5.7382,5.7242,5.7075,5.6955,5.683,5.6838,5.6707,5.6566,5.6321,5.6076,5.5809,5.5474,5.5333,5.5249,5.5228,5.5207,5.5207,5.5228,5.5291,8.612,8.3949,8.1958,8.1107,8.1032,8.1063,8.1063,8.0938,7.9145,7.922,7.954,7.8669,7.6534,7.5276,7.4872,7.4872,7.4872,7.4872,7.4872,7.4872,7.4872,7.4872,7.4872,7.4872,7.4872,7.4872,7.4872,7.4872,7.4872,7.4872,7.4872,7.4872,7.4872,7.4872,7.4872,7.4872,7.4872,7.4872,7.4872,7.4872,7.4872,7.4872,7.4872,7.4872,7.4872,7.49,7.4929,7.5014,7.5241,7.5867,7.5867,7.6037,7.6151,7.6464,7.6489,7.6546,7.6999,7.7286,7.7226,7.7001,7.6745,7.6518,7.6091,7.544,7.5074,7.49,7.4872,7.4872,7.4872,7.49,7.5131,7.4979,7.3316,7.0823,6.8256,6.5077,6.1901,5.9654,5.8655,5.8135,5.7835,5.7772,5.7904,5.7904,5.7904,5.7904,5.7904,5.7904,5.7904,5.7904,5.7862,5.7862,5.7904,5.7904,5.7835,5.7583,5.7242,5.7012,5.6698,5.6536,5.6411,5.6217,5.6085,5.6002,5.6064,5.572,5.539,5.5354,5.527,5.5228,5.5207,5.5207,5.5207,5.5207,5.5207,8.3156,7.9721,7.9145,7.892,7.8945,7.8945,7.892,7.887,7.8243,7.7465,7.6534,7.6005,7.5475,7.4894,7.4872,7.4872,7.4872,7.4872,7.4872,7.4872,7.4872,7.4872,7.4872,7.4872,7.4872,7.4872,7.4872,7.4872,7.4872,7.4872,7.4872,7.4872,7.4872,7.4872,7.4872,7.4872,7.4872,7.4872,7.4872,7.49,7.4929,7.49,7.49,7.4929,7.4929,7.5099,7.5497,7.5526,7.581,7.6293,7.6378,7.6236,7.629,7.6575,7.6632,7.6433,7.6601,7.6916,7.6745,7.6435,7.6148,7.5867,7.5443,7.5128,7.4872,7.4872,7.4872,7.4872,7.4872,7.5128,7.5469,7.5696,7.4377,7.2713,7.1089,6.7508,6.4266,6.2826,6.1756,6.0353,5.9004,5.8619,5.8674,5.8317,5.8124,5.8042,5.7904,5.7904,5.7904,5.7904,5.7883,5.7883,5.7904,5.7904,5.7793,5.7542,5.7102,5.674,5.6327,5.6055,5.5866,5.5672,5.5652,5.5709,5.5834,5.561,5.5432,5.5333,5.5207,5.5207,5.5207,5.5207,5.5207,5.5207,5.5207,7.9796,7.6735,7.6689,7.6685,7.6714,7.6714,7.6739,7.6714,7.6689,7.5954,7.5024,7.4872,7.4872,7.4897,7.4872,7.4872,7.4872,7.4872,7.4872,7.4872,7.4872,7.4872,7.4872,7.4872,7.4872,7.4872,7.4872,7.4872,7.4872,7.4872,7.4872,7.4872,7.4872,7.4872,7.4872,7.4872,7.4872,7.4872,7.49,7.496,7.5185,7.5298,7.5412,7.5671,7.5415,7.5497,7.5611,7.5611,7.5725,7.6208,7.6376,7.6236,7.6376,7.6489,7.6634,7.6179,7.6123,7.6006,7.5978,7.5611,7.544,7.5244,7.5074,7.4872,7.4872,7.4872,7.4872,7.4872,7.4872,7.5156,7.5665,7.6063,7.472,7.3462,7.2436,6.9275,6.7021,6.5762,6.4318,6.2132,6.0353,6.0737,6.0956,6.0682,6.049,5.9525,5.8399,5.8399,5.8372,5.8097,5.7904,5.7904,5.7904,5.7904,5.7751,5.7667,5.7269,5.6865,5.6426,5.607,5.5699,5.5411,5.5432,5.5516,5.5589,5.5589,5.549,5.5369,5.5228,5.5207,5.5207,5.5207,5.5207,5.5207,5.5207,7.6755,7.4957,7.49,7.4872,7.4948,7.4998,7.4948,7.4973,7.5049,7.4872,7.4872,7.4872,7.4872,7.4872,7.4872,7.4872,7.4872,7.4872,7.4872,7.4872,7.4872,7.4872,7.4872,7.4872,7.4872,7.4872,7.4872,7.4872,7.4872,7.4872,7.4872,7.4872,7.4872,7.4872,7.4872,7.4872,7.4872,7.4847,7.4932,7.5159,7.55,7.5529,7.5838,7.6063,7.5867,7.5614,7.5671,7.5469,7.5472,7.598,7.6035,7.6205,7.6546,7.6686,7.666,7.6208,7.5611,7.4872,7.4986,7.5014,7.4986,7.496,7.4875,7.4872,7.4872,7.4872,7.4872,7.4872,7.5014,7.5355,7.6006,7.6518,7.5655,7.4765,7.4433,7.2483,6.9874,6.8765,6.7278,6.5297,6.5487,6.5052,6.3746,6.331,6.2683,6.0518,5.8921,5.8949,5.8839,5.8262,5.7932,5.7904,5.7904,5.7904,5.7793,5.7814,5.7521,5.7158,5.6782,5.6426,5.5965,5.5526,5.5453,5.5396,5.5411,5.5427,5.539,5.5333,5.5249,5.5207,5.5207,5.5207,5.5207,5.5207,5.5207,7.5994,7.5582,7.5071,7.4872,7.4872,7.4872,7.4872,7.4872,7.4872,7.4872,7.4872,7.4872,7.4872,7.4872,7.4872,7.4872,7.4872,7.4872,7.4872,7.4872,7.4872,7.4872,7.4872,7.4872,7.4872,7.4872,7.4872,7.4872,7.4872,7.4872,7.4872,7.4872,7.4872,7.4872,7.49,7.4929,7.4872,7.5014,7.5298,7.5327,7.5128,7.5017,7.5102,7.5185,7.5102,7.5355,7.5753,7.5554,7.5784,7.6179,7.6378,7.6347,7.6066,7.598,7.5753,7.5273,7.5014,7.4872,7.4872,7.4872,7.4872,7.4872,7.4872,7.4872,7.4872,7.4872,7.4872,7.4932,7.5241,7.5838,7.6433,7.7115,7.7268,7.7036,7.7048,7.6467,7.3634,7.2024,7.0626,7.033,7.0842,6.9791,6.7684,6.6898,6.6356,6.4372,6.2574,6.2405,6.0627,5.969,5.8674,5.8427,5.7904,5.7904,5.7904,5.7904,5.7688,5.7368,5.7054,5.6713,5.6232,5.5777,5.5573,5.5479,5.5474,5.549,5.5333,5.5228,5.5207,5.5207,5.5207,5.5207,5.5207,5.5207,5.5207,7.5835,7.5779,7.5102,7.4872,7.4872,7.4872,7.4872,7.4872,7.4872,7.4872,7.4872,7.4872,7.4872,7.4872,7.4872,7.4872,7.4872,7.4872,7.4872,7.4872,7.4872,7.4872,7.4872,7.4872,7.4872,7.4872,7.4872,7.4872,7.4872,7.4872,7.4872,7.4872,7.4872,7.4872,7.49,7.5074,7.5156,7.4989,7.5412,7.5523,7.4957,7.5241,7.5554,7.5611,7.5585,7.5526,7.575,7.5582,7.5526,7.5807,7.5892,7.5639,7.5415,7.5301,7.5188,7.4986,7.4872,7.4872,7.4872,7.4872,7.4872,7.4872,7.4872,7.4872,7.4872,7.4872,7.4872,7.5014,7.544,7.6066,7.6717,7.7369,7.8023,7.8561,7.8599,7.772,7.6547,7.6093,7.5185,7.4356,7.4436,7.3473,7.1461,7.0438,6.9845,6.8468,6.663,6.4862,6.2924,6.1585,6.0189,5.936,5.7932,5.7904,5.7904,5.7904,5.7751,5.7556,5.7326,5.6985,5.6587,5.6321,5.6055,5.5809,5.5663,5.5699,5.5537,5.5375,5.527,5.5207,5.5207,5.5207,5.5207,5.5207,5.5207,7.6421,7.5753,7.5102,7.4872,7.4818,7.473,7.4673,7.4676,7.4527,7.4584,7.4531,7.4619,7.4673,7.4704,7.4758,7.4872,7.4872,7.4872,7.4872,7.4872,7.4872,7.4872,7.4872,7.4872,7.4872,7.4872,7.4872,7.4872,7.4872,7.4872,7.4872,7.4872,7.4872,7.4989,7.5131,7.5301,7.527,7.5216,7.5554,7.5443,7.5131,7.5358,7.5841,7.5978,7.5639,7.5526,7.5469,7.5128,7.4872,7.4872,7.4872,7.49,7.4929,7.4929,7.4929,7.4872,7.4872,7.4872,7.4872,7.4872,7.4872,7.4872,7.4872,7.4872,7.4872,7.4872,7.4872,7.4986,7.5355,7.5952,7.6717,7.7568,7.8191,7.8533,7.8704,7.8544,7.8381,7.7997,7.7401,7.6933,7.731,7.7099,7.5451,7.4196,7.3714,7.2749,6.9494,6.6302,6.5297,6.4182,6.2077,6.0046,5.8372,5.8179,5.7904,5.7904,5.7883,5.7688,5.7583,5.7263,5.6964,5.6761,5.6635,5.6426,5.6258,5.6049,5.5783,5.5579,5.5474,5.5432,5.5333,5.5207,5.5207,5.5207,5.5207,7.9037,7.5779,7.5128,7.4872,7.4787,7.4507,7.4412,7.4148,7.3582,7.3667,7.3468,7.3977,7.4265,7.4293,7.4613,7.4815,7.4815,7.4761,7.473,7.4758,7.4758,7.4787,7.4872,7.4872,7.4872,7.4872,7.4872,7.4872,7.4872,7.4872,7.4872,7.4872,7.4872,7.5099,7.5412,7.5327,7.527,7.5469,7.5668,7.5472,7.5045,7.5412,7.5472,7.5412,7.5128,7.5099,7.5071,7.4957,7.4872,7.4872,7.4872,7.4872,7.4872,7.4872,7.4872,7.4818,7.473,7.4673,7.4616,7.473,7.4758,7.4872,7.4815,7.4815,7.4758,7.4676,7.4673,7.4787,7.49,7.5381,7.666,7.7596,7.8334,7.859,7.8675,7.8704,7.8533,7.771,7.7568,7.7767,7.7863,7.8011,7.7441,7.6999,7.7266,7.6494,7.1514,6.8062,6.7954,6.6898,6.3664,6.123,5.9854,5.9333,5.8207,5.7904,5.7862,5.7778,5.782,5.75,5.7152,5.697,5.6782,5.6755,5.6587,5.6447,5.6181,5.572,5.5531,5.5678,5.5537,5.5181,5.5144,5.5207,5.5207,8.2987,7.9485,8.0928,7.8985,7.5569,7.6962,7.6594,7.4712,7.4101,7.4016,7.4016,7.4005,7.4062,7.4062,7.398,7.3955,7.3927,7.3902,7.4098,7.4385,7.4442,7.4588,7.4758,7.4872,7.4872,7.4872,7.4843,7.4872,7.4872,7.4872,7.4843,7.4872,7.5213,7.5381,7.5241,7.5725,7.5665,7.5497,7.5582,7.5472,7.4986,7.5156,7.5099,7.4903,7.4872,7.4872,7.4872,7.4872,7.4872,7.4812,7.4584,7.441,7.441,7.4126,7.4126,7.4268,7.4129,7.3902,7.3927,7.3927,7.3984,7.3898,7.3898,7.3927,7.3927,7.3902,7.3927,7.3902,7.4041,7.4439,7.5639,7.6944,7.7568,7.7655,7.7682,7.7708,7.7622,7.7172,7.6944,7.7172,7.7511,7.7852,7.8248,7.8109,7.8194,7.8013,7.3258,7.2105,7.189,6.9629,6.6112,6.361,6.1913,6.0019,5.8784,5.8076,5.8143,5.782,5.782,5.7514,5.7152,5.7012,5.6886,5.6572,5.63,5.6258,5.6285,5.572,5.5364,5.5385,5.528,5.5071,5.495,5.4976,5.4997,8.7121,8.3588,8.6284,8.3528,7.8296,7.9658,7.8787,7.5508,7.4494,7.382,7.4129,7.3977,7.3891,7.4034,7.381,7.3468,7.3671,7.3724,7.3749,7.4208,7.4208,7.4471,7.4758,7.4872,7.4872,7.479,7.4733,7.4644,7.467,7.4613,7.4673,7.4755,7.5071,7.5412,7.5213,7.5807,7.5838,7.5301,7.5383,7.5273,7.4903,7.49,7.49,7.4872,7.4872,7.4872,7.4872,7.4872,7.473,7.4445,7.4183,7.4094,7.4066,7.3785,7.3923,7.4151,7.3842,7.3497,7.3379,7.3436,7.3294,7.3265,7.3265,7.3094,7.3094,7.318,7.3151,7.3094,7.3123,7.3728,7.4875,7.6063,7.6774,7.6918,7.6916,7.68,7.6433,7.6347,7.6347,7.6603,7.6973,7.7454,7.7738,7.8248,7.8478,7.8542,7.7507,7.6521,7.4704,7.2642,6.9953,6.7494,6.5025,6.164,6.0244,5.8982,5.8452,5.7778,5.7667,5.7431,5.7033,5.6803,5.6746,5.6474,5.6091,5.616,5.6285,5.5783,5.54,5.5134,5.4945,5.4799,5.4694,5.4699,5.4746,9.0706,8.6947,8.7371,8.6573,8.4465,8.1201,7.9456,7.7123,7.3923,7.2378,7.2614,7.3013,7.3407,7.4087,7.3927,7.4474,7.442,7.4101,7.4389,7.4385,7.4556,7.4531,7.4644,7.4616,7.4644,7.4591,7.4322,7.4233,7.4236,7.4236,7.4179,7.4436,7.4815,7.5185,7.5469,7.5324,7.5355,7.5415,7.5216,7.496,7.49,7.4872,7.4815,7.4787,7.4758,7.4758,7.4701,7.4701,7.4385,7.3326,7.3778,7.4005,7.4066,7.4496,7.4613,7.4531,7.4357,7.4098,7.4002,7.3774,7.3635,7.318,7.3094,7.3094,7.3009,7.2981,7.2952,7.2867,7.3066,7.3443,7.4527,7.5838,7.6378,7.6549,7.6717,7.6205,7.5383,7.5042,7.527,7.581,7.6006,7.666,7.7286,7.7852,7.8106,7.8567,7.7213,7.6894,7.6494,7.4571,7.2588,7.0653,6.7494,6.3692,6.1804,6.0101,5.9137,5.7764,5.768,5.7299,5.6949,5.6746,5.6668,5.6438,5.6049,5.5986,5.6076,5.5971,5.5688,5.5379,5.5008,5.471,5.4474,5.4589,5.4788,9.4881,9.1247,9.3705,9.17,8.7138,8.6981,8.4015,7.9533,7.6651,7.4701,7.29,7.2639,7.2696,7.2895,7.2789,7.2712,7.2683,7.2708,7.274,7.2878,7.3557,7.3817,7.3817,7.3813,7.3817,7.3813,7.3977,7.4034,7.4062,7.4382,7.4496,7.4556,7.5099,7.5301,7.5327,7.5295,7.5412,7.5213,7.5042,7.4872,7.4872,7.4872,7.4701,7.4385,7.4382,7.4154,7.3845,7.3842,7.3813,7.3753,7.3863,7.4034,7.4009,7.3614,7.3642,7.435,7.3642,7.3386,7.3436,7.3493,7.3326,7.3127,7.3094,7.2924,7.2614,7.2554,7.2301,7.205,7.1936,7.2391,7.3191,7.4069,7.4869,7.5665,7.6347,7.652,7.6066,7.5867,7.6094,7.635,7.6717,7.7226,7.7598,7.8108,7.8448,7.8302,7.7027,7.764,7.8093,7.6334,7.449,7.3017,7.0465,6.7061,6.4699,6.2514,6.1108,5.854,5.7838,5.7257,5.6943,5.6761,5.6516,5.6181,5.5945,5.5756,5.5594,5.5495,5.551,5.5484,5.5107,5.4814,5.4689,5.4694,5.4887,9.7516,9.5136,9.8011,9.5777,9.0875,9.1177,8.8311,8.3034,7.9932,7.6639,7.4575,7.2866,7.2297,7.233,7.1936,7.1675,7.1879,7.1846,7.1651,7.1794,7.2582,7.2785,7.2842,7.3009,7.3123,7.3208,7.3603,7.3831,7.3834,7.4268,7.4556,7.4644,7.5128,7.527,7.4986,7.5298,7.527,7.4929,7.4872,7.4815,7.4644,7.4613,7.4354,7.3891,7.4002,7.3834,7.3436,7.3468,7.361,7.3383,7.3436,7.3575,7.3432,7.2924,7.2952,7.355,7.2956,7.2586,7.2785,7.2814,7.2728,7.2614,7.2468,7.2358,7.1879,7.1875,7.1623,7.1286,7.1144,7.1481,7.2074,7.2643,7.3504,7.4644,7.5437,7.5921,7.6063,7.6265,7.6376,7.6546,7.6831,7.7229,7.7627,7.808,7.8421,7.8647,7.8491,7.8651,7.8599,7.7454,7.6787,7.5346,7.3339,7.0168,6.7386,6.4998,6.2355,5.9686,5.8221,5.7762,5.7221,5.6991,5.6551,5.6139,5.6154,5.6133,5.5809,5.5542,5.5411,5.5552,5.5301,5.5175,5.5008,5.4752,5.4945,9.7593,9.7371,9.7662,9.723,9.6145,9.2456,9.0207,8.8158,8.1449,7.7904,7.6794,7.4029,7.2623,7.2891,7.259,7.2582,7.2899,7.2643,7.2582,7.2529,7.233,7.2163,7.2245,7.2667,7.2838,7.2924,7.3148,7.3184,7.3269,7.3948,7.4066,7.4265,7.4755,7.4875,7.4875,7.49,7.4903,7.4872,7.4872,7.4616,7.4233,7.4151,7.3866,7.3347,7.3745,7.3891,7.3806,7.4098,7.3507,7.1794,7.224,7.2501,7.2391,7.2757,7.2924,7.3123,7.3123,7.27,7.233,7.2387,7.2159,7.1761,7.1704,7.1225,7.1424,7.1452,7.1367,7.1172,7.1144,7.1395,7.1879,7.2216,7.3017,7.4414,7.4524,7.4638,7.49,7.5099,7.5554,7.5921,7.598,7.635,7.7627,7.7826,7.8222,7.8506,7.8704,7.8704,7.8704,7.8706,7.8571,7.7348,7.5479,7.2776,7.0626,6.7981,6.4018,6.1431,5.9357,5.851,5.7646,5.7368,5.6985,5.6746,5.6626,5.6563,5.6396,5.6297,5.6144,5.595,5.5741,5.5558,5.5301,5.4961,5.4898,9.758,9.758,9.758,9.758,9.7198,9.4637,9.2264,8.9815,8.5697,8.147,7.7845,7.5877,7.4124,7.221,7.185,7.1875,7.185,7.185,7.1875,7.1794,7.1566,7.1509,7.1566,7.1765,7.185,7.1964,7.27,7.3094,7.3151,7.4041,7.4581,7.4556,7.4783,7.4872,7.4872,7.4872,7.4872,7.4872,7.4843,7.4758,7.4584,7.4556,7.4293,7.3774,7.3546,7.3265,7.2899,7.3415,7.3326,7.2614,7.2558,7.27,7.27,7.2529,7.2643,7.2895,7.2753,7.2582,7.2753,7.259,7.2586,7.2444,7.2358,7.2188,7.1818,7.1737,7.1485,7.1229,7.1144,7.1253,7.1485,7.1822,7.2586,7.3618,7.3553,7.387,7.4701,7.5213,7.5668,7.6205,7.6714,7.7226,7.7738,7.8023,7.845,7.8618,7.8704,7.8704,7.8704,7.8704,7.8706,7.8146,7.6974,7.5533,7.3634,7.0034,6.5922,6.3256,6.049,5.8674,5.7904,5.7598,5.7493,5.7255,5.6961,5.6872,5.6584,5.6584,5.6584,5.6516,5.6306,5.595,5.551,5.517,5.4877,9.6782,9.6782,9.6805,9.6782,9.6592,9.5247,9.3491,9.1288,8.8482,8.4734,8.0239,7.7545,7.5125,7.2819,7.1261,7.0945,7.1111,7.0916,7.0855,7.0912,7.1058,7.1144,7.1144,7.1144,7.1144,7.1343,7.2472,7.3094,7.3322,7.4246,7.4872,7.4872,7.4872,7.4872,7.4872,7.4872,7.4872,7.4818,7.4673,7.4499,7.4328,7.4101,7.3699,7.3208,7.2952,7.2611,7.2135,7.2334,7.2472,7.244,7.2472,7.2472,7.2387,7.205,7.2021,7.2358,7.2021,7.2045,7.2391,7.2444,7.2387,7.2419,7.2444,7.2245,7.1879,7.1789,7.1566,7.1253,7.1144,7.1144,7.1201,7.159,7.196,7.2468,7.2671,7.3102,7.3735,7.4471,7.5295,7.6063,7.6745,7.7312,7.771,7.8023,7.8419,7.8647,7.8704,7.8704,7.8704,7.8704,7.8704,7.8704,7.8573,7.7587,7.4891,7.1568,6.8117,6.5487,6.123,5.7987,5.7904,5.7772,5.7793,5.7646,5.7326,5.7054,5.6731,5.6584,5.6584,5.6563,5.6285,5.5965,5.5693,5.5359,5.505,9.5133,9.5171,9.508,9.5133,9.5019,9.4047,9.3655,9.2664,8.8757,8.6544,8.4594,7.8801,7.6121,7.48,7.2157,7.0799,7.1228,7.0571,7.0177,7.0234,7.077,7.0997,7.0997,7.094,7.094,7.1054,7.2358,7.2981,7.3151,7.4186,7.4815,7.4843,7.4872,7.4815,7.4815,7.4758,7.4787,7.4641,7.4265,7.3778,7.3151,7.2728,7.2192,7.1623,7.1903,7.2078,7.2098,7.1538,7.1314,7.1257,7.1229,7.1192,7.1225,7.1111,7.1087,7.1139,7.1115,7.1115,7.1192,7.1192,7.1192,7.1168,7.1144,7.1192,7.1139,7.1168,7.1168,7.1139,7.1144,7.1144,7.1144,7.1168,7.1225,7.1229,7.1818,7.2131,7.2334,7.2757,7.3557,7.4641,7.5472,7.6347,7.7312,7.7767,7.8078,7.8504,7.8675,7.8704,7.8704,7.8704,7.8704,7.8704,7.8652,7.8571,7.6121,7.3152,7.0224,6.7039,6.1824,5.7904,5.7904,5.7904,5.7904,5.7619,5.7278,5.7054,5.6704,5.6417,5.6438,5.648,5.6019,5.5699,5.5531,5.5385,5.5092,9.5019,9.4943,9.4389,9.4117,9.3971,9.2636,9.237,9.2597,9.0603,8.8457,8.6401,8.4003,7.9929,7.5573,7.4014,7.3608,7.3501,7.0857,6.9645,6.965,6.9873,6.9959,6.9959,6.9959,6.9959,7.0101,7.0741,7.1875,7.3013,7.3923,7.4471,7.479,7.4872,7.4673,7.4354,7.4293,7.4091,7.3699,7.3493,7.3322,7.3123,7.292,7.2667,7.2415,7.1789,7.1428,7.1452,7.1282,7.1144,7.1087,7.0741,7.049,7.0433,7.0139,6.9935,6.9935,6.9982,6.9982,6.9982,6.9959,6.9959,6.9959,6.9963,7.0134,7.0409,7.049,7.0741,7.103,7.1144,7.1144,7.1058,7.0693,7.066,7.1111,7.1362,7.1452,7.1485,7.2021,7.2562,7.3187,7.4272,7.5185,7.581,7.6916,7.7682,7.8021,7.845,7.8704,7.8704,7.8704,7.8704,7.8704,7.8647,7.859,7.7444,7.2275,6.8005,6.6271,6.2152,5.9143,5.7904,5.7904,5.7793,5.7472,5.7173,5.6949,5.6635,5.6285,5.6285,5.6453,5.5866,5.5154,5.5259,5.5217,5.5055,9.5019,9.4943,9.4101,9.3525,9.313,9.1779,9.1324,9.1514,9.1004,8.9597,8.777,8.6279,8.3191,7.8636,7.712,7.5642,7.4035,7.0637,6.9065,6.9071,6.9293,6.9407,6.9407,6.9407,6.9407,6.9441,6.9712,7.0651,7.2041,7.2952,7.3553,7.3845,7.4076,7.4069,7.3778,7.3692,7.3546,7.3148,7.2838,7.2753,7.27,7.2501,7.2387,7.2334,7.1566,7.1144,7.1144,7.0888,7.0774,7.0774,7.0201,6.9883,6.9878,6.956,6.9407,6.9407,6.9407,6.9407,6.9407,6.9407,6.9407,6.9407,6.9407,6.9588,6.9798,6.9888,7.0054,7.0419,7.0504,7.0509,7.0424,7.0115,7.003,7.0476,7.0684,7.0803,7.0912,7.1367,7.185,7.222,7.302,7.4073,7.4727,7.6006,7.7113,7.7426,7.7964,7.8305,7.8362,7.8163,7.7938,7.7994,7.8023,7.8023,7.7997,7.1669,6.6759,6.5322,6.2575,5.8995,5.7883,5.7904,5.7583,5.7242,5.6713,5.6405,5.5872,5.5521,5.506,5.5186,5.4819,5.4359,5.4793,5.4531,5.4531,9.5019,9.4905,9.4101,9.3206,9.2392,9.1476,9.0695,9.0168,9.0033,8.9974,8.9368,8.6407,8.5023,8.4995,8.0864,7.7111,7.3755,7.0521,6.8986,6.8997,6.9119,6.9293,6.9345,6.9299,6.9293,6.9179,6.927,6.9622,7.0177,7.1395,7.2021,7.2216,7.2814,7.3041,7.3041,7.3066,7.3013,7.2814,7.2306,7.2074,7.1993,7.1509,7.1225,7.1144,7.1111,7.1026,7.0969,7.0485,7.0149,7.0149,6.9645,6.935,6.935,6.9299,6.9213,6.9265,6.9242,6.9293,6.9236,6.9185,6.9213,6.9265,6.9179,6.9247,6.9327,6.9304,6.9412,6.9464,6.9412,6.9355,6.9361,6.9361,6.9384,6.9503,6.9883,7.0092,7.0149,7.0689,7.1367,7.1794,7.2078,7.2675,7.3806,7.4979,7.5892,7.666,7.7198,7.7539,7.7428,7.7115,7.6859,7.6831,7.6859,7.6696,7.5807,6.9963,6.661,6.4742,6.1016,5.7165,5.7563,5.7757,5.7395,5.6949,5.6211,5.5589,5.5144,5.4709,5.4269,5.3866,5.3589,5.3626,5.4077,5.384,5.4075,9.5019,9.4928,9.4041,9.2842,9.1476,9.0678,9.0206,8.9995,8.9995,8.9995,8.9851,8.8919,8.8578,8.8132,8.4601,8.2333,8.0499,7.4681,7.1796,7.1563,6.9068,6.7976,6.7999,6.7976,6.7976,6.8085,6.8478,6.8786,6.9024,7.0115,7.1196,7.2017,7.2301,7.2387,7.2411,7.2362,7.2159,7.1708,7.1509,7.1395,7.1395,7.1225,7.0916,7.0466,7.0433,7.0258,6.9902,6.9726,6.9617,6.9588,6.9042,6.8677,6.8649,6.8227,6.7976,6.7976,6.7976,6.7954,6.7976,6.7976,6.7976,6.7976,6.7999,6.8193,6.8586,6.87,6.89,6.9185,6.8512,6.8233,6.8597,6.8654,6.89,6.935,6.9498,6.9588,6.9645,7.0087,7.0518,7.0741,7.1139,7.1737,7.2586,7.3721,7.4894,7.5779,7.5838,7.5753,7.6177,7.6208,7.6066,7.6066,7.6489,7.5524,7.2045,6.7082,6.3006,6.1208,5.9425,5.6249,5.5935,5.6003,5.5809,5.5965,5.5228,5.4569,5.3914,5.3984,5.3824,5.3379,5.2993,5.2901,5.3508,5.3777,5.4075,9.4829,9.4487,9.3927,9.2728,9.115,9.0337,8.9995,8.9995,8.9995,8.9995,8.9995,8.9995,8.9995,8.9745,8.6039,8.4342,8.3931,7.8138,7.4625,7.2884,7.0842,6.8935,6.7607,6.7447,6.7447,6.7498,6.7857,6.8005,6.8147,6.8722,6.9551,7.0533,7.0879,7.113,7.131,7.131,7.1282,7.1144,7.1144,7.0907,7.0504,7.0447,7.0224,6.9911,6.9854,6.9702,6.9436,6.9151,6.8985,6.8933,6.8341,6.8028,6.8028,6.7413,6.7163,6.7442,6.7191,6.7163,6.7419,6.7191,6.7163,6.7447,6.7242,6.7305,6.7942,6.8005,6.8056,6.8113,6.7498,6.7305,6.7925,6.801,6.8193,6.8535,6.882,6.8985,6.9037,6.948,6.9854,6.9859,7.0371,7.0916,7.1367,7.2245,7.344,7.4723,7.5298,7.5301,7.5383,7.5412,7.5327,7.521,7.5608,7.466,7.2403,6.6707,6.3433,6.182,5.8806,5.5988,5.5788,5.5615,5.5259,5.4877,5.4505,5.386,5.2671,5.2537,5.2761,5.1777,5.1453,5.25,5.3357,5.3345,5.2451,9.4845,9.4057,9.4079,9.2934,9.1416,9.0413,8.9995,8.9995,8.9995,8.9995,8.9995,8.9995,8.9995,8.9511,8.6491,8.5055,8.4731,8.0981,7.7498,7.4625,7.38,7.1794,6.9071,6.8714,6.8533,6.8731,6.8918,6.9015,6.838,6.8278,6.8189,6.8359,6.9042,6.9707,7.0149,7.0205,7.0457,7.0945,7.0969,7.0476,6.9493,6.9407,6.9355,6.9322,6.9322,6.9293,6.9128,6.8615,6.8273,6.817,6.7607,6.7248,6.7191,6.6708,6.6651,6.7186,6.6708,6.6651,6.7157,6.6736,6.6651,6.7134,6.6708,6.6674,6.7186,6.7271,6.6992,6.6623,6.6424,6.6645,6.7191,6.7242,6.722,6.7277,6.7806,6.8245,6.8279,6.8871,6.9322,6.9322,6.9793,7.0115,7.0258,7.0912,7.1907,7.3326,7.4186,7.4843,7.4644,7.4673,7.4641,7.435,7.3596,7.3552,7.2436,6.8379,6.3612,6.317,5.9253,5.6429,5.5546,5.5388,5.5305,5.4273,5.4125,5.2671,5.1409,5.0808,5.1224,5.004,5.0194,5.1349,5.1519,5.1328,5.012,9.6896,9.6585,9.5954,9.4702,9.2956,9.089,8.9995,8.9995,8.9957,8.9995,8.9995,8.9995,8.9995,8.9931,8.9127,8.8706,8.8215,8.4796,8.2615,8.157,7.8798,7.699,7.6248,7.6181,7.6159,7.6181,7.6203,7.467,7.2108,7.1802,7.0428,6.8023,6.8843,6.965,7.0149,7.0177,7.0054,6.9811,6.9811,6.9669,6.9407,6.9407,6.9128,6.8677,6.8643,6.8369,6.7891,6.7242,6.693,6.6901,6.6287,6.5924,6.5924,6.5804,6.5782,6.5896,6.5782,6.5782,6.5918,6.5804,6.5804,6.5924,6.5804,6.5804,6.5918,6.5946,6.5889,6.5747,6.5697,6.5776,6.5975,6.5975,6.5924,6.5975,6.6537,6.6958,6.7021,6.792,6.8643,6.8724,6.9213,6.9555,6.9759,7.048,7.1087,7.1314,7.2135,7.3098,7.3497,7.3927,7.4176,7.3275,7.0099,6.7738,6.6918,6.192,5.8194,5.6943,5.5511,5.4543,5.394,5.2703,5.2216,5.3299,5.2167,5.0772,5.1349,5.0547,4.9125,4.8158,4.7431,4.6901,4.7043,4.7259,4.6512,9.5012,9.4572,9.411,9.3162,9.1915,9.0586,8.9995,8.9919,8.9219,8.8819,8.8857,8.8836,8.8857,8.8857,8.8798,8.9046,8.9384,8.7358,8.5691,8.4256,8.2246,8.0412,7.8842,7.871,7.871,7.871,7.871,7.7653,7.5639,7.3867,7.2063,7.0164,6.925,6.9218,6.9769,6.9798,6.9702,6.9384,6.8843,6.8341,6.8085,6.8056,6.772,6.7117,6.681,6.6474,6.6139,6.5564,6.5245,6.5245,6.4882,6.4711,6.4711,6.4711,6.4711,6.4689,6.4945,6.505,6.505,6.5072,6.498,6.4717,6.4923,6.4731,6.39,6.3808,6.4063,6.4654,6.4711,6.4938,6.5463,6.5498,6.5498,6.5498,6.5833,6.6145,6.648,6.693,6.7237,6.7521,6.8113,6.8506,6.8512,6.9541,7.0224,7.0291,7.0713,7.1619,7.2529,7.068,6.9034,6.9113,6.6077,6.3502,6.2746,5.7801,5.4746,5.4839,5.2596,5.0825,5.057,4.9431,4.887,4.9701,4.8789,4.7717,4.701,4.6941,4.6382,4.5574,4.465,4.4993,4.4919,4.5116,4.4252,9.2468,9.172,9.1741,9.121,9.0337,9.038,9.0152,8.9734,8.8152,8.7528,8.7528,8.7528,8.7528,8.7528,8.7528,8.7908,8.8616,8.8675,8.7273,8.4839,8.494,8.3256,8.0242,8.0256,8.029,8.0324,8.0334,8.0049,7.9216,7.6282,7.438,7.3603,7.0742,6.955,6.9953,6.9521,6.9236,6.9099,6.8056,6.7186,6.6623,6.6537,6.6202,6.564,6.4964,6.4538,6.4538,6.3971,6.3588,6.3481,6.3388,6.3303,6.3196,6.3189,6.3218,6.3246,6.3615,6.3992,6.4134,6.4162,6.4013,6.3815,6.4114,6.3473,6.1639,6.1639,6.2286,6.3331,6.3474,6.3929,6.4809,6.4873,6.4844,6.5037,6.5207,6.5498,6.606,6.5833,6.5855,6.6344,6.6884,6.7356,6.7498,6.8506,6.9469,6.9727,6.934,6.9723,6.9782,6.6375,6.3306,6.2717,6.1156,5.9722,5.8485,5.4655,5.2289,5.3886,4.9648,4.6995,4.7263,4.6274,4.5773,4.5905,4.5411,4.4311,4.311,4.3463,4.3429,4.2346,4.2524,4.334,4.3255,4.3227,4.2118,9.4525,9.4351,9.4373,9.35,9.211,9.2072,9.0911,8.8995,8.7928,0.0,0.0,8.7528,8.7528,8.7528,8.7528,8.7545,8.7739,8.7718,8.7441,8.6988,8.7685,8.769,8.7098,8.7666,8.8001,8.8022,8.8022,8.6383,8.3375,8.2681,8.0828,7.7696,7.46,7.3106,7.3023,7.0149,6.8336,6.7806,6.7561,6.739,6.7248,6.6765,6.643,6.6361,6.5135,6.4538,6.4538,6.3545,6.2691,6.22,6.1639,6.1106,6.0574,6.0546,6.0566,6.0566,6.0659,6.1192,6.2215,6.2272,6.2691,6.3701,6.3317,6.2107,5.9757,6.094,6.1874,6.2143,6.2193,6.2208,6.2414,6.2471,6.2712,6.3225,6.3737,6.4306,6.4838,6.5214,6.5469,6.5719,6.6202,6.6651,6.6708,6.7749,6.862,6.8484,6.7358,6.6146,6.6253,6.4106,6.0741,5.7912,5.5181,5.3113,5.2462,4.9584,4.7688,4.7971,4.7034,4.6294,4.6047,4.4742,4.4319,4.5298,4.4138,4.3277,4.386,4.2764,4.1585,4.0834,3.9749,3.8826,3.8801,3.833,3.7814,9.1193,9.1215,9.1215,9.0738,0.0,8.9979,8.9029,8.7493,8.7073,8.6617,8.62,8.62,8.62,8.62,8.6179,8.6427,8.6883,8.6883,8.7111,8.7507,8.7908,8.8135,8.8135,8.9012,8.943,8.943,8.9789,8.9042,8.7193,8.5285,8.2463,7.87,7.5589,7.3091,7.1205,6.9383,6.792,6.6964,6.7277,6.7134,6.6509,6.6458,6.6145,6.5498,6.4851,0.0,0.0,0.0,0.0,0.0,0.0,0.0,0.0,0.0,0.0,5.8519,5.8482,5.849,5.8471,5.8794,5.9383,6.0294,5.9822,5.8786,5.7249,5.8245,5.9355,6.0314,6.0448,6.0827,6.1717,6.181,6.1944,6.2236,6.257,6.3004,6.3602,6.3921,6.4212,6.4597,6.5144,6.5611,6.5924,6.6867,6.7521,6.7777,6.6909,6.6506,6.6534,6.2262,5.6881,5.2378,4.9605,4.7836,4.6475,4.4034,4.2561,4.3428,4.2744,4.2039,4.1987,4.1038,4.0527,4.1427,4.0777,3.9965,4.0654,3.9905,3.8866,3.8364,3.758,3.6957,3.6894,3.6642,3.6358,8.7528,8.7528,8.7528,8.7528,8.7411,8.6766,8.6141,8.5575,8.5575,8.5137,8.4474,8.4434,8.4493,8.4511,8.4454,8.4871,8.5575,8.5575,8.5896,8.6521,8.6862,8.7014,8.7073,8.808,8.8578,8.8616,8.9198,8.9578,8.9746,8.6715,8.3724,8.0828,7.7446,7.3915,7.0348,0.0,0.0,0.0,6.7605,6.7129,6.6117,6.6344,6.5918,6.4766,6.439,0.0,6.2826,6.2542,6.1866,6.0716,6.0586,0.0,0.0,0.0,0.0,0.0,0.0,0.0,0.0,0.0,0.0,0.0,5.525,5.4683,5.487,5.5371,5.6339,5.7946,5.8372,5.8981,6.0185,6.0326,6.0501,6.1013,6.1062,6.1514,6.2485,6.2606,6.2769,6.3331,6.3474,6.3949,6.4874,6.5165,6.5559,6.6511,6.6459,6.5972,6.4966,5.7858,5.1716,4.7566,4.4968,4.2949,4.1103,3.9551,3.9128,3.9908,3.8649,3.7584,3.7782,3.7527,3.7306,3.7488,3.7289,3.7242,3.6997,3.6823,3.687,3.6468,3.6397,3.6295,3.609,3.5995,3.598,8.7528,8.7528,8.7528,8.7528,8.72,8.432,8.301,8.2916,8.2896,8.284,8.2746,8.2764,8.2744,8.2764,8.2726,8.282,8.2916,8.2916,8.2972,8.3181,8.4567,8.5289,8.5306,8.6883,8.7659,8.7601,8.7714,8.8173,8.8936,8.8495,8.837,8.8332,8.418,8.0168,7.6548,7.2612,7.0742,7.1014,6.9223,6.8245,6.8028,6.7037,6.6139,6.5356,6.3836,6.294,6.2791,6.1696,6.0786,6.0034,5.9534,5.9016,5.837,5.669,5.5363,0.0,5.2124,0.0,0.0,0.0,0.0,0.0,0.0,0.0,0.0,5.3768,5.4062,5.4631,5.573,5.5981,5.4933,5.4848,5.5818,5.8104,5.8441,5.9349,6.1563,6.1944,6.1973,6.2058,6.09,6.1159,6.3381,6.2008,6.175,6.3722,6.2632,5.9472,5.4408,4.9271,4.575,4.495,4.0893,3.8693,3.836,3.7656,3.7274,3.7409,3.6845,3.6269,3.6547,3.6381,3.6246,3.646,3.6578,3.6523,3.646,3.6421,3.6405,3.6311,3.6264,3.598,3.5239,3.4822,3.4617,8.3884,8.4623,8.4186,8.4244,8.4547,8.2612,8.2005,8.2403,8.2403,8.2195,8.1777,8.1797,8.1531,8.1171,8.1569,8.1759,8.1797,8.2233,8.2403,8.2441,8.3181,8.3543,8.3599,8.5289,8.6065,8.6124,8.7052,8.7659,8.808,8.808,8.7434,8.6153,8.1744,7.8412,7.6056,7.2557,7.0484,7.0009,6.7908,6.6816,6.6787,6.6594,6.6003,6.5015,6.4525,6.3851,6.2798,6.257,6.181,6.0481,5.9847,5.8928,5.763,5.5438,5.3359,0.0,0.0,0.0,0.0,0.0,0.0,0.0,0.0,0.0,0.0,0.0,5.135,5.1555,5.3338,5.3223,5.0247,5.1676,5.2789,5.2939,5.3577,5.4216,5.5025,5.6063,5.6837,5.7063,5.6822,5.7689,6.019,5.8987,5.8325,5.9496,5.6485,5.2026,4.6741,4.4646,4.3033,4.1466,3.8664,3.7026,3.8443,3.7498,3.6626,3.6594,3.6381,3.6215,3.6287,3.6263,3.6215,3.6334,3.6358,3.6318,3.6136,3.6151,3.6049,3.5859,3.5459,3.5049,3.4576,3.4356,3.4233,8.0886,8.1852,7.8727,7.8296,7.9595,7.8992,7.9596,8.0885,8.0753,8.0089,7.9237,7.9633,7.8878,7.7321,7.7622,7.8146,7.8842,7.9576,8.0483,8.153,8.1739,8.1948,8.2252,8.3656,8.4474,8.4641,8.4826,8.5541,8.6763,8.5173,8.3817,8.2536,7.7606,7.4847,7.4356,7.1219,6.9386,6.8995,6.7388,6.6375,6.5991,6.6145,6.5719,6.4567,6.4759,6.4206,6.2855,6.2969,6.2293,6.0708,5.9741,5.8377,5.6538,5.3868,0.0,0.0,0.0,0.0,0.0,0.0,0.0,0.0,0.0,4.3385,4.3346,0.0,4.7866,0.0,5.0084,5.0051,4.7206,4.855,0.0,0.0,4.8434,4.8508,4.8533,5.0101,5.1304,5.1698,5.2038,5.3208,5.5768,5.4596,5.3134,5.1926,4.8332,4.4185,4.0018,4.0291,4.026,3.816,3.6616,3.6445,3.7754,3.7045,3.6105,3.6019,3.5868,3.5759,3.5838,3.5813,3.5782,3.5815,3.5854,3.5782,3.5544,3.5512,3.5424,3.5133,3.4583,3.4135,3.4135,3.4056,3.4003,8.0563,8.0447,7.0568,6.8531,7.1776,7.1669,7.3552,7.6597,7.5931,7.4777,7.3532,7.4903,7.3204,6.9288,6.8164,0.0,7.1829,7.2438,7.502,7.9045,7.9899,8.0677,8.1398,8.2195,8.3049,8.379,7.9475,8.0107,8.4588,7.8587,7.7427,8.1265,7.4284,7.1576,7.3106,6.9014,6.7884,6.9997,6.9727,6.8859,6.7333,6.6174,6.5293,6.4538,6.3523,6.294,6.2791,6.1667,6.0757,5.9928,5.8282,5.649,5.4503,0.0,0.0,0.0,0.0,0.0,0.0,0.0,0.0,0.0,0.0,0.0,0.0,0.0,0.0,4.4593,4.5104,0.0,4.6906,4.4688,0.0,0.0,0.0,4.2867,4.4748,4.6002,4.6926,4.7334,0.0,0.0,4.9864,4.7668,4.4259,4.0097,3.8154,3.6218,3.3676,3.4257,3.462,3.4721,3.4469,3.4574,3.5263,3.5361,3.5221,3.4908,3.4394,3.4226,3.4381,3.4283,3.4195,3.445,3.439,3.439,3.4365,3.4387,3.4327,3.4286,3.4009,3.3816,3.3806,3.3542,3.3425,6.9388,6.7684,6.2934,6.2165,6.4155,6.4731,6.7028,7.0354,7.0852,7.0151,6.8747,6.9025,6.6771,6.2591,6.1353,0.0,0.0,0.0,6.8988,7.281,7.4411,7.622,7.823,7.9538,8.0373,8.0639,7.9361,7.8831,7.9055,7.8177,7.469,6.8443,0.0,0.0,6.6792,6.5449,6.5521,6.7086,6.8473,6.7877,6.5276,6.5008,6.4446,6.3516,6.2656,6.2009,6.159,6.0737,5.9457,5.7694,5.5516,5.2988,0.0,0.0,0.0,0.0,0.0,0.0,0.0,0.0,0.0,0.0,0.0,3.6321,3.5904,0.0,0.0,0.0,3.7342,3.6724,3.777,3.9678,0.0,0.0,0.0,0.0,0.0,0.0,0.0,4.0732,4.0588,4.1461,4.4176,4.0703,3.7126,3.5094,3.4082,3.3259,3.2299,0.0,3.2726,3.3194,3.3142,3.3226,3.3784,3.3751,3.3672,3.353,3.3674,3.3869,3.3952,3.4025,3.4088,3.4192,3.4223,3.4223,3.4223,3.3552,3.3042,3.3021,3.2932,3.2874,3.2874,3.2916,3.291,5.7288,0.0,0.0,0.0,0.0,5.7216,5.9626,6.3028,6.3856,6.3328,6.1884,6.1647,0.0,0.0,0.0,0.0,0.0,0.0,6.2638,6.6456,6.8675,7.1318,7.4372,7.5144,7.587,7.6401,7.5115,7.3695,7.228,7.2953,6.7476,5.6384,0.0,0.0,0.0,0.0,6.174,6.3421,6.537,6.5522,6.3794,6.3751,6.3459,6.2798,6.1952,6.122,6.0574,5.9608,5.7863,5.5213,5.2554,0.0,0.0,0.0,0.0,0.0,0.0,0.0,0.0,0.0,0.0,0.0,0.0,0.0,0.0,0.0,0.0,0.0,0.0,0.0,3.1117,3.469,3.5651,0.0,0.0,0.0,0.0,0.0,0.0,0.0,0.0,0.0,3.7388,3.4146,3.1716,0.0,0.0,3.1439,3.1244,3.1376,3.168,3.2054,3.1937,0.0,3.2421,3.2333,3.2265,3.2359,3.2926,3.3358,3.3379,3.3352,3.3341,3.3304,3.3441,3.3315,3.2858,3.1984,3.1409,3.1377,3.1377,3.1393,3.1484,3.1628,3.1803,0.0,0.0,0.0,0.0,0.0,0.0,0.0,0.0,5.4271,5.3371,0.0,5.2415,0.0,0.0,0.0,0.0,4.9401,5.1815,0.0,0.0,6.2999,6.623,6.9636,6.8465,6.8997,7.0658,6.4443,6.2534,6.4497,5.9691,0.0,0.0,0.0,0.0,0.0,0.0,5.6284,5.9414,6.0737,6.2026,6.3609,6.2549,6.2179,6.2705,6.1504,6.0566,5.9843,5.816,5.5799,5.269,4.9618,0.0,0.0,0.0,0.0,0.0,0.0,0.0,0.0,0.0,0.0,0.0,0.0,0.0,0.0,0.0,0.0,0.0,0.0,0.0,0.0,3.0035,0.0,0.0,0.0,0.0,0.0,0.0,0.0,0.0,0.0,0.0,2.9084,2.8452,2.8426,2.92,0.0,0.0,0.0,0.0,3.1045,3.082,3.0781,3.0781,3.0828,3.0997,3.1273,3.1653,0.0,0.0,3.231,3.1712,3.1221,3.121,3.1533,3.1242,2.9673,2.9322,2.9297,2.9259,2.9313,2.9354,2.9578,2.9698,2.9922,0.0,0.0,0.0,0.0,0.0,0.0,0.0,0.0,0.0,4.5993,4.4799,4.4505,0.0,0.0,0.0,0.0,0.0,0.0,0.0,0.0,5.3951,5.7251,6.0735,6.1181,6.1784,0.0,5.97,5.5078,0.0,0.0,0.0,0.0,0.0,0.0,0.0,0.0,5.5469,5.7437,6.1404,6.2956,6.1927,6.181,6.1703,6.1497,6.1098,5.979,5.7543,5.5286,5.2306,0.0,0.0,0.0,0.0,0.0,0.0,0.0,0.0,0.0,0.0,0.0,0.0,0.0,0.0,0.0,0.0,0.0,0.0,0.0,0.0,0.0,0.0,0.0,2.6744,0.0,0.0,0.0,0.0,0.0,0.0,0.0,0.0,0.0,2.5907,2.6345,2.7095,2.8028,2.8609,2.909,2.9477,0.0,0.0,0.0,0.0,0.0,0.0,0.0,3.0446,3.0319,3.0398,3.0591,3.0812,3.0426,3.0032,2.9853,0.0,0.0,2.7684,2.7613,2.7773,2.7773,2.7756,2.7787,2.786,2.8254,2.8632,0.0,0.0,0.0,0.0,0.0,0.0,0.0,0.0,0.0,3.8597,3.762,0.0,0.0,0.0,0.0,0.0,0.0,0.0,0.0,0.0,0.0,0.0,5.2533,5.3057,0.0,0.0,0.0,0.0,0.0,0.0,0.0,0.0,0.0,0.0,0.0,0.0,5.3192,5.4439,5.9724,6.1512,5.9484,6.007,6.0242,5.9798,5.9884,5.8652,5.595,0.0,0.0,0.0,0.0,0.0,0.0,0.0,0.0,0.0,0.0,0.0,0.0,0.0,0.0,0.0,0.0,0.0,0.0,0.0,0.0,0.0,0.0,0.0,0.0,0.0,2.3345,0.0,0.0,0.0,0.0,0.0,0.0,0.0,0.0,0.0,0.0,0.0,2.5655,2.6571,2.7375,2.8144,2.8929,2.9263,2.9657,0.0,0.0,0.0,0.0,0.0,0.0,0.0,0.0,0.0,0.0,0.0,0.0,0.0,0.0,2.6683,2.5463,2.5464,2.5655,2.5655,0.0,0.0,0.0,0.0,0.0,0.0,0.0,0.0,0.0,0.0,0.0,0.0,0.0,0.0,0.0,3.0589,0.0,0.0,2.8968,0.0,0.0,0.0,0.0,0.0,0.0,0.0,0.0,0.0,0.0,0.0,0.0,0.0,0.0,0.0,0.0,0.0,0.0,0.0,0.0,0.0,0.0,4.9221,5.0276,5.5269,5.739,5.6657,5.7297,5.7745,5.7729,5.7906,5.7097,5.5099,0.0,0.0,0.0,0.0,0.0,0.0,0.0,0.0,0.0,0.0,0.0,0.0,0.0,0.0,0.0,0.0,0.0,0.0,0.0,0.0,0.0,0.0,0.0,0.0,0.0,0.0,2.1167,2.1542,2.152,0.0,0.0,0.0,0.0,0.0,0.0,0.0,0.0,0.0,2.4801,2.641,2.7643,2.7934,2.8638,2.9151,2.9164,2.922,2.9167,2.9167,2.917,2.9173,0.0,0.0,0.0,0.0,0.0,0.0,0.0,0.0,0.0,0.0,0.0,0.0,0.0,0.0,0.0,0.0,0.0,0.0,0.0,0.0,0.0,0.0,0.0,0.0,0.0,0.0,0.0,0.0,0.0,0.0,0.0,0.0,0.0,0.0,0.0,0.0,0.0,0.0,0.0,0.0,0.0,0.0,0.0,0.0,0.0,0.0,0.0,0.0,0.0,0.0,0.0,0.0,0.0,0.0,4.6974,5.0105,5.3709,5.567,5.5862,5.6578,5.6764,5.6484,5.6142,5.4679,0.0,0.0,0.0,0.0,0.0,0.0,0.0,0.0,0.0,0.0,0.0,0.0,0.0,0.0,0.0,0.0,0.0,0.0,0.0,0.0,0.0,0.0,0.0,0.0,0.0,0.0,0.0,0.0,2.088,2.1039,2.0821,0.0,0.0,0.0,0.0,0.0,0.0,0.0,0.0,0.0,0.0,2.6475,2.7582,2.8308,2.8827,2.9104,2.9189,2.9057,2.8817,2.873,2.8611,2.8173,0.0,0.0,0.0,0.0,0.0,0.0,0.0,0.0,0.0,0.0,0.0,0.0,0.0,0.0,0.0,0.0,0.0,0.0,0.0,0.0,0.0,0.0,0.0,0.0,0.0,0.0,0.0,0.0,0.0,0.0,0.0,0.0,0.0,0.0,0.0,0.0,0.0,0.0,0.0,0.0,0.0,0.0,0.0,0.0,0.0,0.0,0.0,0.0,0.0,0.0,0.0,0.0,0.0,4.55,4.8634,5.2055,5.383,5.3953,5.4905,5.5047,5.436,5.3831,5.2011,0.0,0.0,0.0,0.0,0.0,0.0,0.0,0.0,0.0,0.0,0.0,0.0,0.0,0.0,0.0,0.0,0.0,0.0,0.0,0.0,0.0,0.0,0.0,0.0,0.0,0.0,0.0,0.0,1.9525,1.993,2.017,0.0,0.0,0.0,0.0,0.0,0.0,0.0,0.0,0.0,0.0,2.5386,2.681,2.7438,0.0,0.0,2.8566,2.8421,2.8038,2.8119,2.79,2.6918,2.6252,0.0,0.0,0.0,0.0,0.0,0.0,0.0,0.0,0.0,0.0,0.0,0.0,0.0,0.0,0.0,0.0,0.0,0.0,0.0,0.0,0.0,0.0,0.0,0.0,0.0,0.0,0.0,0.0,0.0,0.0,0.0,0.0,0.0,0.0,0.0,0.0,0.0,0.0,0.0,0.0,0.0,0.0,0.0,0.0,0.0,0.0,0.0,0.0,0.0,0.0,0.0,0.0,4.4529,4.6183,5.024,5.2006,5.1361,5.2605,5.2765,5.1607,5.1081,4.9179,0.0,0.0,0.0,0.0,0.0,0.0,0.0,0.0,0.0,0.0,0.0,0.0,0.0,0.0,0.0,0.0,0.0,0.0,0.0,0.0,0.0,0.0,0.0,0.0,0.0,0.0,0.0,0.0,0.0,0.0,0.0,0.0,0.0,0.0,0.0,0.0,0.0,0.0,0.0,0.0,0.0,2.4375,2.5686,2.6174,2.6629,0.0,2.7457,2.7331,2.6915,2.7203,2.7018,2.5591,0.0,0.0,0.0,0.0,0.0,0.0,0.0,0.0,0.0,0.0,0.0,0.0,0.0,0.0,0.0,0.0,0.0,0.0,0.0,0.0,0.0,0.0,0.0,0.0,0.0,0.0,0.0,0.0,0.0,0.0,0.0,0.0,0.0,0.0,0.0,0.0,0.0,0.0,0.0,0.0,0.0,0.0,0.0,0.0,0.0,0.0,0.0,0.0,0.0,0.0,0.0,0.0,0.0,0.0,4.4927,4.8931,5.0933,5.0743,5.1488,5.1399,5.0391,4.8573,0.0,0.0,0.0,0.0,0.0,0.0,0.0,0.0,0.0,0.0,0.0,0.0,0.0,0.0,0.0,0.0,0.0,0.0,0.0,0.0,0.0,0.0,0.0,0.0,0.0,0.0,0.0,1.4837,0.0,0.0,0.0,0.0,0.0,0.0,0.0,0.0,0.0,0.0,0.0,0.0,0.0,0.0,2.3713,2.4375,2.5196,2.5764,0.0,0.0,2.5859,2.5478,2.5732,2.5624,0.0,0.0,0.0,0.0,0.0,0.0,0.0,0.0,0.0,0.0,0.0,0.0,0.0,0.0,0.0,0.0,0.0,0.0,0.0,0.0,0.0,0.0,0.0,0.0,0.0,0.0,0.0,0.0,0.0,0.0,0.0,0.0,0.0,0.0,0.0,0.0,0.0,0.0,0.0,0.0,0.0,0.0,0.0,0.0,0.0,0.0,0.0,0.0,0.0,0.0,0.0,0.0,0.0,0.0,4.1438,4.4501,4.7717,4.9595,5.0108,5.0679,5.0366,4.9069,4.6813,4.4246,0.0,0.0,0.0,0.0,0.0,0.0,0.0,0.0,0.0,0.0,0.0,0.0,0.0,0.0,0.0,0.0,0.0,0.0,0.0,0.0,0.0,0.0,0.0,0.0,0.0,0.0,0.0,0.0,0.0,0.0,0.0,0.0,0.0,0.0,0.0,0.0,0.0,0.0,0.0,0.0,0.0,0.0,2.3571,2.4155,0.0,0.0,0.0,2.4912,2.4517,0.0,0.0,0.0,0.0,0.0,0.0,0.0,0.0,0.0,0.0,0.0,0.0,0.0,0.0,0.0,0.0,0.0,0.0,0.0,0.0,0.0,0.0,0.0,0.0,0.0,0.0,0.0,0.0,0.0,0.0,0.0,0.0,0.0,0.0,0.0,0.0,0.0,0.0,0.0,0.0,0.0,0.0,0.0,0.0,0.0,0.0,0.0,0.0,0.0,0.0,0.0,0.0,0.0,0.0,0.0,0.0,0.0,4.4154,4.6486,4.8242,4.9428,4.99,4.938,4.7757,4.5534,4.2977,0.0,0.0,0.0,0.0,0.0,0.0,0.0,0.0,0.0,0.0,0.0,0.0,0.0,0.0,0.0,0.0,0.0,0.0,0.0,0.0,0.0,0.0,0.0,0.0,0.0,0.0,0.0,0.0,0.0,0.0,0.0,0.0,0.0,0.0,0.0,0.0,0.0,0.0,0.0,0.0,0.0,2.2045,2.2991,2.3164,2.3209,0.0,0.0,2.4091,2.376,2.4027,0.0,0.0,0.0,0.0,0.0,0.0,0.0,0.0,0.0,0.0,0.0,0.0,0.0,0.0,0.0,0.0,0.0,0.0,0.0,0.0,0.0,0.0,0.0,0.0,0.0,0.0,0.0,0.0,0.0,0.0,0.0,0.0,0.0,0.0,0.0,0.0,0.0,0.0,0.0,0.0,0.0,0.0,0.0,0.0,0.0,0.0,0.0,0.0,0.0,0.0,0.0,0.0,0.0,0.0,0.0,0.0,4.2447,4.5187,4.7353,4.8834,4.8184,4.7577,4.717,4.4589,4.1968,0.0,0.0,0.0,0.0,0.0,0.0,0.0,0.0,0.0,0.0,0.0,0.0,0.0,0.0,0.0,0.0,0.0,0.0,0.0,0.0,0.0,0.0,0.0,0.0,0.0,0.0,0.0,0.0,0.0,0.0,0.0,0.0,0.0,0.0,0.0,0.0,0.0,0.0,0.0,0.0,0.0,2.1638,2.2012,2.2356,0.0,0.0,0.0,0.0,2.2715,2.2733,0.0,0.0,0.0,0.0,0.0,0.0,0.0,0.0,0.0,0.0,0.0,0.0,0.0,0.0,0.0,0.0,0.0,0.0,0.0,0.0,0.0,0.0,0.0,0.0,0.0,0.0,0.0,0.0,0.0,0.0,0.0,0.0,0.0,0.0,0.0,0.0,0.0,0.0,0.0,0.0,0.0,0.0,0.0,0.0,0.0,0.0,0.0,0.0,0.0,0.0,0.0,0.0,0.0,0.0,0.0,0.0,4.112,4.3662,4.5655,4.7075,4.7058,4.666,4.5837,4.3828,4.1526,0.0,0.0,0.0,0.0,0.0,0.0,0.0,0.0,0.0,0.0,0.0,0.0,0.0,0.0,0.0,0.0,0.0,0.0,0.0,0.0,0.0,0.0,0.0,0.0,0.0,0.0,0.0,0.0,0.0,0.0,0.0,0.0,0.0,0.0,0.0,0.0,0.0,0.0,0.0,0.0,1.9693,2.0468,2.0789,0.0,0.0,0.0,0.0,0.0,0.0,2.1735,2.1437,0.0,0.0,0.0,0.0,0.0,0.0,0.0,0.0,0.0,0.0,0.0,0.0,0.0,0.0,0.0,0.0,0.0,0.0,0.0,0.0,0.0,0.0,0.0,0.0,0.0,0.0,0.0,0.0,0.0,0.0,0.0,0.0,0.0,0.0,0.0,0.0,0.0,0.0,0.0,0.0,0.0,0.0,0.0,0.0,0.0,0.0,0.0,0.0,0.0,0.0,0.0,0.0,0.0,0.0,0.0,3.9794,4.1916,4.3717,4.5145,4.6045,4.5871,4.457,4.3305,4.1245,3.8332,0.0,0.0,0.0,0.0,0.0,0.0,0.0,0.0,0.0,0.0,0.0,0.0,0.0,0.0,0.0,0.0,0.0,0.0,0.0,0.0,0.0,0.0,0.0,0.0,0.0,0.0,0.0,0.0,0.0,0.0,0.0,0.0,0.0,0.0,0.0,0.0,0.0,0.0,0.0,1.8372,1.923,0.0,0.0,0.0,0.0,0.0,0.0,0.0,0.0,2.0286,0.0,0.0,0.0,0.0,0.0,0.0,0.0,0.0,0.0,0.0,0.0,0.0,0.0,0.0,0.0,0.0,0.0,0.0,0.0,0.0,0.0,0.0,0.0,0.0,0.0,0.0,0.0,0.0,0.0,0.0,0.0,0.0,0.0,0.0,0.0,0.0,0.0,0.0,0.0,0.0,0.0,0.0,0.0,0.0,0.0,0.0,0.0,0.0,0.0,0.0,0.0,0.0,0.0,0.0,0.0,0.0,3.9831,4.1999,4.4501,4.4262,4.4227,4.4475,4.2941,4.0507,3.7121,0.0,0.0,0.0,0.0,0.0,0.0,0.0,0.0,0.0,0.0,0.0,0.0,0.0,0.0,0.0,0.0,0.0,0.0,0.0,0.0,0.0,0.0,0.0,0.0,0.0,0.0,0.0,0.0,0.0,0.0,0.0,0.0,0.0,0.0,0.0,0.0,0.0,0.0,1.6255,1.7553,0.0,0.0,0.0,0.0,0.0,0.0,0.0,0.0,1.9248,0.0,0.0,0.0,0.0,0.0,0.0,0.0,0.0,0.0,0.0,0.0,0.0,0.0,0.0,0.0,0.0,0.0,0.0,0.0,0.0,0.0,0.0,0.0,0.0,0.0,0.0,0.0,0.0,0.0,0.0,0.0,0.0,0.0,0.0,0.0,0.0,0.0,0.0,0.0,0.0,0.0,0.0,0.0,0.0,0.0,0.0,0.0,0.0,0.0,0.0,0.0,0.0,0.0,0.0,0.0,0.0,0.0,0.0,4.0669,4.2565,4.2996,4.3143,4.3097,4.1453,3.9359,0.0,0.0,0.0,0.0,0.0,0.0,0.0,0.0,0.0,0.0,0.0,0.0,0.0,0.0,0.0,0.0,0.0,0.0,0.0,0.0,0.0,0.0,0.0,0.0,0.0,0.0,0.0,0.0,0.0,0.0,0.0,0.0,0.0,0.0,0.0,0.0,0.0,0.0,0.0,0.0,0.0,0.0,0.0,0.0,0.0,0.0,0.0,0.0,0.0,0.0,0.0,0.0,0.0,0.0,0.0,0.0,0.0,0.0,0.0,0.0,0.0,0.0,0.0,0.0,0.0,0.0,0.0,0.0,0.0,0.0,0.0,0.0,0.0,0.0,0.0,0.0,0.0,0.0,0.0,0.0,0.0,0.0,0.0,0.0,0.0,0.0,0.0,0.0,0.0,0.0,0.0,0.0,0.0,0.0,0.0,0.0,0.0,0.0,0.0,0.0,0.0,0.0,0.0,0.0,0.0,0.0,0.0,0.0,3.9352,4.0628,4.1905,4.2395,4.1999,3.9849,3.7914,0.0,0.0,0.0,0.0,0.0,0.0,0.0,0.0,0.0,0.0,0.0,0.0,0.0,0.0,0.0,0.0,0.0,0.0,0.0,0.0,0.0,0.0,0.0,0.0,0.0,0.0,0.0,0.0,0.0,0.0,0.0,0.0,0.0,0.0,0.0,0.0,0.0,0.0,0.0,0.0,0.0,0.0,0.0,0.0,0.0,0.0,0.0,0.0,1.7654,0.0,0.0,0.0,0.0,0.0,0.0,0.0,0.0,0.0,0.0,0.0,0.0,0.0,0.0,0.0,0.0,0.0,0.0,0.0,0.0,0.0,0.0,0.0,0.0,0.0,0.0,0.0,0.0,0.0,0.0,0.0,0.0,0.0,0.0,0.0,0.0,0.0,0.0,0.0,0.0,0.0,0.0,0.0,0.0,0.0,0.0,0.0,0.0,0.0,0.0,0.0,0.0,0.0,0.0,0.0,0.0,0.0,0.0,0.0,3.7782,3.9415,4.1167,4.2062,4.1906,3.8762,3.5994,0.0,0.0,0.0,0.0,0.0,0.0,0.0,0.0,0.0,0.0,0.0,0.0,0.0,0.0,0.0,0.0,0.0,0.0,0.0,0.0,0.0,0.0,0.0,0.0,0.0,0.0,0.0,0.0,0.0,0.0,0.0,0.0,0.0,0.0,0.0,0.0,0.0,0.0,0.0,0.0,0.0,0.0,0.0,0.0,0.0,0.0,0.0,0.0,0.0,0.0,0.0,0.0,0.0,0.0,0.0,0.0,0.0,0.0,0.0,0.0,0.0,0.0,0.0,0.0,0.0,0.0,0.0,0.0,0.0,0.0,0.0,0.0,0.0,0.0,0.0,0.0,0.0,0.0,0.0,0.0,0.0,0.0,0.0,0.0,0.0,0.0,0.0,0.0,0.0,0.0,0.0,0.0,0.0,0.0,0.0,0.0,0.0,0.0,0.0,0.0,0.0,0.0,0.0,0.0,0.0,0.0,0.0,0.0,3.6604,3.8346,3.9708,3.9942,3.897,3.6579,3.4527,0.0,0.0,0.0,0.0,0.0,0.0,0.0,0.0,0.0,0.0,0.0,0.0,0.0,0.0,0.0,0.0,0.0,0.0,0.0,0.0,0.0,0.0,0.0,0.0,0.0,0.0,0.0,0.0,0.0,0.0,0.0,0.0,0.0,0.0,0.0,0.0,0.0,0.0,0.0,0.0,0.0,0.0,0.0,0.0,0.0,0.0,0.0,0.0,0.0,0.0,0.0,0.0,0.0,0.0,0.0,0.0,0.0,0.0,0.0,0.0,0.0,0.0,0.0,0.0,0.0,0.0,0.0,0.0,0.0,0.0,0.0,0.0,0.0,0.0,0.0,0.0,0.0,0.0,0.0,0.0,0.0,0.0,0.0,0.0,0.0,0.0,0.0,0.0,0.0,0.0,0.0,0.0,0.0,0.0,0.0,0.0,0.0,0.0,0.0,0.0,0.0,0.0,0.0,0.0,0.0,0.0,0.0,0.0,0.0,3.6711,3.7411,3.7135,3.589,3.4514,3.2994,0.0,0.0,0.0,0.0,0.0,0.0,0.0,0.0,0.0,0.0,0.0,0.0,0.0,0.0,0.0,0.0,0.0,0.0,0.0,0.0,0.0,0.0,0.0,0.0,0.0,0.0,0.0,0.0,0.0,0.0,0.0,0.0,0.0,0.0,0.0,0.0,0.0,0.0,0.0,0.0,0.0,0.0,0.0,0.0,0.0,0.0,0.0,0.0,0.0,0.0,0.0,0.0,0.0,0.0,0.0,0.0,0.0,0.0,0.0,0.0,0.0,0.0,0.0,0.0,0.0,0.0,0.0,0.0,0.0,0.0,0.0,0.0,0.0,0.0,0.0,0.0,0.0,0.0,0.0,0.0,0.0,0.0,0.0,0.0,0.0,0.0,0.0,0.0,0.0,0.0,0.0,0.0,0.0,0.0,0.0,0.0,0.0,0.0,0.0,0.0,0.0,0.0,0.0,0.0,0.0,0.0,0.0,0.0,0.0,3.4371,3.3968,3.3732,3.3615,3.2916,3.1268,0.0,0.0,0.0,0.0,0.0,0.0,0.0,0.0,0.0,0.0,0.0,0.0,0.0,0.0,0.0,0.0,0.0,0.0,0.0,0.0,0.0,0.0,0.0,0.0,0.0,0.0,0.0,0.0,0.0,0.0,0.0,0.0,0.0,0.0,0.0,0.0,0.0,0.0,0.0,0.0,0.0,0.0,0.0,0.0,0.0,0.0,0.0,0.0,0.0,0.0,0.0,0.0,0.0,0.0,0.0,0.0,0.0,0.0,0.0,0.0,0.0,0.0,0.0,0.0,0.0,0.0,0.0,0.0,0.0,0.0,0.0,0.0,0.0,0.0,0.0,0.0,0.0,0.0,0.0,0.0,0.0,0.0,0.0,0.0,0.0,0.0,0.0,0.0,0.0,0.0,0.0,0.0,0.0,0.0,0.0,0.0,0.0,0.0,0.0,0.0,0.0,0.0,0.0,0.0,0.0,0.0,0.0,0.0,0.0,3.044,3.0942,3.1263,3.1248,3.0679,2.9535,2.7752,0.0,0.0,0.0,0.0,0.0,0.0,0.0,0.0,0.0,0.0,0.0,0.0,0.0,0.0,0.0,0.0,0.0,0.0,0.0,0.0,0.0,0.0,0.0,0.0,0.0,0.0,0.0,0.0,0.0,0.0,0.0,0.0,0.0,0.0,0.0,0.0,0.0,0.0,0.0,0.0,0.0,0.0,0.0,0.0,0.0,0.0,0.0,0.0,0.0,0.0,0.0,0.0,0.0,0.0,0.0,0.0,0.0,0.0,0.0,0.0,0.0,0.0,0.0,0.0,0.0,0.0,0.0,0.0,0.0,0.0,0.0,0.0,0.0,0.0,0.0,0.0,0.0,0.0,0.0,0.0,0.0,0.0,0.0,0.0,0.0,0.0,0.0,0.0,0.0,0.0,0.0,0.0,0.0,0.0,0.0,0.0,0.0,0.0,0.0,0.0,0.0,0.0,0.0,0.0,0.0,0.0,0.0,0.0,2.7923,2.877,2.916,2.9149,2.8818,2.8017,0.0,0.0,0.0,0.0,0.0,0.0,0.0,0.0,0.0,0.0,0.0,0.0,0.0,0.0,0.0,0.0,0.0,0.0,0.0,0.0,0.0,0.0,0.0,0.0,0.0,0.0,0.0,0.0,0.0,0.0,0.0,0.0,0.0,0.0,0.0,0.0,0.0,0.0,0.0,0.0,0.0,0.0,0.0,0.0,0.0,0.0,0.0,0.0,0.0,0.0,0.0,0.0,0.0,0.0,0.0,0.0,0.0,0.0,0.0,0.0,0.0,0.0,0.0,0.0,0.0,0.0,0.0,0.0,0.0,0.0,0.0,0.0,0.0,0.0,0.0,0.0,0.0,0.0,0.0,0.0,0.0,0.0,0.0,0.0,0.0,0.0,0.0,0.0,0.0,0.0,0.0,0.0,0.0,0.0,0.0,0.0,0.0,0.0,0.0,0.0,0.0,0.0,0.0,0.0,0.0,0.0,0.0,0.0,2.5078,2.7253,2.7388,2.7404,2.7388,2.7424,2.6613,0.0,0.0,0.0,0.0,0.0,0.0,0.0,0.0,0.0,0.0,0.0,0.0,0.0,0.0,0.0,0.0,0.0,0.0,0.0,0.0,0.0,0.0,0.0,0.0,0.0,0.0,0.0,0.0,0.0,0.0,0.0,0.0,0.0,0.0,0.0,0.0,0.0,0.0,0.0,0.0,0.0,0.0,0.0,0.0,0.0,0.0,0.0,0.0,0.0,0.0,0.0,0.0,0.0,0.0,0.0,0.0,0.0,0.0,0.0,0.0,0.0,0.0,0.0,0.0,0.0,0.0,0.0,0.0,0.0,0.0,0.0,0.0,0.0,0.0,0.0,0.0,0.0,0.0,0.0,0.0,0.0,0.0,0.0,0.0,0.0,0.0,0.0,0.0,0.0,0.0,0.0,0.0,0.0,0.0,0.0,0.0,0.0,0.0,0.0,0.0,0.0,0.0,0.0,0.0,0.0,0.0,0.0,0.0,0.0,2.4564,0.0,2.5442,0.0,2.5452,2.4876,0.0,0.0,0.0,0.0,0.0,0.0,0.0,0.0,0.0,0.0,0.0,0.0,0.0,0.0,0.0,0.0,0.0,0.0,0.0,0.0,0.0,0.0,0.0,0.0,0.0,0.0,0.0,0.0,0.0,0.0,0.0,0.0,0.0,0.0,0.0,0.0,0.0,0.0,0.0,0.0,0.0,0.0,0.0,0.0,0.0,0.0,0.0,0.0,0.0,0.0,0.0,0.0,0.0,0.0,0.0,0.0,0.0,0.0,0.0,0.0,0.0,0.0,0.0,0.0,0.0,0.0,0.0,0.0,0.0,0.0,0.0,0.0,0.0,0.0,0.0,0.0,0.0,0.0,0.0,0.0,0.0,0.0,0.0,0.0,0.0,0.0,0.0,0.0,0.0,0.0,0.0,0.0,0.0,0.0,0.0,0.0,0.0,0.0,0.0,0.0,0.0,0.0,0.0,0.0,0.0,0.0,0.0,0.0,0.0,2.2397,2.3245,2.3736,2.3906,2.3906,2.3522,0.0,0.0,0.0,0.0,0.0,0.0,0.0,0.0,0.0,0.0,0.0,0.0,0.0,0.0,0.0,0.0,0.0,0.0,0.0,0.0,0.0,0.0,0.0,0.0,0.0,0.0,0.0,0.0,0.0,0.0,0.0,0.0,0.0,0.0,0.0,0.0,0.0,0.0,0.0,0.0,0.0,0.0,0.0,0.0,0.0,0.0,0.0,0.0,0.0,0.0,0.0,0.0,0.0,0.0,0.0,0.0,0.0,0.0,0.0,0.0,0.0,0.0,0.0,0.0,0.0,0.0,0.0,0.0,0.0,0.0,0.0,0.0,0.0,0.0,0.0,0.0,0.0,0.0,0.0,0.0,0.0,0.0,0.0,0.0,0.0,0.0,0.0,0.0,0.0,0.0,0.0,0.0,0.0,0.0,0.0,0.0,0.0,0.0,0.0,0.0,0.0,0.0,0.0,0.0,0.0,0.0,0.0,0.0,0.0,2.079,2.1604,2.2289,2.2775,2.2793,2.25,0.0,0.0,0.0,0.0,0.0,0.0,0.0,0.0,0.0,0.0,0.0,0.0,0.0,0.0,0.0,0.0,0.0,0.0,0.0,0.0,0.0,0.0,0.0,0.0,0.0,0.0,0.0,0.0,0.0,0.0,0.0,0.0,0.0,0.0,0.0,0.0,0.0,0.0,0.0,0.0,0.0,0.0,0.0,0.0,0.0,0.0,0.0,0.0,0.0,0.0,0.0,0.0,0.0,0.0,0.0,0.0,0.0,0.0,0.0,0.0,0.0,0.0,0.0,0.0,0.0,0.0,0.0,0.0,0.0,0.0,0.0,0.0,0.0,0.0,0.0,0.0,0.0,0.0,0.0,0.0,0.0,0.0,0.0,0.0,0.0,0.0,0.0,0.0,0.0,0.0,0.0,0.0,0.0,0.0,0.0,0.0,0.0,0.0,0.0,0.0,0.0,0.0,0.0,0.0,0.0,0.0,0.0,0.0,0.0,0.0,2.0061,2.0302,2.0778,2.0834,2.0562,2.0005,0.0,0.0,0.0,0.0,0.0,0.0,0.0,0.0,0.0,0.0,0.0,0.0,0.0,0.0,0.0,0.0,0.0,0.0,0.0,0.0,0.0,0.0,0.0,0.0,0.0,0.0,0.0,0.0,0.0,0.0,0.0,0.0,0.0,0.0,0.0,0.0,0.0,0.0,0.0,0.0,0.0,0.0,0.0,0.0,0.0,0.0,0.0,0.0,0.0,0.0,0.0,0.0,0.0,0.0,0.0,0.0,0.0,0.0,0.0,0.0,0.0,0.0,0.0,0.0,0.0,0.0,0.0,0.0,0.0,0.0,0.0,0.0,0.0,0.0,0.0,0.0,0.0,0.0,0.0,0.0,0.0,0.0,0.0,0.0,0.0,0.0,0.0,0.0,0.0,0.0,0.0,0.0,0.0,0.0,0.0,0.0,0.0,0.0,0.0,0.0,0.0,0.0,0.0,0.0,0.0,0.0,0.0,0.0,0.0,0.0,1.8942,1.9308,1.93,1.9146,0.0,0.0,0.0,0.0,0.0,0.0,0.0,0.0,0.0,0.0,0.0,0.0,0.0,0.0,0.0,0.0,0.0,0.0,0.0,0.0,0.0,0.0,0.0,0.0,0.0,0.0,0.0,0.0,0.0,0.0,0.0,0.0,0.0,0.0,0.0,0.0,0.0,0.0,0.0,0.0,0.0,0.0,0.0,0.0,0.0,0.0,0.0,0.0,0.0,0.0,0.0,0.0,0.0,0.0,0.0,0.0,0.0,0.0,0.0,0.0,0.0,0.0,0.0,0.0,0.0,0.0,0.0,0.0,0.0,0.0,0.0,0.0,0.0,0.0,0.0,0.0,0.0,0.0,0.0,0.0,0.0,0.0,0.0,0.0,0.0,0.0,0.0,0.0,0.0,0.0,0.0,0.0,0.0,0.0,0.0,0.0,0.0,0.0,0.0,0.0,0.0,0.0,0.0,0.0,0.0,0.0,0.0,0.0,0.0,0.0,0.0,1.7951,1.8103,1.8068,0.0,1.8071,0.0,0.0,0.0,0.0,0.0,0.0,0.0,0.0,0.0,0.0,0.0,0.0,0.0,0.0,0.0,0.0,0.0,0.0,0.0,0.0,0.0,0.0,0.0,0.0,0.0,0.0,0.0,0.0,0.0,0.0,0.0,0.0,0.0,0.0,0.0,0.0,0.0,0.0,0.0,0.0,0.0,0.0,0.0,0.0,0.0,0.0,0.0,0.0,0.0,0.0,0.0,0.0,0.0,0.0,0.0,0.0,0.0,0.0,0.0,0.0,0.0,0.0,0.0,0.0,0.0,0.0,0.0,0.0,0.0,0.0,0.0,0.0,0.0,0.0,0.0,0.0,0.0,0.0,0.0,0.0,0.0,0.0,0.0,0.0,0.0,0.0,0.0,0.0,0.0,0.0,0.0,0.0,0.0,0.0,0.0,0.0,0.0,0.0,0.0,0.0,0.0,0.0,0.0,0.0,0.0,0.0,0.0,0.0,0.0,0.0,0.0,0.0,1.6641,1.6625,1.6892,0.0,0.0,0.0,0.0,0.0,0.0,0.0,0.0,0.0,0.0,0.0,0.0,0.0,0.0,0.0,0.0,0.0,0.0,0.0,0.0,0.0,0.0,0.0,0.0,0.0,0.0,0.0,0.0,0.0,0.0,0.0,0.0,0.0,0.0,0.0,0.0,0.0,0.0,0.0,0.0,0.0,0.0,0.0,0.0,0.0,0.0,0.0,0.0,0.0,0.0,0.0,0.0,0.0,0.0,0.0,0.0,0.0,0.0,0.0,0.0,0.0,0.0,0.0,0.0,0.0,0.0,0.0,0.0,0.0,0.0,0.0,0.0,0.0,0.0,0.0,0.0,0.0,0.0,0.0,0.0,0.0,0.0,0.0,0.0,0.0,0.0,0.0,0.0,0.0,0.0,0.0,0.0,0.0,0.0,0.0,0.0,0.0,0.0,0.0,0.0,0.0,0.0,0.0,0.0,0.0,0.0,0.0,0.0,0.0,0.0,1.5348,1.5375,1.5016,1.4905,1.5087,0.0,0.0,0.0,0.0,0.0,0.0,0.0,0.0,0.0,0.0,0.0,0.0,0.0,0.0,0.0,0.0,0.0,0.0,0.0,0.0,0.0,0.0,0.0,0.0,0.0,0.0,0.0,0.0,0.0,0.0,0.0,0.0,0.0,0.0,0.0,0.0,0.0,0.0,0.0,0.0,0.0,0.0,0.0,0.0,0.0,0.0,0.0,0.0,0.0,0.0,0.0,0.0,0.0,0.0,0.0,0.0,0.0,0.0,0.0,0.0,0.0,0.0,0.0,0.0,0.0,0.0,0.0,0.0,0.0,0.0,0.0,0.0,0.0,0.0,0.0,0.0,0.0,0.0,0.0,0.0,0.0,0.0,0.0,0.0,0.0,0.0,0.0,0.0,0.0,0.0,0.0,0.0,0.0,0.0,0.0,0.0,0.0,0.0,0.0,0.0,0.0,0.0,0.0,0.0,0.0,0.0,0.0,0.0,0.0,0.0,0.0,0.0,0.0,0.0,1.3269,0.0,0.0,0.0,0.0,0.0,0.0,0.0,0.0,0.0,0.0,0.0,0.0,0.0,0.0,0.0,0.0,0.0,0.0,0.0,0.0,0.0,0.0,0.0,0.0,0.0,0.0,0.0,0.0,0.0,0.0,0.0,0.0,0.0,0.0,0.0,0.0,0.0,0.0,0.0,0.0,0.0,0.0,0.0,0.0,0.0,0.0,0.0,0.0,0.0,0.0,0.0,0.0,0.0,0.0,0.0,0.0,0.0,0.0,0.0,0.0,0.0,0.0,0.0,0.0,0.0,0.0,0.0,0.0,0.0,0.0,0.0,0.0,0.0,0.0,0.0,0.0,0.0,0.0,0.0,0.0,0.0,0.0,0.0,0.0,0.0,0.0,0.0,0.0,0.0,0.0,0.0,0.0,0.0,0.0,0.0,0.0,0.0,0.0,0.0,0.0,0.0,0.0,0.0,0.0,0.0,0.0,0.0,0.0,0.0,0.0,0.0,0.0,0.0,0.0,0.0,0.0,0.0,0.0,0.0,0.0,0.0,0.0,0.0,0.0,0.0,0.0,0.0,0.0,0.0,0.0,0.0,0.0,0.0,0.0,0.0,0.0,0.0,0.0,0.0,0.0,0.0,0.0,0.0,0.0,0.0,0.0,0.0,0.0,0.0,0.0,0.0,0.0,0.0,0.0,0.0,0.0,0.0,0.0,0.0,0.0,0.0,0.0,0.0,0.0,0.0,0.0,0.0,0.0,0.0,0.0,0.0,0.0,0.0,0.0,0.0,0.0,0.0,0.0,0.0,0.0,0.0,0.0,0.0,0.0,0.0,0.0,0.0,0.0,0.0,0.0,0.0,0.0,0.0,0.0,0.0,0.0,0.0,0.0,0.0,0.0,0.0,0.0,0.0,0.0,0.0,0.0,0.0,0.0,0.0,0.0,0.0,0.0,0.0,0.0,0.0,0.0,0.0,0.0,0.0,0.0,0.0,0.0,0.0,0.0,0.0,0.0,0.0,0.0,0.0,0.0,0.0,0.0,0.0,0.0,0.0,0.0,0.0,0.0,0.0,0.0,0.0,0.0,0.0,0.0,0.0,0.0,0.0,0.0,0.0,0.0,0.0,0.0,0.0,0.0,0.0,0.0,0.0,0.0,0.0,0.0,0.0,0.0,0.0,0.0,0.0,0.0,0.0,0.0,0.0,0.0,0.0,0.0,0.0,0.0,0.0,0.0,0.0,0.0,0.0,0.0,0.0,0.0,0.0,0.0,0.0,0.0,0.0,0.0,0.0,0.0,0.0,0.0,0.0,0.0,0.0,0.0,0.0,0.0,0.0,0.0,0.0,0.0,0.0,0.0,0.0,0.0,0.0,0.0,0.0,0.0,0.0,0.0,0.0,0.0,0.0,0.0,0.0,0.0,0.0,0.0,0.0,0.0,0.0,0.0,0.0,0.0,0.0,0.0,0.0,0.0,0.0,0.0,0.0,0.0,0.0,0.0,0.0,0.0,0.0,0.0,0.0,0.0,0.0,0.0,0.0,0.0,0.0,0.0,0.0,0.0,0.0,0.0,0.0,0.0,0.0,0.0,0.0,0.0,0.0,0.0,0.0,0.0,0.0,0.0,0.0,0.0,0.0,0.0,0.0,0.0,0.0,0.0,0.0,0.0,0.0,0.0,0.0,0.0,0.0,0.0,0.0,0.0,0.0,0.0,0.0,0.0,0.0,0.0,0.0,0.0,0.0,0.0,0.0,0.0,0.0,0.0,0.0,0.0,0.0,0.0,0.0,0.0,0.0,0.0,0.0,0.0,0.0,0.0,0.0,0.0,0.0,0.0,0.0,0.0,0.0,0.0,0.0,0.0,0.0,0.0,0.0,0.0,0.0,0.0,0.0,0.0,0.0,0.0,0.0,0.0,0.0,0.0,0.0,0.0,0.0,0.0,0.0,0.0,0.0,0.0,0.0,0.0,0.0,0.0,0.0,0.0,0.0,0.0,0.0,0.0,0.0,0.0,0.0,0.0,0.0,0.0,0.0,0.0,0.0,0.0,0.0,0.0,0.0,0.0,0.0,0.0,0.0,0.0,0.0,0.0,0.0,0.0,0.0,0.0,0.0,0.0,0.0,0.0,0.0,0.0,0.0,0.0,0.0,0.0,0.0,0.0,0.0,0.0,0.0,0.0,0.0,0.0,0.0,0.0,0.0,0.0,0.0,0.0,0.0,0.0,0.0,0.0,0.0,0.0,0.0,0.0,0.0,0.0,0.0,0.0,0.0,0.0,0.0,0.0,0.0,0.0,0.0,0.0,0.0,0.0,0.0,0.0,0.0,0.0,0.0,0.0,0.0,0.0,0.0,0.0,0.0,0.0,0.0,0.0,0.0,0.0,0.0,0.0,0.0,0.0,0.0,0.0,0.0,0.0,0.0,0.0,0.0,0.0,0.0,0.0,0.0,0.0,0.0,0.0,0.0,0.0,0.0,0.0,0.0,0.0,0.0,0.0,0.0,0.0,0.0,0.0,0.0,0.0,0.0,0.0,0.0,0.0,0.0,0.0,0.0,0.0,0.0,0.0,0.0,0.0,0.0,0.0,0.0,0.0,0.0,0.0,0.0,0.0,0.0,0.0,0.0,0.0,0.0,0.0,0.0,0.0,0.0,0.0,0.0,0.0,0.0,0.0,0.0,0.0,0.0,0.0,0.0,0.0,0.0,0.0,0.0,0.0,0.0,0.0,0.0,0.0,0.0,0.0,0.0,0.0,0.0,0.0,0.0,0.0,0.0,0.0,0.0,0.0,0.0,0.0,0.0,0.0,0.0,0.0,0.0,0.0,0.0,0.0,0.0,0.0,0.0,0.0,0.0,0.0,0.0,0.0,0.0,0.0,0.0,0.0,0.0,0.0,0.0,0.0,0.0,0.0,0.0,0.0,0.0,0.0,0.0,0.0,0.0,0.0,0.0,0.0,0.0,0.0,0.0,0.0,0.0,0.0,0.0,0.0,0.0,0.0,0.0,0.0,0.0,0.0,0.0,0.0,0.0,0.0,0.0,0.0,0.0,0.0,0.0,0.0,0.0,0.0,0.0,0.0,0.0,0.0,0.0,0.0,0.0,0.0,0.0,0.0,0.0,0.0,0.0,0.0,0.0,0.0,0.0,0.0,0.0,0.0,0.0,0.0,0.0,0.0,0.0,0.0,0.0,0.0,0.0,0.0,0.0,0.0,0.0,0.0,0.0,0.0,0.0,0.0,0.0,0.0,0.0,0.0,0.0,0.0,0.0,0.0,0.0,0.0,0.0,0.0,0.0,0.0,0.0,0.0,0.0,0.0,0.0,0.0,0.0,0.0,0.0,0.0,0.0,0.0,0.0,0.0,0.0,0.0,0.0,0.0,0.0,0.0,0.0,0.0,0.0,0.0,0.0,0.0,0.0,0.0,0.0,0.0,0.0,0.0,0.0,0.0,0.0,0.0,0.0,0.0,0.0,0.0,0.0,0.0,0.0,0.0,0.0,0.0,0.0,0.0,0.0,0.0,0.0,0.0,0.0,0.0,0.0,0.0,0.0,0.0,0.0,0.0,0.0,0.0,0.0,0.0,0.0,0.0,0.0,0.0,0.0,0.0,0.0,0.0,0.0,0.0,0.0,0.0,0.0,0.0,0.0,0.0,0.0,0.0,0.0,0.0,0.0,0.0,0.0,0.0,0.0,0.0,0.0,0.0,0.0,0.0,0.0,0.0,0.0,0.0,0.0,0.0,0.0,0.0,0.0,0.0,0.0,0.0,0.0,0.0,0.0,0.0,0.0,0.0,0.0,0.0,0.0,0.0,0.0,0.0,0.0,0.0,0.0,0.0,0.0,0.0,0.0,0.0,0.0,0.0,0.0,0.0,0.0,0.0,0.0,0.0,0.0,0.0,0.0,0.0,0.0,0.0,0.0,0.0,0.0,0.0,0.0,0.0,0.0,0.0,0.0,0.0,0.0,0.0,0.0,0.0,0.0,0.0,0.0,0.0,0.0,0.0,0.0,0.0,0.0,0.0,0.0,0.0,0.0,0.0,0.0,0.0,0.0,0.0,0.0,0.0,0.0,0.0,0.0,0.0,0.0,0.0,0.0,0.0,0.0,0.0,0.0,0.0,0.0,0.0,0.0,0.0,0.0,0.0,0.0,0.0,0.0,0.0,0.0,0.0,0.0,0.0,0.0,0.0,0.0,0.0,0.0,0.0,0.0,0.0,0.0,0.0,0.0,0.0,0.0,0.0,0.0,0.0,0.0,0.0,0.0,0.0,0.0,0.0,0.0,0.0,0.0,0.0,0.0,0.0,0.0,0.0,0.0,0.0,0.0,0.0,0.0,0.0,0.0,0.0,0.0,0.0,0.0,0.0,0.0,0.0]}]]]